ftp/pub/palmer/observations_modified/2019/March/AR190331_BASE.txt

Download

Sample DateTime	Unit Id	WS Avg 2min	WD Avg 2min	WGS 10min	WGD 10min	Air Temp	Rel Humidity	Dew Point	Pyranometer	Quantum	Air Pressure	Snow Level	Rainfall	PW Current	Visibility	CBase 1	CBase 2	CBase 3	Vert Vis
2019/03/31  00:00:00  BASE  18.7513  33   22.1735  31   1.0   94    0.1   0     0     961.6    NA       0.0000   9999     6140  0     0    
2019/03/31  00:01:00  BASE  19.2629  31   22.1735  31   1.0   94    0.1   0     0     961.7    NA       0.0000   9999     5840  0     0    
2019/03/31  00:02:00  BASE  18.7219  29   22.1735  31   1.0   94    0.2   0     0     961.7    NA       0.0000   9999     5970  0     0    
2019/03/31  00:03:00  BASE  18.034   28   22.1735  31   1.0   94    0.1   0     0     961.8    NA       0.0000   9999     5840  0     0    
2019/03/31  00:04:00  BASE  17.6282  29   22.1735  31   1.0   94    0.1   0     0     961.8    NA       0.0000   9999     5970  0     0    
2019/03/31  00:05:00  BASE  17.1755  29   22.1735  31   1.0   93    0.1   0     0     961.9    NA       0.0000   9999     5610  0     0    
2019/03/31  00:06:00  BASE  17.1402  28   22.1735  31   1.0   93    0.1   0     0     961.9    NA       0.0000   9999     5450  0     0    
2019/03/31  00:07:00  BASE  17.8046  29   22.1735  31   1.0   93    0.0   0     0     961.8    NA       0.0000   9999     6590  0     0    
2019/03/31  00:08:00  BASE  17.0755  29   22.1735  31   1.0   93    -0.0  0     0     961.9    NA       0.0000   9999     7250  0     0    
2019/03/31  00:09:00  BASE  16.7345  31   22.1735  31   1.0   93    -0.1  0     0     961.9    NA       0.0000   9999     7420  0     0    
2019/03/31  00:10:00  BASE  17.3225  30   20.8093  29   1.0   92    -0.1  0     0     961.9    NA       0.0000   9999     7870  0     0    
2019/03/31  00:11:00  BASE  16.9344  30   20.6917  31   1.0   92    -0.1  0     0     961.9    NA       0.0000   9999     7150  0     0    
2019/03/31  00:12:00  BASE  17.099   30   20.48    32   1.0   92    -0.1  0     0     961.9    NA       0.0000   9999     6590  0     0    
2019/03/31  00:13:00  BASE  16.9285  28   20.48    32   1.1   92    -0.1  0     0     961.9    NA       0.0000   9999     6200  6920  0    
2019/03/31  00:14:00  BASE  17.0285  26   20.5682  29   1.1   92    -0.1  0     0     961.9    NA       0.0000   9999     7020  0     0    
2019/03/31  00:15:00  BASE  18.2574  26   20.5682  29   1.1   92    -0.1  0     0     961.8    NA       0.0000   9999     6760  0     0    
2019/03/31  00:16:00  BASE  18.1692  26   20.5682  29   1.1   92    -0.1  0     0     961.9    NA       0.0000   9999     5380  0     0    
2019/03/31  00:17:00  BASE  17.9222  29   20.5682  29   1.1   92    -0.1  0     0     961.9    NA       0.0000   9999     5450  0     0    
2019/03/31  00:18:00  BASE  18.328   29   20.5682  29   1.1   92    -0.1  0     0     961.9    NA       0.0000   9999     5480  0     0    
2019/03/31  00:19:00  BASE  16.7933  25   20.5682  29   1.1   92    -0.1  0     0     962.1    NA       0.0000   9999     5380  0     0    
2019/03/31  00:20:00  BASE  16.4699  28   20.5682  29   1.1   92    -0.1  0     0     961.9    NA       0.0000   9999     5280  6400  0    
2019/03/31  00:21:00  BASE  18.2398  31   20.5682  29   1.1   92    -0.1  0     0     961.8    NA       0.0000   9999     5220  6330  0    
2019/03/31  00:22:00  BASE  19.4158  30   21.3268  28   1.1   92    -0.1  0     0     961.6    NA       0.0000   9999     4820  6300  0    
2019/03/31  00:23:00  BASE  19.3334  27   21.3268  28   1.1   92    -0.1  0     0     961.8    NA       0.0000   9999     4460  0     0    
2019/03/31  00:24:00  BASE  17.6165  28   21.3268  28   1.1   92    -0.1  0     0     962.0    NA       0.0000   9999     4300  0     0    
2019/03/31  00:25:00  BASE  15.9877  29   21.3268  28   1.1   92    -0.1  0     0     962.1    NA       0.0000   9999     4270  4990  0    
2019/03/31  00:26:00  BASE  15.5467  30   21.3268  28   1.1   91    -0.2  0     0     962.1    NA       0.0000   9999     4400  0     0    
2019/03/31  00:27:00  BASE  15.3292  30   21.3268  28   1.1   91    -0.2  0     0     962.1    NA       0.0000   9999     3900  0     0    
2019/03/31  00:28:00  BASE  15.7231  29   21.3268  28   1.0   91    -0.2  0     0     962.0    NA       0.0000   9999     3640  0     0    
2019/03/31  00:29:00  BASE  16.805   27   21.3268  28   1.0   92    -0.2  0     0     961.8    NA       0.0000   9999     3610  0     0    
2019/03/31  00:30:00  BASE  18.3162  30   22.0794  28   1.0   92    -0.2  0     0     961.7    NA       0.0000   9999     3640  0     0    
2019/03/31  00:31:00  BASE  19.1688  33   22.0794  28   1.0   92    -0.2  0     0     961.7    NA       0.0000   9999     3610  0     0    
2019/03/31  00:32:00  BASE  18.1633  30   22.0794  28   1.0   92    -0.2  0     0     961.9    NA       0.0000   9999     3120  0     0    
2019/03/31  00:33:00  BASE  17.493   30   22.0794  28   1.0   92    -0.2  0     0     962.0    NA       0.0000   9999     3020  0     0    
2019/03/31  00:34:00  BASE  17.2813  30   22.0794  28   1.0   92    -0.2  0     0     962.0    NA       0.0000   9999     2820  0     0    
2019/03/31  00:35:00  BASE  17.346   28   22.0794  28   1.0   92    -0.2  0     0     962.0    NA       0.0000   9999     3050  0     0    
2019/03/31  00:36:00  BASE  17.8282  27   22.0794  28   1.0   92    -0.2  0     0     961.9    NA       0.0000   9999     3280  0     0    
2019/03/31  00:37:00  BASE  17.8693  26   22.0794  28   1.0   92    -0.2  0     0     961.9    NA       0.0000   9999     3220  0     0    
2019/03/31  00:38:00  BASE  17.8693  27   22.0794  28   1.0   92    -0.2  0     0     962.0    NA       0.0000   9999     6690  0     0    
2019/03/31  00:39:00  BASE  18.0575  30   22.0794  28   1.0   91    -0.2  0     0     962.0    NA       0.0000   9999     6040  0     0    
2019/03/31  00:40:00  BASE  17.3166  31   20.5682  36   1.0   91    -0.2  0     0     962.2    NA       0.0000   9999     6000  0     0    
2019/03/31  00:41:00  BASE  17.0579  30   19.8156  36   1.0   91    -0.3  0     0     962.2    NA       0.0000   9999     5910  0     0    
2019/03/31  00:42:00  BASE  17.3048  27   19.8156  36   1.0   91    -0.3  0     0     962.2    NA       0.0000   9999     4860  0     0    
2019/03/31  00:43:00  BASE  16.9403  25   19.6921  33   1.0   91    -0.3  0     0     962.2    NA       0.0000   9999     4200  0     0    
2019/03/31  00:44:00  BASE  16.9285  27   19.6921  33   1.0   91    -0.3  0     0     962.1    NA       0.0000   9999     4100  0     0    
2019/03/31  00:45:00  BASE  16.8109  30   19.6921  33   1.0   91    -0.4  0     0     962.3    NA       0.0000   9999     3900  5350  0    
2019/03/31  00:46:00  BASE  16.658   27   19.6921  33   1.0   90    -0.4  0     0     962.2    NA       0.0000   9999     3940  5120  0    
2019/03/31  00:47:00  BASE  17.1755  27   21.2974  27   1.0   90    -0.4  0     0     962.1    NA       0.0000   9999     3810  0     0    
2019/03/31  00:48:00  BASE  17.0226  27   21.2974  27   1.0   90    -0.4  0     0     962.4    NA       0.0000   9999     3810  5680  0    
2019/03/31  00:49:00  BASE  14.5236  24   21.2974  27   1.1   90    -0.4  0     0     962.6    NA       0.0000   9999     2400  0     0    
2019/03/31  00:50:00  BASE  14.3648  24   21.2974  27   1.1   89    -0.5  0     0     962.3    NA       0.0000   9999     2590  0     0    
2019/03/31  00:51:00  BASE  17.1284  27   21.2974  27   1.1   89    -0.5  0     0     962.0    NA       0.0000   9999     2990  0     0    
2019/03/31  00:52:00  BASE  18.7337  27   21.2974  27   1.1   89    -0.6  0     0     962.0    NA       0.0000   SQ       9999  2720  0    
2019/03/31  00:53:00  BASE  18.522   27   21.2974  27   1.1   88    -0.6  0     0     962.2    NA       0.0000   9999     3050  0     0    
2019/03/31  00:54:00  BASE  17.5283  28   21.2974  27   1.1   88    -0.6  0     0     962.3    NA       0.0000   9999     5910  0     0    
2019/03/31  00:55:00  BASE  16.9109  26   21.2974  27   1.2   88    -0.6  0     0     962.4    NA       0.0000   9999     5540  0     0    
2019/03/31  00:56:00  BASE  15.3115  25   21.2974  27   1.2   88    -0.7  0     0     962.6    NA       0.0000   9999     2660  0     0    
2019/03/31  00:57:00  BASE  14.0356  25   21.021   27   1.2   87    -0.7  0     0     962.6    NA       0.0000   9999     5350  0     0    
2019/03/31  00:58:00  BASE  15.3292  25   21.021   27   1.1   87    -0.7  0     0     962.4    NA       0.0000   9999     4690  0     0    
2019/03/31  00:59:00  BASE  16.7992  26   21.021   27   1.1   87    -0.8  0     0     962.4    NA       0.0000   9999     3610  0     0    
2019/03/31  01:00:00  BASE  17.1108  27   21.021   27   1.0   88    -0.8  0     0     962.4    NA       0.0000   9999     3540  0     0    
2019/03/31  01:01:00  BASE  17.3225  27   21.021   27   1.0   88    -0.7  0     0     962.4    NA       0.0000   9999     2170  0     0    
2019/03/31  01:02:00  BASE  16.6816  26   20.0567  28   1.0   88    -0.7  0     0     962.6    NA       0.0000   9999     0     0     0    
2019/03/31  01:03:00  BASE  15.3527  24   19.9332  24   1.1   88    -0.6  0     0     962.8    NA       0.0000   9999     0     0     0    
2019/03/31  01:04:00  BASE  14.7     23   19.9332  24   1.1   88    -0.6  0     0     962.8    NA       0.0000   9999     0     0     0    
2019/03/31  01:05:00  BASE  15.2821  23   19.9332  24   1.1   88    -0.6  0     0     962.6    NA       0.0000   9999     0     0     0    
2019/03/31  01:06:00  BASE  16.858   25   19.9332  24   1.0   88    -0.7  0     0     962.5    NA       0.0000   UP       9999  0     0    
2019/03/31  01:07:00  BASE  17.6518  24   19.9332  24   1.0   89    -0.6  0     0     962.5    NA       0.0000   UP       9999  520   0    
2019/03/31  01:08:00  BASE  16.7286  25   19.9332  24   1.0   89    -0.6  0     0     962.7    NA       0.0000   UP       9999  430   0    
2019/03/31  01:09:00  BASE  15.7996  27   19.9332  24   1.0   89    -0.6  0     0     962.8    NA       0.0000   UP       7000  390   0    
2019/03/31  01:10:00  BASE  15.7584  29   19.6039  26   1.0   89    -0.6  0     0     962.7    NA       0.0000   -SN      6000  0     0    
2019/03/31  01:11:00  BASE  16.9109  29   19.6039  26   1.0   89    -0.6  0     0     962.6    NA       0.0000   -SN      5000  0     0    
2019/03/31  01:12:00  BASE  17.3578  26   19.6039  26   1.0   89    -0.6  0     0     962.7    NA       0.0000   -SN      BR    4300  330  
2019/03/31  01:13:00  BASE  17.0814  24   19.6039  26   0.9   90    -0.5  0     0     962.7    NA       0.0000   -SN      BR    3500  0    
2019/03/31  01:14:00  BASE  16.7933  23   19.6039  26   0.9   90    -0.5  0     0     962.8    NA       0.0000   -SN      BR    3400  260  
2019/03/31  01:15:00  BASE  16.1582  24   19.6039  26   0.8   91    -0.5  0     0     962.8    NA       0.0000   -SN      BR    3100  0    
2019/03/31  01:16:00  BASE  16.6051  24   19.1453  22   0.8   92    -0.4  0     0     962.6    NA       0.0000   -SN      BR    3300  230  
2019/03/31  01:17:00  BASE  16.6345  24   19.0865  29   0.7   93    -0.3  0     0     962.8    NA       0.0000   -SN      BR    3100  0    
2019/03/31  01:18:00  BASE  16.1288  25   19.0865  29   0.6   94    -0.3  0     0     962.7    NA       0.0000   -SN      BR    2700  0    
2019/03/31  01:19:00  BASE  16.7992  26   19.0865  29   0.6   94    -0.2  0     0     962.7    NA       0.0000   -SN      BR    2200  0    
2019/03/31  01:20:00  BASE  16.9226  26   19.2982  27   0.6   95    -0.1  0     0     962.7    NA       0.0000   -SN      BR    2200  0    
2019/03/31  01:21:00  BASE  16.2406  27   19.2982  27   0.5   96    -0.1  0     0     962.7    NA       0.0000   -SN      BR    2300  0    
2019/03/31  01:22:00  BASE  16.0171  30   19.2982  27   0.5   97    0.0   0     0     962.7    NA       0.0000   -SN      BR    2300  0    
2019/03/31  01:23:00  BASE  16.4287  32   19.2982  27   0.4   98    0.1   0     0     962.7    NA       0.0000   -SN      BR    2500  0    
2019/03/31  01:24:00  BASE  16.3876  31   19.2982  27   0.4   99    0.2   0     0     962.7    NA       0.0000   -SN      BR    2900  0    
2019/03/31  01:25:00  BASE  16.5581  28   19.2982  27   0.3   99    0.2   0     0     962.6    NA       0.0000   -SN      BR    3200  0    
2019/03/31  01:26:00  BASE  16.3111  29   19.2982  27   0.3   100   0.3   0     0     962.7    NA       0.0000   -SN      BR    3200  0    
2019/03/31  01:27:00  BASE  15.6761  29   19.2982  27   0.3   100   0.3   0     0     962.6    NA       0.0000   -SN      BR    3400  0    
2019/03/31  01:28:00  BASE  16.1171  28   19.2982  27   0.3   100   0.3   0     0     962.6    NA       0.0000   -SN      BR    3400  0    
2019/03/31  01:29:00  BASE  16.8932  30   19.2982  27   0.3   100   0.3   0     0     962.5    NA       0.0000   -SN      BR    3600  0    
2019/03/31  01:30:00  BASE  17.005   30   19.21    31   0.3   100   0.3   0     0     962.6    NA       0.0000   -SN      BR    3700  3310 
2019/03/31  01:31:00  BASE  16.8286  29   19.21    31   0.3   100   0.3   0     0     962.7    NA       0.0000   -SN      BR    4000  0    
2019/03/31  01:32:00  BASE  16.6404  30   19.21    31   0.3   100   0.3   0     0     962.8    NA       0.0000   -SN      BR    7000  2330 
2019/03/31  01:33:00  BASE  16.4111  31   19.21    31   0.4   100   0.4   0     0     962.8    NA       0.0000   -SN      BR    9999  2560 
2019/03/31  01:34:00  BASE  16.4758  31   18.7866  34   0.4   100   0.4   0     0     962.8    NA       0.0000   -SN      BR    9999  3050 
2019/03/31  01:35:00  BASE  16.6404  31   19.451   34   0.4   100   0.4   0     0     962.7    NA       0.0000   -SN      BR    9999  2560 
2019/03/31  01:36:00  BASE  16.8697  32   19.7803  25   0.4   100   0.4   0     0     962.7    NA       0.0000   -SN      BR    9999  4860 
2019/03/31  01:37:00  BASE  17.1108  31   19.7803  25   0.4   100   0.4   0     0     962.7    NA       0.0000   -SN      BR    9999  2460 
2019/03/31  01:38:00  BASE  16.464   29   19.7803  25   0.4   100   0.4   0     0     962.7    NA       0.0000   -SN      BR    9999  4490 
2019/03/31  01:39:00  BASE  16.2994  30   19.7803  25   0.5   99    0.4   0     0     962.6    NA       0.0000   -SN      BR    9999  4130 
2019/03/31  01:40:00  BASE  16.27    30   19.7803  25   0.5   99    0.4   0     0     962.8    NA       0.0000   -SN      9999  2400  0    
2019/03/31  01:41:00  BASE  15.4644  27   19.7803  25   0.6   98    0.3   0     0     962.8    NA       0.0000   -SN      9999  2200  0    
2019/03/31  01:42:00  BASE  16.3993  27   19.7803  25   0.6   98    0.3   0     0     962.6    NA       0.0000   -SN      9999  2430  5970 
2019/03/31  01:43:00  BASE  16.7462  27   19.7803  25   0.7   97    0.3   0     0     962.6    NA       0.0000   9999     3480  0     0    
2019/03/31  01:44:00  BASE  16.5346  29   19.7803  25   0.8   97    0.3   0     0     962.7    NA       0.0000   9999     3180  0     0    
2019/03/31  01:45:00  BASE  17.2519  29   19.7803  25   0.8   96    0.2   0     0     962.7    NA       0.0000   9999     850   0     0    
2019/03/31  01:46:00  BASE  16.27    27   19.1453  24   0.9   95    0.1   0     0     963.0    NA       0.0000   9999     690   0     0    
2019/03/31  01:47:00  BASE  14.4354  28   19.1453  24   0.9   94    0.1   0     0     963.1    NA       0.0000   9999     1250  0     0    
2019/03/31  01:48:00  BASE  14.847   29   19.1453  24   1.0   93    -0.0  0     0     962.9    NA       0.0000   9999     1080  0     0    
2019/03/31  01:49:00  BASE  15.9936  28   18.9042  28   1.0   92    -0.1  0     0     962.8    NA       0.0000   9999     790   0     0    
2019/03/31  01:50:00  BASE  16.8697  28   18.9042  28   1.1   91    -0.2  0     0     962.8    NA       0.0000   9999     1050  0     0    
2019/03/31  01:51:00  BASE  16.5698  28   18.8454  19   1.1   90    -0.3  0     0     962.9    NA       0.0000   9999     850   0     0    
2019/03/31  01:52:00  BASE  15.9289  27   18.6925  26   1.2   89    -0.4  0     0     963.0    NA       0.0000   9999     2170  0     0    
2019/03/31  01:53:26  BASE  16.2582  27   18.6925  26   1.2   88    -0.5  0     0     963.0    NA       0.0000   9999     2230  0     0    
2019/03/31  01:54:00  BASE  15.629   28   18.6925  26   1.2   87    -0.6  0     0     M        NA       0.0000   9999     3180  4720  0    
2019/03/31  01:55:01  BASE  14.4236  26   18.6043  28   1.2   87    -0.8  0     0     963.1    NA       0.0000   9999     3870  0     0    
2019/03/31  01:56:01  BASE  14.4472  23   18.6043  28   1.2   86    -0.8  0     0     963.1    NA       0.0000   9999     4230  0     0    
2019/03/31  01:57:00  BASE  15.2704  24   18.6043  28   1.3   86    -0.8  0     0     963.0    NA       0.0000   9999     4130  0     0    
2019/03/31  01:58:00  BASE  15.3174  25   18.6043  28   1.3   86    -0.8  0     0     963.1    NA       0.0000   9999     3970  0     0    
2019/03/31  01:59:00  BASE  15.1469  24   18.6043  28   1.4   85    -0.8  0     0     963.1    NA       0.0000   9999     3940  0     0    
2019/03/31  02:00:00  BASE  15.0352  24   18.0869  22   1.4   85    -0.8  0     0     963.2    NA       0.0000   9999     4040  0     0    
2019/03/31  02:01:00  BASE  14.4648  20   18.0869  22   1.5   85    -0.9  0     0     963.3    NA       0.0000   9999     3670  0     0    
2019/03/31  02:02:00  BASE  14.2002  20   17.5459  30   1.4   84    -0.9  0     0     963.4    NA       0.0000   9999     3740  0     0    
2019/03/31  02:03:00  BASE  13.4534  23   17.5459  30   1.5   84    -0.9  0     0     963.5    NA       0.0000   9999     3770  0     0    
2019/03/31  02:04:00  BASE  10.1371  20   17.5459  30   1.5   84    -0.8  0     0     963.8    NA       0.0000   -SN      7000  360   3900 
2019/03/31  02:05:00  BASE  9.37272  21   17.5459  30   1.5   84    -0.8  0     0     963.7    NA       0.0000   -SN      6000  390   0    
2019/03/31  02:06:00  BASE  12.1128  26   17.5459  30   1.5   85    -0.8  0     0     963.5    NA       0.0000   -SN      3800  300   0    
2019/03/31  02:07:00  BASE  12.9654  27   17.2696  14   1.5   85    -0.8  0     0     963.6    NA       0.0000   -SN      1600  0     0    
2019/03/31  02:08:00  BASE  13.1477  27   17.1226  27   1.4   85    -0.8  0     0     963.6    NA       0.0000   -SN      BR    1600  260  
2019/03/31  02:09:00  BASE  12.7184  27   16.0348  27   1.3   86    -0.8  0     0     963.7    NA       0.0000   -SN      BR    2900  330  
2019/03/31  02:10:00  BASE  11.7071  27   16.0348  27   1.2   87    -0.8  0     0     963.7    NA       0.0000   -SN      BR    5000  430  
2019/03/31  02:11:00  BASE  11.6306  27   16.0348  27   1.1   88    -0.7  0     0     963.7    NA       0.0000   -SN      BR    8000  460  
2019/03/31  02:12:00  BASE  12.5656  27   15.5173  29   1.0   88    -0.7  0     0     963.7    NA       0.0000   -SN      BR    9999  560  
2019/03/31  02:13:00  BASE  12.9654  26   15.5173  29   1.0   89    -0.7  0     0     963.7    NA       0.0000   -SN      BR    9999  520  
2019/03/31  02:14:00  BASE  12.5773  28   15.5173  29   1.0   89    -0.6  0     0     963.7    NA       0.0000   -SN      BR    9999  560  
2019/03/31  02:15:00  BASE  12.8184  26   15.5173  29   1.0   89    -0.6  0     0     963.7    NA       0.0000   -SN      BR    9999  590  
2019/03/31  02:16:00  BASE  12.9889  25   15.5173  29   1.0   89    -0.6  0     0     963.7    NA       0.0000   -SN      BR    9999  950  
2019/03/31  02:17:00  BASE  12.7008  25   15.5173  29   1.0   89    -0.6  0     0     963.8    NA       0.0000   -SN      BR    9999  820  
2019/03/31  02:18:00  BASE  12.6832  26   15.094   26   1.0   89    -0.6  0     0     963.8    NA       0.0000   -SN      BR    9999  560  
2019/03/31  02:19:00  BASE  12.689   26   15.094   26   1.0   90    -0.5  0     0     963.9    NA       0.0000   -SN      BR    7000  430  
2019/03/31  02:20:00  BASE  12.5303  26   15.094   26   1.0   90    -0.4  0     0     963.9    NA       0.0000   -SN      BR    5000  200  
2019/03/31  02:21:00  BASE  12.4774  26   15.094   26   1.0   91    -0.4  0     0     963.9    NA       0.0000   -SN      BR    1400  0    
2019/03/31  02:22:00  BASE  13.2476  28   15.094   26   0.9   92    -0.3  0     0     963.9    NA       0.0000   -SN      BR    1100  0    
2019/03/31  02:23:00  BASE  13.771   28   15.7878  25   0.9   92    -0.2  0     0     963.9    NA       0.0000   -SN      BR    1600  0    
2019/03/31  02:24:00  BASE  13.6592  24   15.7878  25   0.8   93    -0.1  0     0     963.9    NA       0.0000   -SN      BR    1200  0    
2019/03/31  02:25:00  BASE  13.0654  24   15.7878  25   0.8   94    -0.1  0     0     963.9    NA       0.0000   -SN      BR    1500  0    
2019/03/31  02:26:00  BASE  12.9595  25   15.7878  25   0.7   95    -0.0  0     0     963.9    NA       0.0000   -SN      BR    2000  0    
2019/03/31  02:27:00  BASE  13.0948  25   15.7878  25   0.6   96    0.1   0     0     963.9    NA       0.0000   -SN      BR    1100  0    
2019/03/31  02:28:00  BASE  12.6538  26   15.7878  25   0.5   97    0.2   0     0     963.9    NA       0.0000   -SN      BR    1100  0    
2019/03/31  02:29:00  BASE  12.0952  24   15.7878  25   0.5   98    0.2   0     0     964.0    NA       0.0000   -SN      BR    1100  1410 
2019/03/31  02:30:00  BASE  11.5248  25   15.7878  25   0.4   99    0.3   0     0     964.1    NA       0.0000   -SN      BR    1000  0    
2019/03/31  02:31:00  BASE  11.3249  26   15.7878  25   0.3   100   0.3   0     0     964.0    NA       0.0000   -SN      BR    1300  1570 
2019/03/31  02:32:00  BASE  11.713   28   15.7878  25   0.3   100   0.3   0     0     963.9    NA       0.0000   -SN      BR    1900  300  
2019/03/31  02:33:00  BASE  12.1657  29   14.7941  23   0.2   100   0.2   0     0     963.9    NA       0.0000   -SN      BR    2900  360  
2019/03/31  02:34:00  BASE  12.0364  29   14.7941  23   0.2   100   0.2   0     0     963.9    NA       0.0000   -SN      BR    3600  390  
2019/03/31  02:35:00  BASE  13.0301  30   15.2174  35   0.3   100   0.2   0     0     963.8    NA       0.0000   -SN      BR    4600  1970 
2019/03/31  02:36:00  BASE  13.3652  30   15.2174  35   0.3   100   0.3   0     0     963.8    NA       0.0000   -SN      BR    8000  1710 
2019/03/31  02:37:00  BASE  13.1065  29   15.3056  32   0.3   100   0.3   0     0     963.8    NA       0.0000   -SN      BR    9999  1800 
2019/03/31  02:38:00  BASE  13.5828  32   15.3056  32   0.3   100   0.3   0     0     963.8    NA       0.0000   -SN      BR    9999  2100 
2019/03/31  02:39:00  BASE  13.3417  34   15.3056  32   0.4   100   0.4   0     0     963.8    NA       0.0000   -SN      BR    9999  4070 
2019/03/31  02:40:00  BASE  13.4593  32   15.5173  31   0.4   100   0.4   0     0     963.8    NA       0.0000   -SN      BR    9999  5640 
2019/03/31  02:41:00  BASE  13.377   30   15.5173  31   0.5   100   0.5   0     0     963.8    NA       0.0000   -SN      BR    9999  5150 
2019/03/31  02:42:00  BASE  12.248   31   15.5173  31   0.5   100   0.5   0     0     963.9    NA       0.0000   -SN      BR    9999  4330 
2019/03/31  02:43:00  BASE  12.2716  31   15.5173  31   0.6   100   0.6   0     0     963.9    NA       0.0000   -SN      BR    9999  4460 
2019/03/31  02:44:00  BASE  12.8478  30   15.5173  31   0.6   100   0.6   0     0     963.9    NA       0.0000   -SN      9999  5480  0    
2019/03/31  02:45:00  BASE  13.1947  30   15.5173  31   0.6   100   0.6   0     0     963.9    NA       0.0000   -SN      9999  5640  0    
2019/03/31  02:46:00  BASE  13.5475  30   15.5173  31   0.6   100   0.6   0     0     964.0    NA       0.0000   -SN      9999  4490  5770 
2019/03/31  02:47:00  BASE  13.1712  32   15.5173  31   0.6   99    0.5   0     0     964.0    NA       0.0000   -SN      9999  4920  5840 
2019/03/31  02:48:00  BASE  13.0007  34   15.5173  31   0.7   99    0.5   0     0     964.0    NA       0.0000   -SN      9999  4860  0    
2019/03/31  02:49:00  BASE  12.789   32   15.5173  31   0.7   98    0.4   0     0     964.0    NA       0.0000   -SN      9999  5050  0    
2019/03/31  02:50:00  BASE  12.4244  31   15.4291  34   0.8   98    0.4   0     0     964.0    NA       0.0000   -SN      9999  6300  0    
2019/03/31  02:51:00  BASE  12.2245  29   15.4291  34   0.8   97    0.3   0     0     964.1    NA       0.0000   -SN      9999  6140  0    
2019/03/31  02:52:00  BASE  11.9423  28   15.4291  34   0.9   96    0.3   0     0     964.1    NA       0.0000   -SN      9999  6070  0    
2019/03/31  02:53:00  BASE  11.6953  29   15.4291  34   0.9   95    0.2   0     0     964.2    NA       0.0000   -SN      9999  6040  0    
2019/03/31  02:54:00  BASE  11.6718  29   15.4291  34   1.0   94    0.2   0     0     964.1    NA       0.0000   -SN      9999  3970  0    
2019/03/31  02:55:00  BASE  12.1775  28   14.7     33   1.0   94    0.1   0     0     964.1    NA       0.0000   -SN      9999  3810  0    
2019/03/31  02:56:00  BASE  12.5185  28   14.2766  35   1.0   93    0.0   0     0     964.1    NA       0.0000   9999     4300  0     0    
2019/03/31  02:57:00  BASE  12.101   29   14.2766  35   1.0   92    -0.0  0     0     964.2    NA       0.0000   9999     1020  0     0    
2019/03/31  02:58:00  BASE  12.101   27   14.0944  34   1.1   92    -0.1  0     0     964.1    NA       0.0000   9999     3740  0     0    
2019/03/31  02:59:00  BASE  12.6479  22   14.3707  15   1.2   91    -0.2  0     0     964.1    NA       0.0000   9999     3970  0     0    
2019/03/31  03:00:00  BASE  12.4597  23   14.3707  15   1.3   90    -0.2  0     0     964.2    NA       0.0000   9999     2790  4330  0    
2019/03/31  03:01:00  BASE  11.6777  25   14.3707  15   1.3   89    -0.2  0     0     964.3    NA       0.0000   9999     2790  0     0    
2019/03/31  03:02:00  BASE  11.4895  27   14.3707  15   1.4   89    -0.3  0     0     964.2    NA       0.0000   9999     2820  0     0    
2019/03/31  03:03:00  BASE  11.5248  26   14.3707  15   1.4   88    -0.3  0     0     964.3    NA       0.0000   9999     2920  0     0    
2019/03/31  03:04:00  BASE  11.5072  25   14.3707  15   1.4   88    -0.4  0     0     964.3    NA       0.0000   9999     6170  0     0    
2019/03/31  03:05:00  BASE  11.6718  25   14.3707  15   1.4   88    -0.4  0     0     964.4    NA       0.0000   9999     6330  0     0    
2019/03/31  03:06:00  BASE  10.878   27   14.3707  15   1.4   88    -0.4  0     0     964.5    NA       0.0000   9999     4200  0     0    
2019/03/31  03:07:00  BASE  11.3778  29   15.1234  28   1.4   88    -0.4  0     0     964.4    NA       0.0000   9999     2720  0     0    
2019/03/31  03:08:00  BASE  10.5193  24   15.1234  28   1.4   88    -0.4  0     0     964.6    NA       0.0000   9999     3020  6270  0    
2019/03/31  03:09:00  BASE  8.17908  23   15.1234  28   1.4   87    -0.5  0     0     964.8    NA       0.0000   9999     2920  6330  0    
2019/03/31  03:10:00  BASE  8.7024   32   15.1234  28   1.3   87    -0.6  0     0     964.8    NA       0.0000   9999     2790  3610  0    
2019/03/31  03:11:00  BASE  8.57304  40   15.1234  28   1.3   87    -0.7  0     0     964.9    NA       0.0000   9999     2720  3380  0    
2019/03/31  03:12:00  BASE  7.70868  39   15.1234  28   1.2   87    -0.8  0     0     964.9    NA       0.0000   9999     2690  3380  0    
2019/03/31  03:13:00  BASE  7.27944  33   15.1234  28   1.1   86    -0.9  0     0     964.9    NA       0.0000   9999     2560  6730  8240 
2019/03/31  03:14:00  BASE  7.19712  31   15.1234  28   1.1   87    -0.9  0     0     964.9    NA       0.0000   9999     2590  6860  0    
2019/03/31  03:15:00  BASE  7.17948  33   15.1234  28   1.0   87    -0.9  0     0     964.8    NA       0.0000   9999     2720  0     0    
2019/03/31  03:16:00  BASE  8.13792  33   15.1234  28   1.0   88    -0.8  0     0     964.7    NA       0.0000   9999     2690  0     0    
2019/03/31  03:17:00  BASE  9.1728   31   12.2833  28   1.0   88    -0.7  0     0     964.7    NA       0.0000   9999     2660  0     0    
2019/03/31  03:18:00  BASE  8.72004  28   10.8016  42   1.0   89    -0.7  0     0     964.7    NA       0.0000   9999     2720  0     0    
2019/03/31  03:19:00  BASE  9.24924  27   12.007   23   1.0   89    -0.6  0     0     964.7    NA       0.0000   9999     2760  0     0    
2019/03/31  03:20:00  BASE  10.2018  28   12.007   23   1.0   90    -0.5  0     0     964.6    NA       0.0000   9999     2590  0     0    
2019/03/31  03:21:00  BASE  10.831   26   12.495   27   1.1   90    -0.5  0     0     964.6    NA       0.0000   9999     2530  0     0    
2019/03/31  03:22:00  BASE  10.3841  25   12.495   27   1.1   90    -0.5  0     0     964.6    NA       0.0000   9999     2590  0     0    
2019/03/31  03:23:00  BASE  10.39    27   12.9772  26   1.0   89    -0.5  0     0     964.5    NA       0.0000   9999     2590  4530  0    
2019/03/31  03:24:00  BASE  11.4778  31   12.9772  26   1.0   89    -0.6  0     0     964.6    NA       0.0000   9999     2490  0     0    
2019/03/31  03:25:00  BASE  11.5483  32   13.2476  25   1.0   89    -0.6  0     0     964.7    NA       0.0000   9999     2530  0     0    
2019/03/31  03:26:00  BASE  11.419   31   13.2476  25   1.0   89    -0.7  0     0     964.6    NA       0.0000   9999     2590  0     0    
2019/03/31  03:27:00  BASE  11.319   32   13.2476  25   0.9   89    -0.6  0     0     964.7    NA       0.0000   9999     2660  3970  4720 
2019/03/31  03:28:00  BASE  10.631   31   13.2476  25   1.0   89    -0.6  0     0     964.7    NA       0.0000   9999     2760  3810  0    
2019/03/31  03:29:32  BASE  10.4017  31   13.2476  25   1.0   90    -0.6  0     0     964.7    NA       0.0000   9999     2950  3740  0    
2019/03/31  03:30:01  BASE  10.4546  32   13.2476  25   1.0   90    -0.5  0     0     M        NA       0.0000   9999     2890  0     0    
2019/03/31  03:31:00  BASE  9.7314   30   13.2476  25   1.0   90    -0.4  0     0     964.8    NA       0.0000   9999     3410  0     0    
2019/03/31  03:32:00  BASE  10.1195  29   13.2476  25   1.0   91    -0.4  0     0     964.7    NA       0.0000   9999     2850  0     0    
2019/03/31  03:33:00  BASE  10.2312  31   13.2476  25   0.9   91    -0.3  0     0     964.8    NA       0.0000   9999     2850  3740  0    
2019/03/31  03:34:00  BASE  9.27276  31   13.2476  25   0.9   92    -0.3  0     0     964.8    NA       0.0000   9999     2850  3640  0    
2019/03/31  03:35:00  BASE  9.60204  31   12.7949  37   1.0   91    -0.3  0     0     964.8    NA       0.0000   9999     2890  3670  0    
2019/03/31  03:36:00  BASE  10.3135  32   12.5832  33   1.0   91    -0.3  0     0     964.8    NA       0.0000   9999     2890  0     0    
2019/03/31  03:37:00  BASE  10.6487  33   13.4299  30   1.0   91    -0.3  0     0     964.7    NA       0.0000   9999     2850  0     0    
2019/03/31  03:38:00  BASE  11.0662  34   13.4299  30   1.0   91    -0.3  0     0     964.8    NA       0.0000   9999     2890  3610  0    
2019/03/31  03:39:00  BASE  10.6252  32   13.4299  30   1.0   91    -0.3  0     0     964.8    NA       0.0000   9999     2990  3540  5050 
2019/03/31  03:40:00  BASE  10.4899  32   13.4299  30   1.0   91    -0.4  0     0     964.7    NA       0.0000   9999     2990  3670  0    
2019/03/31  03:41:00  BASE  10.4546  31   13.4299  30   1.0   90    -0.5  0     0     964.8    NA       0.0000   9999     2950  0     0    
2019/03/31  03:42:00  BASE  10.7075  31   13.4299  30   0.9   90    -0.5  0     0     964.7    NA       0.0000   9999     2850  0     0    
2019/03/31  03:43:00  BASE  11.2602  31   13.4299  30   0.9   90    -0.6  0     0     964.7    NA       0.0000   9999     3080  0     0    
2019/03/31  03:44:00  BASE  11.3072  31   13.4299  30   0.9   90    -0.6  0     0     964.8    NA       0.0000   9999     3080  0     0    
2019/03/31  03:45:00  BASE  11.7188  33   13.4299  30   0.9   90    -0.6  0     0     964.7    NA       0.0000   9999     3180  0     0    
2019/03/31  03:46:00  BASE  11.86    34   13.4299  30   0.9   90    -0.6  0     0     964.7    NA       0.0000   9999     3250  0     0    
2019/03/31  03:47:00  BASE  10.9309  30   13.277   39   1.0   89    -0.6  0     0     964.8    NA       0.0000   9999     3540  0     0    
2019/03/31  03:48:00  BASE  10.5899  28   13.277   39   1.0   89    -0.6  0     0     964.8    NA       0.0000   9999     3540  4170  0    
2019/03/31  03:49:00  BASE  11.0662  29   13.277   39   1.0   89    -0.6  0     0     964.7    NA       0.0000   9999     3450  0     0    
2019/03/31  03:50:00  BASE  11.2132  28   13.277   39   1.0   89    -0.6  0     0     964.8    NA       0.0000   9999     2560  3280  0    
2019/03/31  03:51:00  BASE  11.4836  28   13.277   39   1.0   89    -0.6  0     0     964.8    NA       0.0000   9999     2620  0     0    
2019/03/31  03:52:00  BASE  10.9192  29   13.277   39   1.0   89    -0.6  0     0     964.8    NA       0.0000   9999     2660  0     0    
2019/03/31  03:53:00  BASE  10.7839  28   13.277   39   1.0   89    -0.6  0     0     964.8    NA       0.0000   9999     1050  0     0    
2019/03/31  03:54:00  BASE  11.4013  26   13.13    34   1.1   88    -0.6  0     0     964.8    NA       0.0000   9999     950   2920  0    
2019/03/31  03:55:00  BASE  11.4719  28   13.3123  28   1.1   88    -0.6  0     0     964.8    NA       0.0000   9999     890   0     0    
2019/03/31  03:56:00  BASE  11.2426  28   13.3123  28   1.1   88    -0.6  0     0     964.8    NA       0.0000   9999     1180  0     0    
2019/03/31  03:57:00  BASE  10.7251  27   13.3123  28   1.1   88    -0.6  0     0     964.9    NA       0.0000   9999     1250  0     0    
2019/03/31  03:58:00  BASE  11.0426  28   13.3123  28   1.1   88    -0.6  0     0     964.8    NA       0.0000   9999     1610  0     0    
2019/03/31  03:59:00  BASE  11.172   26   13.3123  28   1.1   88    -0.6  0     0     964.8    NA       0.0000   9999     2000  0     0    
2019/03/31  04:00:00  BASE  10.5193  26   13.3123  28   1.1   88    -0.7  0     0     964.9    NA       0.0000   9999     3870  0     0    
2019/03/31  04:01:00  BASE  10.1136  26   13.3123  28   1.1   88    -0.7  0     0     964.9    NA       0.0000   9999     1840  0     0    
2019/03/31  04:02:00  BASE  10.8016  26   13.3123  28   1.1   88    -0.6  0     0     964.9    NA       0.0000   9999     1710  0     0    
2019/03/31  04:03:00  BASE  11.6894  26   13.5828  21   1.2   88    -0.6  0     0     964.8    NA       0.0000   9999     1710  0     0    
2019/03/31  04:04:00  BASE  10.9544  27   13.5828  21   1.2   88    -0.5  0     0     964.9    NA       0.0000   9999     1740  0     0    
2019/03/31  04:05:00  BASE  10.1606  29   13.5828  21   1.2   88    -0.5  0     0     964.9    NA       0.0000   9999     1610  0     0    
2019/03/31  04:06:00  BASE  10.5428  26   13.5828  21   1.3   88    -0.5  0     0     964.8    NA       0.0000   9999     1840  0     0    
2019/03/31  04:07:00  BASE  11.0074  25   13.5828  21   1.3   88    -0.5  0     0     964.9    NA       0.0000   9999     1900  0     0    
2019/03/31  04:08:00  BASE  11.9717  28   13.5828  21   1.3   88    -0.4  0     0     964.8    NA       0.0000   9999     4430  0     0    
2019/03/31  04:09:00  BASE  12.3715  30   13.6416  25   1.4   88    -0.5  0     0     964.8    NA       0.0000   9999     3710  0     0    
2019/03/31  04:10:00  BASE  11.6189  28   13.6416  25   1.4   88    -0.5  0     0     964.9    NA       0.0000   9999     3670  0     0    
2019/03/31  04:11:00  BASE  11.0015  26   13.6416  25   1.4   88    -0.5  0     0     964.9    NA       0.0000   9999     3450  0     0    
2019/03/31  04:12:00  BASE  10.9015  26   13.6416  25   1.4   88    -0.5  0     0     964.9    NA       0.0000   9999     3450  0     0    
2019/03/31  04:13:00  BASE  11.0074  26   13.6416  25   1.3   88    -0.5  0     0     964.9    NA       0.0000   9999     3450  0     0    
2019/03/31  04:14:00  BASE  10.8133  27   13.6416  25   1.3   88    -0.5  0     0     964.9    NA       0.0000   9999     3640  0     0    
2019/03/31  04:15:00  BASE  10.8368  28   13.6416  25   1.3   88    -0.5  0     0     964.9    NA       0.0000   9999     3670  0     0    
2019/03/31  04:16:00  BASE  10.9074  30   13.6416  25   1.3   88    -0.5  0     0     965.0    NA       0.0000   9999     3770  0     0    
2019/03/31  04:17:00  BASE  10.4135  28   13.6416  25   1.2   88    -0.5  0     0     965.0    NA       0.0000   9999     3810  0     0    
2019/03/31  04:18:00  BASE  10.0195  27   13.6416  25   1.2   88    -0.6  0     0     965.0    NA       0.0000   9999     3940  0     0    
2019/03/31  04:19:00  BASE  9.30216  26   12.495   27   1.2   88    -0.5  0     0     965.1    NA       0.0000   9999     3870  0     0    
2019/03/31  04:20:00  BASE  8.42016  25   12.248   27   1.2   89    -0.5  0     0     965.1    NA       0.0000   9999     2230  3840  0    
2019/03/31  04:21:00  BASE  8.4672   29   12.248   27   1.2   89    -0.4  0     0     965.1    NA       0.0000   9999     3740  0     0    
2019/03/31  04:22:00  BASE  9.21396  31   12.248   27   1.2   89    -0.4  0     0     965.1    NA       0.0000   9999     3740  0     0    
2019/03/31  04:23:00  BASE  9.90192  30   12.0716  36   1.2   90    -0.3  0     0     965.1    NA       0.0000   9999     3740  0     0    
2019/03/31  04:24:00  BASE  9.86664  30   12.0716  36   1.1   90    -0.4  0     0     965.1    NA       0.0000   9999     3670  0     0    
2019/03/31  04:25:00  BASE  9.70788  31   12.0716  36   1.1   90    -0.4  0     0     965.1    NA       0.0000   9999     3740  0     0    
2019/03/31  04:26:00  BASE  9.90192  33   11.3719  33   1.0   89    -0.5  0     0     965.0    NA       0.0000   9999     3610  0     0    
2019/03/31  04:27:00  BASE  9.96072  33   11.4954  23   1.0   89    -0.6  0     0     965.0    NA       0.0000   9999     3710  0     0    
2019/03/31  04:28:00  BASE  9.89016  32   11.4954  23   0.9   89    -0.6  0     0     965.0    NA       0.0000   9999     3640  0     0    
2019/03/31  04:29:00  BASE  10.0372  32   11.5248  30   0.9   90    -0.6  0     0     965.0    NA       0.0000   9999     3670  0     0    
2019/03/31  04:30:00  BASE  10.7957  32   12.5832  33   0.9   90    -0.6  0     0     964.9    NA       0.0000   9999     3580  0     0    
2019/03/31  04:31:00  BASE  10.8192  31   12.5832  33   0.9   90    -0.5  0     0     965.0    NA       0.0000   9999     3510  0     0    
2019/03/31  04:32:00  BASE  10.3841  31   12.5832  33   0.9   91    -0.4  0     0     965.0    NA       0.0000   9999     3540  0     0    
2019/03/31  04:33:00  BASE  10.096   33   12.5832  33   0.9   91    -0.4  0     0     965.1    NA       0.0000   9999     3610  0     0    
2019/03/31  04:34:00  BASE  10.1371  33   12.5832  33   0.9   91    -0.4  0     0     965.0    NA       0.0000   9999     3640  0     0    
2019/03/31  04:35:00  BASE  10.778   31   12.5832  33   0.9   91    -0.4  0     0     965.0    NA       0.0000   9999     3870  0     0    
2019/03/31  04:36:00  BASE  10.6428  31   12.5832  33   0.9   91    -0.4  0     0     965.1    NA       0.0000   9999     3870  0     0    
2019/03/31  04:37:00  BASE  10.5722  29   12.5832  33   0.9   91    -0.4  0     0     965.0    NA       0.0000   9999     3870  0     0    
2019/03/31  04:38:00  BASE  10.8604  28   12.5832  33   0.9   92    -0.3  0     0     965.0    NA       0.0000   9999     3940  0     0    
2019/03/31  04:39:00  BASE  10.7898  28   12.5832  33   0.9   92    -0.2  0     0     965.1    NA       0.0000   9999     3940  0     0    
2019/03/31  04:40:00  BASE  10.3782  28   12.4009  25   1.0   92    -0.2  0     0     965.1    NA       0.0000   9999     4130  0     0    
2019/03/31  04:41:00  BASE  10.1018  28   12.4009  25   1.0   91    -0.2  0     0     965.1    NA       0.0000   9999     4130  0     0    
2019/03/31  04:42:00  BASE  10.1489  28   12.4009  25   1.1   91    -0.2  0     0     965.1    NA       0.0000   9999     2590  3540  0    
2019/03/31  04:43:00  BASE  10.4135  27   12.4009  25   1.1   91    -0.2  0     0     965.1    NA       0.0000   9999     2560  0     0    
2019/03/31  04:44:00  BASE  10.3606  26   12.4009  25   1.2   90    -0.3  0     0     965.2    NA       0.0000   9999     2560  0     0    
2019/03/31  04:45:00  BASE  9.702    25   12.4009  25   1.2   90    -0.3  0     0     965.2    NA       0.0000   9999     3080  0     0    
2019/03/31  04:46:00  BASE  9.57264  24   12.4009  25   1.2   90    -0.3  0     0     965.2    NA       0.0000   9999     0     0     0    
2019/03/31  04:47:00  BASE  9.79608  23   12.4009  25   1.2   89    -0.3  0     0     965.2    NA       0.0000   9999     1080  0     0    
2019/03/31  04:48:00  BASE  10.6134  23   12.2833  22   1.2   89    -0.4  0     0     965.1    NA       0.0000   9999     1280  0     0    
2019/03/31  04:49:00  BASE  11.5072  24   12.2833  22   1.2   89    -0.4  0     0     965.2    NA       0.0000   9999     330   0     0    
2019/03/31  04:50:00  BASE  11.5072  23   12.6126  16   1.2   89    -0.3  0     0     965.2    NA       0.0000   9999     390   0     0    
2019/03/31  04:51:00  BASE  11.0191  22   12.6126  16   1.2   90    -0.3  0     0     965.2    NA       0.0000   9999     460   1710  0    
2019/03/31  04:52:00  BASE  10.143   23   12.6126  16   1.2   90    -0.2  0     0     965.3    NA       0.0000   9999     490   0     0    
2019/03/31  04:53:00  BASE  10.0372  22   12.6126  16   1.2   91    -0.2  0     0     965.3    NA       0.0000   9999     750   0     0    
2019/03/31  04:54:00  BASE  10.29    21   12.6126  16   1.2   91    -0.1  0     0     965.3    NA       0.0000   9999     920   0     0    
2019/03/31  04:55:00  BASE  10.4252  23   12.6126  16   1.1   92    -0.0  0     0     965.3    NA       0.0000   9999     1080  2920  0    
2019/03/31  04:56:00  BASE  10.5252  25   12.6126  16   1.1   93    0.0   0     0     965.3    NA       0.0000   UP       9999  1120  2790 
2019/03/31  04:57:00  BASE  10.1606  24   12.6126  16   1.0   94    0.1   0     0     965.4    NA       0.0000   UP       9999  980   0    
2019/03/31  04:58:00  BASE  9.92544  23   12.6126  16   1.0   94    0.2   0     0     965.4    NA       0.0000   UP       9999  1120  3740 
2019/03/31  04:59:00  BASE  9.73728  23   12.6126  16   0.9   95    0.3   0     0     965.4    NA       0.0000   UP       9000  330   3770 
2019/03/31  05:00:00  BASE  9.5256   23   12.007   23   0.9   96    0.4   0     0     965.4    NA       0.0000   UP       9000  0     0    
2019/03/31  05:01:00  BASE  9.3492   23   11.4366  21   0.9   98    0.6   0     0     965.5    NA       0.0000   UP       5000  0     0    
2019/03/31  05:02:00  BASE  8.92584  23   11.4366  21   0.9   99    0.7   0     0     965.6    NA       0.0000   -SN      BR    6000  260  
2019/03/31  05:03:00  BASE  8.66712  25   11.4366  21   0.9   99    0.8   0     0     965.6    NA       0.0000   -SN      BR    9000  360  
2019/03/31  05:04:00  BASE  8.379    26   11.4366  21   0.8   100   0.8   0     0     965.6    NA       0.0000   -SN      BR    6000  360  
2019/03/31  05:05:00  BASE  8.01444  27   11.2543  26   0.8   100   0.8   0     0     965.6    NA       0.0000   -SN      BR    4500  330  
2019/03/31  05:06:00  BASE  7.6734   31   10.831   25   0.8   100   0.8   0     0     965.6    NA       0.0000   -SN      BR    3800  260  
2019/03/31  05:07:00  BASE  6.80316  32   10.8016  20   0.7   100   0.7   0     0     965.6    NA       0.0000   -SN      BR    3600  200  
2019/03/31  05:08:00  BASE  6.23868  30   10.2841  26   0.7   100   0.7   0     0     965.6    NA       0.0000   -SN      BR    4900  330  
2019/03/31  05:09:00  BASE  5.72124  34   10.2253  20   0.7   100   0.7   0     0     965.6    NA       0.0000   -SN      BR    7000  330  
2019/03/31  05:10:00  BASE  5.43312  37   9.77256  23   0.7   100   0.7   0     0     965.6    NA       0.0000   -SN      BR    9999  360  
2019/03/31  05:11:00  BASE  6.0858   37   9.4668   27   0.7   100   0.7   0     0     965.6    NA       0.0000   -SN      BR    9999  390  
2019/03/31  05:12:00  BASE  6.32688  34   9.4668   27   0.7   100   0.7   0     0     965.6    NA       0.0000   -SN      BR    9999  2200 
2019/03/31  05:13:00  BASE  6.00936  30   8.71416  23   0.7   100   0.7   0     0     965.6    NA       0.0000   -SN      BR    9999  2300 
2019/03/31  05:14:00  BASE  6.29748  29   8.56128  26   0.7   100   0.7   0     0     965.6    NA       0.0000   -SN      BR    9999  2100 
2019/03/31  05:15:00  BASE  7.16772  30   8.92584  26   0.8   100   0.8   0     0     965.5    NA       0.0000   -SN      BR    9999  4530 
2019/03/31  05:16:00  BASE  7.83216  30   9.01404  29   0.8   100   0.8   0     0     965.5    NA       0.0000   -SN      BR    9999  4660 
2019/03/31  05:17:00  BASE  8.13204  30   9.19632  39   0.8   100   0.8   0     0     965.5    NA       0.0000   -SN      9999  2360  0    
2019/03/31  05:18:00  BASE  8.15556  29   9.61968  26   0.8   100   0.8   0     0     965.5    NA       0.0000   -SN      9999  2430  0    
2019/03/31  05:19:00  BASE  8.86116  26   10.437   24   0.9   100   0.8   0     0     965.5    NA       0.0000   -SN      9999  2460  0    
2019/03/31  05:20:00  BASE  9.66672  25   10.7075  27   0.9   99    0.8   0     0     965.4    NA       0.0000   -SN      9999  2460  0    
2019/03/31  05:21:00  BASE  9.34332  24   10.7075  27   1.0   99    0.8   0     0     965.5    NA       0.0000   -SN      9999  2490  0    
2019/03/31  05:22:00  BASE  8.96112  22   10.7075  27   1.1   98    0.8   0     0     965.5    NA       0.0000   9999     2620  0     0    
2019/03/31  05:23:00  BASE  9.0846   25   10.7075  27   1.2   97    0.8   0     0     965.5    NA       0.0000   9999     2660  0     0    
2019/03/31  05:24:00  BASE  8.9964   28   10.7075  27   1.2   96    0.7   0     0     965.6    NA       0.0000   9999     2890  0     0    
2019/03/31  05:25:00  BASE  8.8494   28   10.7075  27   1.3   96    0.7   0     0     965.6    NA       0.0000   9999     2950  0     0    
2019/03/31  05:26:00  BASE  9.13752  24   10.7075  27   1.3   95    0.6   0     0     965.6    NA       0.0000   9999     3020  0     0    
2019/03/31  05:27:00  BASE  9.702    22   10.7075  19   1.3   94    0.5   0     0     965.5    NA       0.0000   9999     3220  0     0    
2019/03/31  05:28:00  BASE  9.74904  23   10.7075  19   1.3   94    0.4   0     0     965.6    NA       0.0000   9999     3840  5510  0    
2019/03/31  05:29:00  BASE  9.07872  25   10.7075  19   1.3   94    0.4   0     0     965.6    NA       0.0000   9999     2260  5580  0    
2019/03/31  05:30:00  BASE  8.3202   24   10.7075  19   1.3   94    0.4   0     0     965.7    NA       0.0000   9999     2460  3120  5580 
2019/03/31  05:31:00  BASE  7.938    22   10.7075  19   1.3   94    0.5   0     0     965.7    NA       0.0000   9999     2530  0     0    
2019/03/31  05:32:00  BASE  7.86744  23   10.7075  19   1.3   95    0.6   0     0     965.7    NA       0.0000   9999     2460  3250  5870 
2019/03/31  05:33:00  BASE  7.56168  25   10.7075  19   1.3   96    0.7   0     0     965.8    NA       0.0000   9999     2720  0     0    
2019/03/31  05:34:00  BASE  7.22064  27   10.7075  19   1.2   97    0.8   0     0     965.8    NA       0.0000   9999     2490  0     0    
2019/03/31  05:35:00  BASE  7.02072  28   10.7075  19   1.2   98    0.9   0     0     965.8    NA       0.0000   9999     2530  0     0    
2019/03/31  05:36:00  BASE  7.2324   29   10.7075  19   1.1   99    1.0   0     0     965.8    NA       0.0000   -SN      9999  2660  0    
2019/03/31  05:37:00  BASE  7.15596  31   10.1018  28   1.1   99    1.0   0     0     965.9    NA       0.0000   -SN      9999  2790  0    
2019/03/31  05:38:00  BASE  7.03248  37   9.61968  20   1.0   100   1.0   0     0     965.9    NA       0.0000   -SN      9999  2490  0    
2019/03/31  05:39:00  BASE  6.9678   42   8.50248  20   1.0   100   1.0   0     0     965.9    NA       0.0000   -SN      9999  2590  0    
2019/03/31  05:40:00  BASE  6.88548  43   8.50248  20   1.0   100   1.0   0     0     965.9    NA       0.0000   -SN      9999  2590  0    
2019/03/31  05:41:00  BASE  6.468    42   8.50248  20   1.0   100   1.0   0     0     965.9    NA       0.0000   -SN      9999  2620  0    
2019/03/31  05:42:00  BASE  6.16224  43   8.379    31   1.0   100   1.0   0     0     965.9    NA       0.0000   -SN      9999  2690  0    
2019/03/31  05:43:00  BASE  6.63264  41   8.379    31   1.0   100   1.0   0     0     965.8    NA       0.0000   -SN      9999  2690  0    
2019/03/31  05:44:00  BASE  6.57972  36   8.379    31   1.0   100   1.0   0     0     965.8    NA       0.0000   -SN      9999  4130  0    
2019/03/31  05:45:00  BASE  6.28572  35   8.379    31   1.1   99    1.0   0     0     965.9    NA       0.0000   -SN      9999  3510  4360 
2019/03/31  05:46:00  BASE  6.7914   34   8.2908   29   1.1   99    0.9   0     0     965.8    NA       0.0000   -SN      9999  3310  0    
2019/03/31  05:47:00  BASE  6.97956  32   8.2908   29   1.1   98    0.9   0     0     965.9    NA       0.0000   9999     2820  3280  0    
2019/03/31  05:48:00  BASE  6.8502   33   8.3202   28   1.1   98    0.9   0     0     965.9    NA       0.0000   9999     2850  0     0    
2019/03/31  05:49:00  BASE  7.25004  37   8.3202   28   1.1   98    0.8   0     0     965.9    NA       0.0000   9999     2790  3810  0    
2019/03/31  05:50:00  BASE  7.3206   39   8.64948  40   1.1   98    0.8   0     0     965.9    NA       0.0000   9999     3770  4690  0    
2019/03/31  05:51:01  BASE  7.30884  37   8.64948  40   1.2   98    0.8   0     0     965.9    NA       0.0000   9999     3970  0     0    
2019/03/31  05:52:00  BASE  7.6146   35   9.13752  35   1.2   97    0.8   0     0     965.9    NA       0.0000   9999     4040  0     0    
2019/03/31  05:53:00  BASE  7.89684  35   9.13752  35   1.2   97    0.8   0     0     965.9    NA       0.0000   9999     4040  0     0    
2019/03/31  05:54:00  BASE  8.01444  32   9.31392  31   1.2   96    0.7   0     0     965.9    NA       0.0000   9999     4000  0     0    
2019/03/31  05:55:00  BASE  8.54952  32   9.61968  38   1.3   96    0.7   0     0     965.9    NA       0.0000   9999     3810  0     0    
2019/03/31  05:56:00  BASE  8.8494   34   9.61968  38   1.3   95    0.6   0     0     965.9    NA       0.0000   9999     3810  0     0    
2019/03/31  05:57:00  BASE  8.49072  33   9.61968  38   1.3   95    0.6   0     0     965.9    NA       0.0000   9999     3770  0     0    
2019/03/31  05:58:00  BASE  8.25552  32   9.61968  38   1.4   95    0.6   0     0     965.9    NA       0.0000   9999     3740  0     0    
2019/03/31  05:59:00  BASE  8.07324  30   9.61968  38   1.4   94    0.5   0     0     966.0    NA       0.0000   9999     3740  0     0    
2019/03/31  06:00:00  BASE  7.8792   33   9.61968  38   1.4   94    0.5   0     0     966.0    NA       0.0000   9999     3710  0     0    
2019/03/31  06:01:00  BASE  8.06736  35   9.61968  38   1.4   93    0.5   0     0     966.0    NA       0.0000   9999     3640  0     0    
2019/03/31  06:02:00  BASE  8.24376  37   9.61968  38   1.4   93    0.5   0     0     966.0    NA       0.0000   9999     3480  0     0    
2019/03/31  06:03:00  BASE  8.2614   39   9.61968  38   1.5   93    0.4   0     0     966.0    NA       0.0000   9999     3410  0     0    
2019/03/31  06:04:00  BASE  8.41428  39   9.61968  38   1.5   92    0.4   0     0     965.9    NA       0.0000   9999     2690  3350  0    
2019/03/31  06:05:00  BASE  8.66124  37   9.64908  28   1.5   92    0.4   0     0     965.9    NA       0.0000   9999     3180  0     0    
2019/03/31  06:06:00  BASE  8.4084   37   9.64908  28   1.5   91    0.3   0     0     965.9    NA       0.0000   9999     3280  0     0    
2019/03/31  06:07:00  BASE  8.2026   39   9.64908  28   1.5   91    0.2   0     0     965.9    NA       0.0000   9999     2820  0     0    
2019/03/31  06:08:00  BASE  8.35548  39   9.64908  28   1.6   90    0.2   0     0     965.9    NA       0.0000   9999     2920  0     0    
2019/03/31  06:09:00  BASE  8.2614   38   9.64908  28   1.6   90    0.1   0     0     965.9    NA       0.0000   9999     2850  0     0    
2019/03/31  06:10:00  BASE  8.13204  38   9.64908  28   1.6   90    0.1   0     0     965.9    NA       0.0000   9999     2950  0     0    
2019/03/31  06:11:00  BASE  8.15556  38   9.64908  28   1.6   89    0.0   0     0     966.0    NA       0.0000   9999     0     0     0    
2019/03/31  06:12:00  BASE  8.2026   39   9.64908  28   1.6   89    0.0   0     0     966.0    NA       0.0000   9999     0     0     0    
2019/03/31  06:13:00  BASE  8.47308  41   9.86076  39   1.6   89    -0.0  0     0     966.0    NA       0.0000   UP       9999  0     0    
2019/03/31  06:14:00  BASE  8.38488  41   9.86076  39   1.6   89    -0.1  0     0     966.0    NA       0.0000   UP       9999  0     0    
2019/03/31  06:15:00  BASE  7.89096  41   9.86076  39   1.5   89    -0.1  0     0     966.1    NA       0.0000   UP       9999  520   0    
2019/03/31  06:16:00  BASE  7.1736   38   9.86076  39   1.5   89    -0.1  0     0     966.1    NA       0.0000   UP       9999  520   0    
2019/03/31  06:17:00  BASE  7.19124  35   9.86076  39   1.5   89    -0.2  0     0     966.1    NA       0.0000   UP       9999  430   0    
2019/03/31  06:18:00  BASE  7.91448  33   9.86076  39   1.4   89    -0.1  0     0     966.1    NA       0.0000   UP       9000  390   0    
2019/03/31  06:19:00  BASE  7.97328  30   9.86076  39   1.4   90    -0.1  0     0     966.1    NA       0.0000   UP       5000  330   0    
2019/03/31  06:20:00  BASE  8.13792  30   9.86076  39   1.3   91    -0.1  0     0     966.1    NA       0.0000   -SN      BR    4300  300  
2019/03/31  06:21:00  BASE  8.0556   31   9.86076  39   1.2   91    -0.0  0     0     966.2    NA       0.0000   -SN      BR    3100  0    
2019/03/31  06:22:00  BASE  7.02072  32   9.86076  39   1.2   92    0.0   0     0     966.2    NA       0.0000   -SN      BR    3000  0    
2019/03/31  06:23:00  BASE  6.45624  33   9.74316  25   1.1   93    0.1   0     0     966.2    NA       0.0000   -SN      BR    2800  0    
2019/03/31  06:24:00  BASE  6.95016  31   9.74316  25   1.1   94    0.2   0     0     966.2    NA       0.0000   -SN      BR    2300  0    
2019/03/31  06:25:00  BASE  7.62636  29   9.74316  25   1.1   94    0.3   0     0     966.2    NA       0.0000   -SN      BR    2300  300  
2019/03/31  06:26:00  BASE  7.63224  31   9.74316  25   1.0   95    0.4   0     0     966.2    NA       0.0000   -SN      BR    2700  300  
2019/03/31  06:27:00  BASE  8.30844  30   10.3135  28   1.0   96    0.5   0     0     966.2    NA       0.0000   -SN      BR    2400  230  
2019/03/31  06:28:00  BASE  8.94348  28   10.3135  28   1.1   97    0.6   0     0     966.2    NA       0.0000   -SN      BR    1900  0    
2019/03/31  06:29:00  BASE  8.59068  28   10.3135  28   1.1   98    0.8   0     0     966.2    NA       0.0000   -SN      BR    1600  0    
2019/03/31  06:30:00  BASE  7.96152  35   10.3135  28   1.1   99    0.9   0     0     966.3    NA       0.0000   -SN      BR    2000  200  
2019/03/31  06:31:00  BASE  7.52052  36   10.3135  28   1.1   99    1.0   0     0     966.2    NA       0.0000   -SN      BR    1800  230  
2019/03/31  06:32:00  BASE  7.64988  33   10.3135  28   1.1   100   1.0   0     0     966.2    NA       0.0000   -SN      BR    2600  360  
2019/03/31  06:33:00  BASE  8.03208  34   10.3135  28   1.0   100   1.0   0     0     966.2    NA       0.0000   -SN      BR    3400  0    
2019/03/31  06:34:00  BASE  8.59068  34   10.3135  28   1.0   100   1.0   0     0     966.2    NA       0.0000   -SN      BR    2600  0    
2019/03/31  06:35:00  BASE  8.52012  35   10.3135  28   1.0   100   1.0   0     0     966.2    NA       0.0000   -SN      BR    2900  330  
2019/03/31  06:36:00  BASE  8.00268  34   10.3135  28   1.0   100   1.0   0     0     966.2    NA       0.0000   -SN      BR    3400  2490 
2019/03/31  06:37:00  BASE  7.57932  34   9.91956  38   0.9   100   0.9   0     0     966.2    NA       0.0000   -SN      BR    6000  2560 
2019/03/31  06:38:00  BASE  7.7028   32   9.91956  38   0.9   100   0.9   0     0     966.2    NA       0.0000   -SN      BR    9999  2690 
2019/03/31  06:39:00  BASE  8.02032  32   9.91956  38   0.9   100   0.9   0     0     966.2    NA       0.0000   -SN      BR    9999  2400 
2019/03/31  06:40:00  BASE  7.9674   33   9.91956  38   1.0   100   1.0   0     0     966.2    NA       0.0000   -SN      BR    9999  2660 
2019/03/31  06:41:00  BASE  7.7322   35   9.91956  38   1.0   100   1.0   0     0     966.2    NA       0.0000   -SN      BR    9999  2530 
2019/03/31  06:42:00  BASE  7.60872  33   9.91956  38   1.0   100   1.0   0     0     966.2    NA       0.0000   -SN      BR    9999  2400 
2019/03/31  06:43:00  BASE  7.62636  31   9.74316  32   1.0   100   1.0   0     0     966.2    NA       0.0000   -SN      BR    9999  2400 
2019/03/31  06:44:00  BASE  8.19672  32   10.3782  30   1.1   100   1.1   0     0     966.1    NA       0.0000   -SN      BR    9999  2560 
2019/03/31  06:45:00  BASE  8.39664  30   10.3782  30   1.1   100   1.1   0     0     966.2    NA       0.0000   -SN      9999  2590  0    
2019/03/31  06:46:00  BASE  8.526    30   10.3782  30   1.1   100   1.1   0     0     966.1    NA       0.0000   -SN      9999  3220  0    
2019/03/31  06:47:00  BASE  8.8788   28   11.3719  26   1.2   99    1.1   0     0     966.1    NA       0.0000   9999     2530  3640  0    
2019/03/31  06:48:00  BASE  9.17868  27   11.3719  26   1.2   99    1.0   0     0     966.1    NA       0.0000   9999     2720  0     0    
2019/03/31  06:49:00  BASE  9.5844   28   11.3719  26   1.2   98    1.0   0     0     966.1    NA       0.0000   9999     3250  0     0    
2019/03/31  06:50:00  BASE  10.0607  28   11.86    30   1.3   98    0.9   0     0     966.1    NA       0.0000   9999     1940  0     0    
2019/03/31  06:51:00  BASE  10.2665  28   11.86    30   1.3   97    0.9   0     0     966.1    NA       0.0000   9999     2030  0     0    
2019/03/31  06:52:00  BASE  9.83724  28   11.86    30   1.3   96    0.8   0     0     966.1    NA       0.0000   9999     2170  0     0    
2019/03/31  06:53:00  BASE  9.51972  28   11.86    30   1.4   96    0.7   0     0     966.1    NA       0.0000   9999     2950  0     0    
2019/03/31  06:54:00  BASE  9.95484  29   11.86    30   1.4   95    0.7   0     0     966.1    NA       0.0000   9999     2300  3150  0    
2019/03/31  06:55:00  BASE  10.5958  28   11.86    30   1.4   94    0.6   0     0     966.1    NA       0.0000   9999     2170  0     0    
2019/03/31  06:56:00  BASE  10.4311  27   11.86    30   1.4   94    0.5   0     0     966.1    NA       0.0000   9999     2820  4170  0    
2019/03/31  06:57:00  BASE  10.3606  27   11.86    30   1.4   93    0.5   0     0     966.1    NA       0.0000   9999     3020  4000  0    
2019/03/31  06:58:00  BASE  10.1371  28   11.86    30   1.4   93    0.4   0     0     966.2    NA       0.0000   9999     3150  3940  5540 
2019/03/31  06:59:00  BASE  9.71964  29   11.86    30   1.4   93    0.4   0     0     966.2    NA       0.0000   9999     3150  5320  0    
2019/03/31  07:00:00  BASE  9.6726   28   11.8247  27   1.4   92    0.3   0     0     966.2    NA       0.0000   9999     3280  5020  0    
2019/03/31  07:01:00  BASE  9.94308  27   11.8247  27   1.5   92    0.3   0     0     966.2    NA       0.0000   9999     3450  4990  0    
2019/03/31  07:02:00  BASE  10.1724  25   11.8247  27   1.5   92    0.3   0     0     966.2    NA       0.0000   9999     3380  4790  0    
2019/03/31  07:03:00  BASE  9.7314   25   11.8247  27   1.5   92    0.3   0     0     966.2    NA       0.0000   9999     3450  4820  0    
2019/03/31  07:04:00  BASE  9.57264  26   11.7365  27   1.5   92    0.3   0     0     966.3    NA       0.0000   9999     2460  4760  0    
2019/03/31  07:05:00  BASE  9.10224  26   11.7365  27   1.5   92    0.3   0     0     966.3    NA       0.0000   9999     3180  4560  0    
2019/03/31  07:06:00  BASE  8.69652  28   11.7365  27   1.4   92    0.3   0     0     966.4    NA       0.0000   9999     3050  4530  0    
2019/03/31  07:07:00  BASE  8.72004  29   11.7365  27   1.4   93    0.3   0     0     966.4    NA       0.0000   9999     3150  4490  0    
2019/03/31  07:08:00  BASE  8.54952  29   11.7365  27   1.4   93    0.4   0     0     966.4    NA       0.0000   9999     3450  4460  0    
2019/03/31  07:09:00  BASE  8.94348  30   11.7365  27   1.4   93    0.4   0     0     966.4    NA       0.0000   9999     3450  4360  0    
2019/03/31  07:10:00  BASE  9.09048  32   11.7365  27   1.4   94    0.5   0     0     966.4    NA       0.0000   9999     3350  4330  0    
2019/03/31  07:11:00  BASE  8.90232  31   11.3425  18   1.4   94    0.5   0     0     966.4    NA       0.0000   9999     3450  4270  0    
2019/03/31  07:12:00  BASE  8.80824  30   11.3425  18   1.4   93    0.5   0     0     966.4    NA       0.0000   9999     2560  0     0    
2019/03/31  07:13:00  BASE  8.71416  31   11.3425  18   1.5   93    0.4   0     0     966.4    NA       0.0000   9999     2560  0     0    
2019/03/31  07:14:00  BASE  8.89056  34   10.3135  24   1.5   92    0.4   0     0     966.4    NA       0.0000   9999     2590  0     0    
2019/03/31  07:15:00  BASE  8.8494   35   10.3135  24   1.5   92    0.3   0     0     966.4    NA       0.0000   9999     2890  0     0    
2019/03/31  07:16:01  BASE  8.97288  35   10.9192  36   1.5   92    0.3   0     0     966.4    NA       0.0000   9999     2490  0     0    
2019/03/31  07:17:00  BASE  8.96112  33   10.9192  35   1.5   91    0.3   0     0     966.4    NA       0.0000   9999     3640  0     0    
2019/03/31  07:18:00  BASE  8.83764  33   10.9192  35   1.5   91    0.3   0     0     966.4    NA       0.0000   9999     3670  0     0    
2019/03/31  07:19:00  BASE  9.3492   32   11.2249  36   1.6   91    0.2   0     0     966.4    NA       0.2540   9999     3640  0     0    
2019/03/31  07:20:00  BASE  9.50796  29   11.2249  36   1.6   91    0.3   0     0     966.4    NA       0.0000   9999     3310  0     0    
2019/03/31  07:21:00  BASE  9.18456  30   11.2249  36   1.6   91    0.3   0     0     966.4    NA       0.0000   9999     4460  0     0    
2019/03/31  07:22:00  BASE  9.16104  31   11.2249  36   1.6   91    0.3   0     0     966.4    NA       0.0000   9999     4590  0     0    
2019/03/31  07:23:00  BASE  8.8788   29   11.2249  36   1.6   92    0.3   0     0     966.5    NA       0.0000   9999     4530  0     0    
2019/03/31  07:24:00  BASE  8.72004  29   11.2249  36   1.5   92    0.4   0     0     966.5    NA       0.0000   9999     4100  0     0    
2019/03/31  07:25:00  BASE  8.6142   29   11.2249  36   1.5   92    0.4   0     0     966.5    NA       0.0000   9999     1770  0     0    
2019/03/31  07:26:00  BASE  8.82588  29   11.2249  36   1.5   92    0.4   0     0     966.5    NA       0.0000   9999     2000  0     0    
2019/03/31  07:27:00  BASE  9.29628  31   11.2249  36   1.5   93    0.4   0     0     966.5    NA       0.0000   9999     2000  0     0    
2019/03/31  07:28:00  BASE  9.04344  30   11.2249  36   1.5   93    0.5   0     0     966.5    NA       0.0000   9999     2070  0     0    
2019/03/31  07:29:00  BASE  8.93172  26   11.1896  27   1.6   93    0.5   0     0     966.5    NA       0.0000   9999     2100  0     0    
2019/03/31  07:30:00  BASE  8.90232  27   11.1896  27   1.6   93    0.6   0     0     966.5    NA       0.0000   9999     3940  0     0    
2019/03/31  07:31:00  BASE  9.0258   28   11.1896  27   1.6   93    0.6   0     0     966.5    NA       0.0000   9999     1870  0     0    
2019/03/31  07:32:00  BASE  9.2904   29   11.1602  32   1.6   93    0.6   0     0     966.5    NA       0.0000   9999     3610  0     0    
2019/03/31  07:33:00  BASE  9.03168  31   11.1602  32   1.6   93    0.6   0     0     966.6    NA       0.0000   9999     3580  0     0    
2019/03/31  07:34:00  BASE  8.82588  32   11.1602  32   1.6   93    0.6   0     0     966.6    NA       0.0000   9999     3640  0     0    
2019/03/31  07:35:00  BASE  8.43192  29   11.1602  32   1.7   93    0.6   0     0     966.6    NA       0.0000   9999     2030  0     0    
2019/03/31  07:36:00  BASE  8.42016  27   11.1602  32   1.6   93    0.6   0     0     966.5    NA       0.0000   9999     2430  0     0    
2019/03/31  07:37:00  BASE  9.19044  27   11.1602  32   1.7   93    0.6   0     0     966.6    NA       0.0000   9999     2790  0     0    
2019/03/31  07:38:00  BASE  9.3198   28   11.1602  32   1.7   93    0.6   0     0     966.5    NA       0.0000   9999     2950  0     0    
2019/03/31  07:39:00  BASE  8.99052  30   11.1602  32   1.7   93    0.7   0     0     966.6    NA       0.0000   9999     4860  0     0    
2019/03/31  07:40:00  BASE  8.93172  30   11.1602  32   1.7   93    0.7   0     0     966.6    NA       0.0000   9999     4630  0     0    
2019/03/31  07:41:00  BASE  8.75532  30   11.1602  32   1.7   93    0.7   0     0     966.7    NA       0.0000   9999     4530  0     0    
2019/03/31  07:42:00  BASE  8.68476  31   10.1959  33   1.7   93    0.7   0     0     966.6    NA       0.0000   9999     4560  0     0    
2019/03/31  07:43:00  BASE  8.85528  31   10.1959  33   1.6   93    0.6   0     0     966.6    NA       0.0000   9999     4630  0     0    
2019/03/31  07:44:00  BASE  8.86704  30   10.4664  28   1.6   93    0.6   0     0     966.6    NA       0.0000   9999     2720  0     0    
2019/03/31  07:45:00  BASE  8.7612   28   10.4664  28   1.6   93    0.6   0     0     966.6    NA       0.0000   9999     2950  0     0    
2019/03/31  07:46:00  BASE  8.74356  28   10.4664  28   1.6   93    0.6   0     0     966.6    NA       0.0000   9999     0     0     0    
2019/03/31  07:47:00  BASE  8.86704  29   10.4664  28   1.6   93    0.7   0     0     966.6    NA       0.0000   9999     0     0     0    
2019/03/31  07:48:00  BASE  9.04344  29   10.5252  33   1.6   93    0.7   0     0     966.6    NA       0.0000   UP       9999  2890  0    
2019/03/31  07:49:00  BASE  9.30804  30   11.1308  32   1.6   94    0.7   0     0     966.6    NA       0.0000   UP       9999  3870  0    
2019/03/31  07:50:00  BASE  9.71376  31   11.2249  35   1.6   94    0.7   0     0     966.6    NA       0.0000   UP       9999  3050  0    
2019/03/31  07:51:00  BASE  9.86076  33   11.466   32   1.6   94    0.7   0     0     966.6    NA       0.0000   UP       9999  3080  3900 
2019/03/31  07:52:00  BASE  8.80824  34   11.466   32   1.6   93    0.7   0     0     966.6    NA       0.0000   UP       9999  2990  3900 
2019/03/31  07:53:00  BASE  8.96112  32   11.466   32   1.6   94    0.7   0     0     966.6    NA       0.0000   UP       9999  2890  0    
2019/03/31  07:54:00  BASE  10.1018  33   11.466   32   1.6   94    0.7   0     0     966.6    NA       0.0000   UP       9999  4990  0    
2019/03/31  07:55:00  BASE  10.1724  33   11.466   32   1.6   94    0.7   0     0     966.6    NA       0.0000   UP       9999  2760  0    
2019/03/31  07:56:00  BASE  9.99012  30   11.466   32   1.6   94    0.7   0     0     966.6    NA       0.0000   UP       9999  2720  0    
2019/03/31  07:57:00  BASE  10.3958  31   11.7071  35   1.6   94    0.7   0     0     966.6    NA       0.0000   UP       9999  2490  0    
2019/03/31  07:58:00  BASE  10.1842  33   11.7071  35   1.6   94    0.7   0     0     966.6    NA       0.0000   UP       9999  2400  0    
2019/03/31  07:59:00  BASE  9.82548  31   11.7071  35   1.6   94    0.7   0     0     966.6    NA       0.0000   UP       9999  5020  0    
2019/03/31  08:00:00  BASE  10.0019  31   11.7071  35   1.6   94    0.7   0     0     966.6    NA       0.0000   UP       9999  4820  0    
2019/03/31  08:01:00  BASE  9.98424  31   11.7071  35   1.6   94    0.7   0     0     966.6    NA       0.0000   UP       9999  2100  0    
2019/03/31  08:02:00  BASE  10.2547  30   11.7071  35   1.6   94    0.7   0     0     966.6    NA       0.0000   9999     2170  0     0    
2019/03/31  08:03:00  BASE  9.74904  29   11.7071  35   1.6   94    0.7   0     0     966.7    NA       0.0000   9999     2460  3510  0    
2019/03/31  08:04:00  BASE  9.44916  30   11.7071  35   1.6   94    0.7   0     0     966.6    NA       0.0000   9999     2660  0     0    
2019/03/31  08:05:00  BASE  9.77844  31   11.7071  35   1.6   94    0.7   0     0     966.6    NA       0.0000   9999     3350  0     0    
2019/03/31  08:06:00  BASE  9.996    31   11.7071  35   1.6   94    0.7   0     0     966.6    NA       0.0000   9999     3050  0     0    
2019/03/31  08:07:00  BASE  10.2371  31   11.613   28   1.6   94    0.7   0     0     966.6    NA       0.0000   9999     3050  0     0    
2019/03/31  08:08:00  BASE  9.73728  30   11.613   28   1.6   94    0.7   0     0     966.7    NA       0.0000   9999     3280  0     0    
2019/03/31  08:09:00  BASE  9.64908  31   11.7953  34   1.6   94    0.7   0     0     966.7    NA       0.0000   9999     2890  0     0    
2019/03/31  08:10:00  BASE  9.63144  32   11.7953  34   1.6   94    0.7   0     0     966.7    NA       0.0000   9999     3180  0     0    
2019/03/31  08:11:00  BASE  9.09636  32   11.7953  34   1.6   94    0.7   0     0     966.8    NA       0.0000   9999     3350  0     0    
2019/03/31  08:12:00  BASE  8.91408  30   11.7953  34   1.6   94    0.8   0     0     966.8    NA       0.0000   9999     3350  0     0    
2019/03/31  08:13:00  BASE  9.17868  29   11.7953  34   1.6   94    0.8   0     0     966.8    NA       0.0000   9999     4430  0     0    
2019/03/31  08:14:00  BASE  9.10224  29   11.7953  34   1.7   94    0.8   0     0     966.8    NA       0.0000   9999     0     0     0    
2019/03/31  08:15:00  BASE  8.27316  25   11.7953  34   1.7   94    0.8   0     0     966.9    NA       0.0000   9999     0     0     0    
2019/03/31  08:16:00  BASE  8.02032  24   11.7953  34   1.7   93    0.7   0     0     966.9    NA       0.0000   9999     0     0     0    
2019/03/31  08:17:00  BASE  8.967    28   11.7953  34   1.7   93    0.7   0     0     966.9    NA       0.0000   9999     0     0     0    
2019/03/31  08:18:00  BASE  9.04344  31   11.7953  34   1.7   93    0.7   0     0     966.9    NA       0.0000   9999     4230  0     0    
2019/03/31  08:19:00  BASE  8.80236  27   11.1014  27   1.7   93    0.7   0     0     966.9    NA       0.0000   9999     4230  0     0    
2019/03/31  08:20:00  BASE  8.80824  28   10.9486  29   1.7   93    0.7   0     0     966.9    NA       0.0000   9999     4130  0     0    
2019/03/31  08:21:00  BASE  8.54364  31   10.9486  29   1.7   93    0.7   0     0     966.9    NA       0.0000   9999     0     0     0    
2019/03/31  08:22:00  BASE  9.50208  29   11.1014  21   1.7   93    0.7   0     0     966.8    NA       0.0000   9999     3410  0     0    
2019/03/31  08:23:00  BASE  10.3606  27   11.4366  23   1.7   93    0.7   0     0     966.8    NA       0.0000   9999     3350  0     0    
2019/03/31  08:24:00  BASE  10.3782  27   11.613   28   1.7   93    0.7   0     0     966.9    NA       0.0000   9999     0     0     0    
2019/03/31  08:25:00  BASE  10.0195  28   11.613   28   1.8   93    0.7   0     0     966.9    NA       0.0000   9999     0     0     0    
2019/03/31  08:26:00  BASE  9.13164  25   11.613   28   1.8   92    0.7   0     0     966.9    NA       0.0000   9999     2130  0     0    
2019/03/31  08:27:00  BASE  8.967    26   11.613   28   1.8   92    0.7   0     0     966.9    NA       0.0000   9999     2100  0     0    
2019/03/31  08:28:00  BASE  9.91368  27   11.613   28   1.8   92    0.7   0     0     966.9    NA       0.0000   9999     1940  0     0    
2019/03/31  08:29:00  BASE  10.2077  26   11.613   28   1.8   92    0.7   0     0     966.9    NA       0.0000   9999     1570  0     0    
2019/03/31  08:30:00  BASE  9.8196   26   11.613   28   1.8   92    0.7   0     0     967.0    NA       0.0000   9999     1540  2850  3580 
2019/03/31  08:31:00  BASE  10.1548  25   12.1598  22   1.8   92    0.7   0     0     966.9    NA       0.0000   9999     1710  2820  0    
2019/03/31  08:32:00  BASE  10.2136  26   12.1598  22   1.8   93    0.7   0     0     966.9    NA       0.0000   9999     1940  0     0    
2019/03/31  08:33:00  BASE  10.2724  25   12.1598  22   1.8   93    0.7   0     0     966.9    NA       0.0000   9999     1770  0     0    
2019/03/31  08:34:00  BASE  10.8956  24   12.1598  22   1.7   93    0.7   0     0     966.9    NA       0.0000   9999     1970  2820  0    
2019/03/31  08:35:00  BASE  11.0015  24   12.1598  22   1.7   93    0.7   0     0     966.9    NA       0.0000   9999     1540  0     0    
2019/03/31  08:36:00  BASE  10.8545  25   12.1598  24   1.7   93    0.7   0     0     966.9    NA       0.0000   9999     1670  0     0    
2019/03/31  08:37:00  BASE  11.1602  25   12.9184  24   1.7   93    0.7   0     0     966.9    NA       0.0000   9999     1380  0     0    
2019/03/31  08:38:00  BASE  11.0838  23   12.9184  24   1.7   93    0.7   0     0     967.0    NA       0.0000   UP       9999  1380  0    
2019/03/31  08:39:00  BASE  10.7251  24   12.9184  24   1.7   94    0.8   0     0     967.0    NA       0.0000   UP       9999  2130  3450 
2019/03/31  08:40:00  BASE  11.0956  24   12.9184  24   1.6   94    0.8   0     0     967.0    NA       0.0000   UP       9999  1280  2890 
2019/03/31  08:41:00  BASE  10.8368  23   12.9184  24   1.6   94    0.8   0     0     967.0    NA       0.0000   UP       9999  1210  2400 
2019/03/31  08:42:00  BASE  10.337   23   12.9184  24   1.6   95    0.8   0     0     967.0    NA       0.0000   UP       7000  1410  0    
2019/03/31  08:43:00  BASE  10.7545  23   12.9184  24   1.5   95    0.9   0     0     967.0    NA       0.0000   -SN      7000  1310  0    
2019/03/31  08:44:00  BASE  11.3602  23   12.9184  24   1.5   96    0.9   0     0     967.0    NA       0.0000   -SN      8000  3670  0    
2019/03/31  08:45:00  BASE  11.7012  23   12.9184  24   1.5   96    1.0   0     0     966.9    NA       0.0000   -SN      BR    9000  0    
2019/03/31  08:46:00  BASE  11.4719  22   12.9184  24   1.5   97    1.1   0     0     967.0    NA       0.0000   -SN      BR    9999  1570 
2019/03/31  08:47:00  BASE  11.2837  23   12.889   21   1.5   97    1.1   0     0     967.0    NA       0.0000   -SN      BR    9999  1210 
2019/03/31  08:48:00  BASE  11.2602  24   12.9772  26   1.5   98    1.2   0     0     967.0    NA       0.0000   -SN      BR    9999  1210 
2019/03/31  08:49:00  BASE  11.4484  24   12.9772  26   1.5   98    1.2   0     0     967.0    NA       0.0000   -SN      BR    9999  3610 
2019/03/31  08:50:00  BASE  12.1363  23   13.2182  22   1.5   98    1.2   0     0     967.0    NA       0.0000   -SN      BR    9999  1380 
2019/03/31  08:51:00  BASE  11.7306  24   13.2182  22   1.5   98    1.2   0     0     967.0    NA       0.0000   -SN      BR    8000  1640 
2019/03/31  08:52:00  BASE  11.0956  25   13.2182  22   1.5   98    1.2   0     0     967.0    NA       0.0000   -SN      BR    9000  1640 
2019/03/31  08:53:00  BASE  10.9486  24   13.2182  22   1.5   98    1.2   0     0     967.0    NA       0.0000   -SN      BR    6000  1710 
2019/03/31  08:54:00  BASE  10.8133  25   13.2182  22   1.4   98    1.2   0     0     967.1    NA       0.0000   -SN      BR    4500  2000 
2019/03/31  08:55:00  BASE  11.1132  24   13.2182  22   1.4   98    1.2   0     0     967.1    NA       0.0000   -SN      BR    4600  1970 
2019/03/31  08:56:00  BASE  11.3308  24   13.2182  22   1.4   99    1.2   0     0     967.1    NA       0.0000   -SN      BR    4100  1800 
2019/03/31  08:57:00  BASE  11.4366  24   13.2182  22   1.4   99    1.2   0     0     967.1    NA       0.0000   -SN      BR    4200  2130 
2019/03/31  08:58:00  BASE  10.9897  24   13.2182  22   1.4   99    1.3   0     0     967.2    NA       0.0000   -SN      BR    4000  2400 
2019/03/31  08:59:00  BASE  10.4135  25   13.2182  22   1.4   99    1.3   0     0     967.2    NA       0.0000   -SN      BR    6000  0    
2019/03/31  09:00:00  BASE  10.4782  26   12.5832  24   1.4   99    1.3   0     0     967.2    NA       0.0000   -SN      BR    6000  0    
2019/03/31  09:01:00  BASE  10.437   26   12.248   26   1.4   99    1.3   0     0     967.2    NA       0.0000   -SN      BR    5000  0    
2019/03/31  09:02:00  BASE  10.0666  25   12.248   26   1.4   100   1.3   0     0     967.2    NA       0.0000   -SN      BR    6000  0    
2019/03/31  09:03:00  BASE  10.2606  27   12.248   26   1.4   100   1.4   0     0     967.2    NA       0.0000   -SN      BR    9000  0    
2019/03/31  09:04:00  BASE  10.6898  25   12.248   26   1.4   100   1.4   0     0     967.2    NA       0.0000   -SN      BR    9999  0    
2019/03/31  09:05:00  BASE  10.0783  26   12.248   26   1.4   100   1.4   0     0     967.3    NA       0.0000   -SN      BR    9999  0    
2019/03/31  09:06:00  BASE  9.5256   29   12.248   26   1.5   99    1.4   0     0     967.3    NA       0.0000   -SN      BR    9999  0    
2019/03/31  09:07:00  BASE  9.63144  26   11.5836  20   1.5   99    1.3   0     0     967.3    NA       0.0000   -SN      BR    9999  0    
2019/03/31  09:08:00  BASE  9.91368  26   11.5836  20   1.5   99    1.3   0     0     967.3    NA       0.0000   -SN      BR    9999  1380 
2019/03/31  09:09:00  BASE  9.60204  27   11.5836  20   1.5   98    1.3   0     0     967.3    NA       0.0000   -SN      BR    9999  3900 
2019/03/31  09:10:00  BASE  9.30216  26   11.5836  20   1.5   98    1.2   0     0     967.3    NA       0.0000   -SN      9999  1840  0    
2019/03/31  09:11:00  BASE  9.41388  26   11.5836  20   1.5   98    1.2   0     0     967.3    NA       0.0000   -SN      9999  1870  0    
2019/03/31  09:12:00  BASE  9.57264  27   11.5836  20   1.6   97    1.2   0     0     967.3    NA       0.0000   -SN      9999  1900  0    
2019/03/31  09:13:00  BASE  9.81372  27   11.5836  20   1.6   97    1.1   0     0     967.3    NA       0.0000   -SN      9999  1870  0    
2019/03/31  09:14:00  BASE  9.7608   25   11.1896  23   1.6   96    1.1   0     0     967.3    NA       0.0000   9999     1440  0     0    
2019/03/31  09:15:00  BASE  9.74316  26   11.1896  23   1.6   96    1.1   0     0     967.3    NA       0.0000   9999     3380  0     0    
2019/03/31  09:16:00  BASE  10.3312  26   11.3719  25   1.6   96    1.0   0     0     967.3    NA       0.0000   9999     3410  0     0    
2019/03/31  09:17:00  BASE  10.5252  25   11.3719  25   1.6   96    1.0   0     0     967.3    NA       0.0000   9999     3250  0     0    
2019/03/31  09:18:00  BASE  9.91956  26   11.3719  25   1.6   96    1.0   0     0     967.3    NA       0.0000   9999     3180  0     0    
2019/03/31  09:19:00  BASE  9.21984  27   11.3719  25   1.6   96    1.0   0     0     967.3    NA       0.0000   9999     3540  0     0    
2019/03/31  09:20:00  BASE  8.77296  28   11.3719  25   1.6   95    1.0   0     0     967.3    NA       0.0000   9999     2920  3810  0    
2019/03/31  09:21:00  BASE  9.14928  28   11.3719  25   1.6   95    0.9   0     0     967.3    NA       0.0000   9999     3740  0     0    
2019/03/31  09:22:00  BASE  9.74316  28   11.3719  25   1.6   95    0.9   0     0     967.3    NA       0.0000   9999     3710  0     0    
2019/03/31  09:23:00  BASE  9.78432  29   11.7071  26   1.7   95    0.9   0     0     967.3    NA       0.0000   9999     3770  0     0    
2019/03/31  09:24:00  BASE  9.6726   29   11.7071  26   1.7   94    0.9   0     0     967.3    NA       0.0000   9999     3610  0     0    
2019/03/31  09:25:00  BASE  9.32568  27   11.7071  26   1.7   94    0.8   0     0     967.4    NA       0.0000   9999     5580  0     0    
2019/03/31  09:26:00  BASE  8.86704  32   11.7071  26   1.7   93    0.7   0     0     967.4    NA       0.0000   9999     4300  0     0    
2019/03/31  09:27:00  BASE  8.96112  34   11.7071  26   1.7   93    0.7   0     0     967.3    NA       0.0000   9999     5680  0     0    
2019/03/31  09:28:00  BASE  9.5256   31   12.1598  27   1.7   92    0.6   0     0     967.3    NA       0.0000   9999     5510  0     0    
2019/03/31  09:29:00  BASE  10.19    31   12.1598  27   1.7   92    0.6   0     0     967.3    NA       0.0000   9999     5320  0     0    
2019/03/31  09:30:00  BASE  10.0313  28   12.1598  27   1.7   92    0.6   0     0     967.3    NA       0.0000   9999     5280  0     0    
2019/03/31  09:31:00  BASE  9.88428  27   12.1598  27   1.7   92    0.6   0     0     967.3    NA       0.0000   9999     5380  0     0    
2019/03/31  09:32:00  BASE  9.86664  28   12.1598  27   1.7   92    0.6   0     0     967.3    NA       0.0000   9999     5410  0     0    
2019/03/31  09:33:00  BASE  10.5017  27   12.1598  27   1.7   92    0.5   0     0     967.3    NA       0.0000   9999     5320  0     0    
2019/03/31  09:34:00  BASE  11.3131  26   12.3421  23   1.7   92    0.6   0     0     967.3    NA       0.0000   9999     5350  0     0    
2019/03/31  09:35:00  BASE  11.3602  25   12.5244  27   1.7   92    0.6   0     0     967.3    NA       0.0000   9999     3840  0     0    
2019/03/31  09:36:00  BASE  11.513   25   12.5244  27   1.8   92    0.6   0     0     967.3    NA       0.0000   9999     3280  0     0    
2019/03/31  09:37:00  BASE  11.2778  24   12.5244  27   1.8   92    0.6   0     0     967.3    NA       0.0000   9999     3220  3840  0    
2019/03/31  09:38:00  BASE  10.8839  24   12.5244  27   1.8   91    0.5   0     0     967.3    NA       0.0000   9999     3150  0     0    
2019/03/31  09:39:00  BASE  10.9427  27   12.5244  27   1.8   91    0.5   0     0     967.4    NA       0.0000   9999     3120  0     0    
2019/03/31  09:40:00  BASE  11.2367  27   12.5538  25   1.8   91    0.5   0     0     967.3    NA       0.0000   9999     3050  0     0    
2019/03/31  09:41:00  BASE  11.2073  27   12.5538  25   1.8   91    0.5   0     0     967.4    NA       0.0000   9999     3150  0     0    
2019/03/31  09:42:00  BASE  11.2955  27   12.5538  25   1.8   91    0.5   0     0     967.4    NA       0.0000   9999     3220  0     0    
2019/03/31  09:43:00  BASE  11.6012  26   12.5538  25   1.8   91    0.5   0     0     967.3    NA       0.0000   9999     3150  0     0    
2019/03/31  09:44:00  BASE  11.3131  26   12.5538  25   1.8   91    0.5   0     0     967.4    NA       0.0000   9999     3180  4100  0    
2019/03/31  09:45:00  BASE  10.5193  26   12.5538  25   1.8   91    0.5   0     0     967.4    NA       0.0000   9999     3280  0     0    
2019/03/31  09:46:00  BASE  10.8192  28   12.5538  25   1.8   91    0.5   0     0     967.4    NA       0.0000   9999     3220  0     0    
2019/03/31  09:47:00  BASE  11.1308  29   12.5538  25   1.8   91    0.5   0     0     967.4    NA       0.0000   9999     3250  0     0    
2019/03/31  09:48:00  BASE  10.5722  28   12.5538  25   1.8   91    0.5   0     0     967.4    NA       0.0000   9999     3150  0     0    
2019/03/31  09:49:00  BASE  10.4017  28   12.5538  25   1.8   91    0.5   0     0     967.5    NA       0.0000   9999     3150  0     0    
2019/03/31  09:50:00  BASE  10.1254  30   12.3715  23   1.8   91    0.5   0     0     967.5    NA       0.0000   9999     3050  0     0    
2019/03/31  09:51:00  BASE  9.69024  28   12.3715  23   1.8   91    0.4   0     0     967.5    NA       0.0000   9999     3020  0     0    
2019/03/31  09:52:00  BASE  9.70788  26   12.3715  23   1.7   91    0.5   0     0     967.5    NA       0.0000   9999     3180  0     0    
2019/03/31  09:53:00  BASE  9.74904  26   12.3715  23   1.7   91    0.5   0     0     967.5    NA       0.0000   9999     3350  3810  0    
2019/03/31  09:54:00  BASE  9.54912  25   12.3715  23   1.8   91    0.5   0     0     967.5    NA       0.0000   9999     3670  0     0    
2019/03/31  09:55:00  BASE  9.7314   25   12.3715  23   1.8   92    0.6   0     0     967.5    NA       0.0000   9999     3380  0     0    
2019/03/31  09:56:00  BASE  10.2253  26   11.86    25   1.8   92    0.6   0     0     967.5    NA       0.0000   9999     3350  4230  0    
2019/03/31  09:57:00  BASE  10.7075  24   12.101   25   1.8   91    0.6   0     0     967.5    NA       0.0000   9999     3310  4270  0    
2019/03/31  09:58:00  BASE  10.8545  25   12.101   25   1.8   91    0.6   0     0     967.5    NA       0.0000   9999     3350  6370  0    
2019/03/31  09:59:00  BASE  10.2488  27   12.101   25   1.8   91    0.5   0     0     967.6    NA       0.0000   9999     5940  0     0    
2019/03/31  10:00:00  BASE  9.50208  26   12.101   25   1.8   91    0.5   0     0     967.6    NA       0.0000   9999     5810  0     0    
2019/03/31  10:01:00  BASE  9.702    28   12.101   25   1.7   91    0.4   0     0     967.6    NA       0.0000   9999     5020  0     0    
2019/03/31  10:02:00  BASE  9.42564  31   12.101   25   1.7   91    0.4   0     0     967.6    NA       0.0000   9999     3710  5680  0    
2019/03/31  10:03:00  BASE  9.56676  29   12.101   25   1.7   91    0.3   0     0     967.6    NA       0.0000   9999     5610  0     0    
2019/03/31  10:04:00  BASE  10.1489  28   12.101   25   1.6   91    0.3   0     0     967.5    NA       0.0000   9999     5610  0     0    
2019/03/31  10:05:00  BASE  10.1959  27   12.101   25   1.6   91    0.4   0     0     967.5    NA       0.0000   9999     4790  0     0    
2019/03/31  10:06:00  BASE  10.6604  27   12.101   25   1.6   92    0.4   0     0     967.5    NA       0.0000   9999     5120  0     0    
2019/03/31  10:07:00  BASE  10.9603  27   12.2833  23   1.6   92    0.4   0     0     967.5    NA       0.0000   9999     5640  0     0    
2019/03/31  10:08:00  BASE  11.0779  26   12.2833  23   1.6   92    0.5   0     0     967.5    NA       0.0000   9999     5380  0     0    
2019/03/31  10:09:00  BASE  11.1779  26   12.7655  16   1.7   92    0.5   0     0     967.5    NA       0.0000   9999     5280  0     0    
2019/03/31  10:10:00  BASE  11.2426  25   12.7655  16   1.7   92    0.5   0     0     967.5    NA       0.0000   9999     5280  0     0    
2019/03/31  10:11:00  BASE  11.5307  25   12.7655  16   1.7   92    0.6   0     0     967.5    NA       0.0000   9999     5320  0     0    
2019/03/31  10:12:00  BASE  12.0011  27   13.2182  22   1.7   92    0.6   0     0     967.5    NA       0.0000   9999     3870  5410  0    
2019/03/31  10:13:00  BASE  12.0834  24   13.2182  22   1.8   92    0.6   0     0     967.5    NA       0.0000   9999     5480  0     0    
2019/03/31  10:14:00  BASE  11.6659  22   13.2182  22   1.8   92    0.5   0     0     967.6    NA       0.0000   9999     4950  0     0    
2019/03/31  10:15:00  BASE  10.7016  21   13.2182  22   1.7   91    0.5   0     0     967.6    NA       0.0000   9999     4400  0     0    
2019/03/31  10:16:00  BASE  9.29628  18   13.2182  22   1.7   91    0.4   0     0     967.7    NA       0.0000   9999     4630  5380  0    
2019/03/31  10:17:00  BASE  10.3547  20   13.6122  27   1.7   91    0.4   0     0     967.6    NA       0.0000   9999     4070  0     0    
2019/03/31  10:18:00  BASE  12.5244  22   13.6122  27   1.6   92    0.4   0     0     967.6    NA       0.0000   9999     4430  0     0    
2019/03/31  10:19:00  BASE  12.3598  21   13.6122  27   1.6   92    0.5   0     0     967.6    NA       0.0000   9999     4430  5250  0    
2019/03/31  10:20:00  BASE  11.5072  20   13.6122  27   1.6   93    0.6   0     0     967.7    NA       0.0000   9999     4530  0     0    
2019/03/31  10:21:00  BASE  10.978   18   13.6122  27   1.6   93    0.6   0     0     967.7    NA       0.0000   9999     4400  0     0    
2019/03/31  10:22:00  BASE  10.878   18   13.6122  27   1.6   93    0.6   0     0     967.7    NA       0.0000   9999     4560  5280  0    
2019/03/31  10:23:00  BASE  10.925   17   13.6122  27   1.6   93    0.6   0     0     967.7    NA       0.0000   9999     4890  0     0    
2019/03/31  10:24:00  BASE  10.9897  18   13.6122  27   1.5   93    0.6   0     0     967.7    NA       0.0000   9999     4950  0     0    
2019/03/31  10:25:00  BASE  11.0838  21   13.6122  27   1.5   94    0.6   0     0     967.8    NA       0.0000   9999     5120  0     0    
2019/03/31  10:26:00  BASE  11.2543  23   13.6122  27   1.5   94    0.6   0     0     967.7    NA       0.0000   9999     5180  0     0    
2019/03/31  10:27:00  BASE  11.3308  23   13.5828  20   1.5   94    0.7   0     0     967.8    NA       0.0000   9999     4690  0     0    
2019/03/31  10:28:00  BASE  11.0779  23   12.5538  22   1.5   94    0.7   0     0     967.8    NA       0.0000   9999     3970  5050  0    
2019/03/31  10:29:00  BASE  11.0603  24   12.5538  22   1.5   94    0.7   1     0     967.8    NA       0.0000   9999     3350  0     0    
2019/03/31  10:30:00  BASE  11.1426  23   12.5538  22   1.5   94    0.7   1     0     967.8    NA       0.0000   9999     3250  4920  0    
2019/03/31  10:31:00  BASE  11.2426  23   12.642   24   1.6   94    0.7   1     0     967.8    NA       0.0000   9999     3540  4890  5770 
2019/03/31  10:32:00  BASE  11.5072  22   12.642   24   1.6   94    0.7   1     0     967.7    NA       0.0000   9999     4430  5640  0    
2019/03/31  10:33:00  BASE  11.7365  22   12.7361  28   1.6   94    0.7   1     0     967.8    NA       0.0000   9999     4820  0     0    
2019/03/31  10:34:00  BASE  11.6424  24   12.7655  26   1.6   94    0.7   1     0     967.7    NA       0.0000   9999     4890  0     0    
2019/03/31  10:35:00  BASE  11.5718  24   12.7655  26   1.6   94    0.7   1     0     967.8    NA       0.0000   9999     5120  0     0    
2019/03/31  10:36:00  BASE  12.0128  24   13.4299  22   1.6   94    0.8   2     0     967.7    NA       0.0000   9999     5220  6430  0    
2019/03/31  10:37:00  BASE  12.3656  23   13.4299  22   1.6   94    0.8   2     0     967.7    NA       0.0000   9999     5320  6400  0    
2019/03/31  10:38:00  BASE  12.3362  22   13.4299  20   1.6   95    0.8   2     0     967.7    NA       0.0000   9999     5150  6430  0    
2019/03/31  10:39:00  BASE  12.3304  23   13.4299  20   1.6   95    0.9   3     0     967.7    NA       0.0000   9999     5050  0     0    
2019/03/31  10:40:00  BASE  11.9952  22   13.4299  20   1.6   95    0.9   3     0     967.8    NA       0.0000   9999     4920  0     0    
2019/03/31  10:41:00  BASE  11.3954  21   13.4299  20   1.6   96    1.0   3     0     967.8    NA       0.0000   9999     5020  6270  0    
2019/03/31  10:42:00  BASE  12.0246  21   13.4299  20   1.6   96    1.0   3     0     967.7    NA       0.0000   9999     6200  0     0    
2019/03/31  10:43:00  BASE  12.4832  20   13.4299  20   1.6   96    1.1   3     0     967.7    NA       0.0000   9999     6100  0     0    
2019/03/31  10:44:00  BASE  12.101   20   13.4299  20   1.6   97    1.1   3     0     967.8    NA       0.0000   9999     6140  0     0    
2019/03/31  10:45:00  BASE  12.2186  21   13.4299  20   1.6   97    1.2   4     0     967.8    NA       0.0000   9999     5810  0     0    
2019/03/31  10:46:00  BASE  12.4656  21   13.4299  20   1.6   97    1.2   4     0     967.8    NA       0.0000   9999     6370  8920  0    
2019/03/31  10:47:00  BASE  12.7831  22   13.8827  24   1.6   98    1.3   4     0     967.7    NA       0.0000   9999     6530  8860  0    
2019/03/31  10:48:00  BASE  12.7772  22   13.8827  24   1.6   98    1.3   4     0     967.8    NA       0.0000   9999     8760  0     0    
2019/03/31  10:49:00  BASE  12.2951  23   13.8827  24   1.6   98    1.3   4     0     967.9    NA       0.0000   9999     8600  0     0    
2019/03/31  10:50:00  BASE  12.0952  25   13.8827  24   1.6   98    1.3   4     0     967.8    NA       0.0000   9999     8330  8890  0    
2019/03/31  10:51:00  BASE  12.0011  26   13.8827  24   1.6   98    1.3   4     0     967.9    NA       0.0000   9999     3450  8630  0    
2019/03/31  10:52:00  BASE  11.5542  24   13.8827  24   1.6   98    1.3   4     0     967.9    NA       0.0000   9999     3280  0     0    
2019/03/31  10:53:00  BASE  11.3014  24   13.8827  24   1.6   98    1.3   5     0     967.9    NA       0.0000   9999     3250  0     0    
2019/03/31  10:54:00  BASE  11.7953  25   13.8827  24   1.6   98    1.4   5     0     967.9    NA       0.0000   9999     3220  0     0    
2019/03/31  10:55:00  BASE  12.2128  24   13.8827  24   1.7   98    1.4   5     0     967.9    NA       0.0000   9999     3220  0     0    
2019/03/31  10:56:00  BASE  11.7071  24   13.8827  24   1.7   98    1.4   6     0     968.0    NA       0.0000   9999     3180  0     0    
2019/03/31  10:57:00  BASE  10.3841  24   13.5828  24   1.7   98    1.4   6     0     968.1    NA       0.0000   9999     3310  0     0    
2019/03/31  10:58:00  BASE  9.49032  25   13.5828  24   1.7   97    1.3   7     0     968.1    NA       0.0000   9999     3410  5020  5610 
2019/03/31  10:59:00  BASE  9.49032  26   13.5828  24   1.7   97    1.3   8     0     968.1    NA       0.0000   9999     3350  0     0    
2019/03/31  11:00:00  BASE  9.27864  24   13.4299  28   1.7   96    1.2   8     0     968.1    NA       0.0000   9999     3350  0     0    
2019/03/31  11:01:00  BASE  9.2904   25   13.4299  28   1.7   96    1.2   9     0     968.1    NA       0.0000   9999     3280  0     0    
2019/03/31  11:02:00  BASE  9.8196   25   13.4299  28   1.7   96    1.1   9     0     968.1    NA       0.0000   9999     3310  5350  0    
2019/03/31  11:03:00  BASE  10.5017  24   13.4299  28   1.7   95    1.1   10    0     968.1    NA       0.0000   9999     3020  0     0    
2019/03/31  11:04:00  BASE  11.1426  23   13.4299  28   1.7   95    1.0   10    0     968.1    NA       0.0000   9999     3080  5450  0    
2019/03/31  11:05:00  BASE  11.513   23   13.1006  21   1.8   95    1.0   10    0     968.1    NA       0.0000   9999     3150  0     0    
2019/03/31  11:06:00  BASE  11.2249  24   13.1006  21   1.8   95    1.0   11    0     968.2    NA       0.0000   9999     5450  0     0    
2019/03/31  11:07:00  BASE  11.0426  24   13.1006  21   1.8   95    1.0   12    0     968.1    NA       0.0000   9999     3150  5320  0    
2019/03/31  11:08:00  BASE  11.3484  25   13.1006  21   1.9   94    1.0   12    0     968.1    NA       0.0000   9999     4890  0     0    
2019/03/31  11:09:00  BASE  11.1426  25   13.1006  21   1.9   94    1.0   13    0     968.2    NA       0.0000   9999     4950  0     0    
2019/03/31  11:10:00  BASE  10.7957  24   13.1006  21   1.9   94    1.0   14    0     968.2    NA       0.0000   9999     5540  0     0    
2019/03/31  11:11:00  BASE  10.4899  25   13.1006  21   1.9   94    1.0   14    0     968.2    NA       0.0000   9999     4890  0     0    
2019/03/31  11:12:00  BASE  10.0724  26   13.1006  21   1.9   93    0.9   15    0     968.3    NA       0.0000   9999     4590  6500  0    
2019/03/31  11:13:00  BASE  9.89604  25   13.1006  21   1.9   93    0.8   15    0     968.3    NA       0.0000   9999     3050  3510  6920 
2019/03/31  11:14:00  BASE  10.043   24   13.1006  21   1.9   93    0.8   15    0     968.3    NA       0.0000   9999     2990  5810  0    
2019/03/31  11:15:00  BASE  9.5844   25   12.4009  23   1.8   93    0.8   15    0     968.3    NA       0.0000   9999     3050  3900  5710 
2019/03/31  11:16:00  BASE  9.39624  24   12.4009  23   1.8   93    0.7   16    0     968.3    NA       0.0000   9999     3670  0     0    
2019/03/31  11:17:00  BASE  9.91368  25   12.4009  23   1.8   93    0.7   16    0     968.2    NA       0.0000   9999     3350  5840  0    
2019/03/31  11:18:00  BASE  9.51972  25   11.6777  28   1.7   93    0.7   16    0     968.3    NA       0.0000   9999     3310  6430  0    
2019/03/31  11:19:00  BASE  9.69612  25   11.6777  28   1.7   93    0.7   16    0     968.2    NA       0.0000   9999     2950  8630  0    
2019/03/31  11:20:00  BASE  10.5193  25   11.613   23   1.7   93    0.7   16    0     968.3    NA       0.0000   9999     2720  3670  0    
2019/03/31  11:21:00  BASE  10.6252  26   11.613   23   1.7   93    0.7   15    0     968.2    NA       0.0000   9999     2690  6040  0    
2019/03/31  11:22:00  BASE  10.5428  26   11.8247  25   1.7   93    0.7   15    0     968.3    NA       0.0000   9999     3410  6270  0    
2019/03/31  11:23:00  BASE  10.6134  25   11.8247  25   1.7   93    0.7   15    0     968.3    NA       0.0000   9999     3280  5970  0    
2019/03/31  11:24:00  BASE  10.484   26   11.8247  25   1.7   93    0.8   17    0     968.3    NA       0.0000   9999     3150  6000  0    
2019/03/31  11:25:00  BASE  10.3782  26   11.8247  25   1.7   93    0.8   16    0     968.3    NA       0.0000   9999     3250  0     0    
2019/03/31  11:26:00  BASE  10.1606  27   11.8247  25   1.8   93    0.7   19    0     968.3    NA       0.0000   9999     3940  0     0    
2019/03/31  11:27:00  BASE  9.50208  28   11.8247  25   1.8   93    0.7   16    0     968.4    NA       0.0000   9999     3670  6000  0    
2019/03/31  11:28:00  BASE  9.56676  28   11.8247  25   1.8   92    0.7   16    0     968.4    NA       0.0000   9999     3220  6170  0    
2019/03/31  11:29:00  BASE  9.44328  27   11.8247  25   1.8   92    0.7   17    0     968.4    NA       0.0000   9999     2530  3900  0    
2019/03/31  11:30:00  BASE  9.35508  27   11.8247  25   1.8   92    0.6   18    0     968.4    NA       0.0000   9999     2030  4070  0    
2019/03/31  11:31:00  BASE  9.4962   27   11.8247  25   1.8   92    0.6   19    0     968.4    NA       0.0000   9999     1770  0     0    
2019/03/31  11:32:00  BASE  9.36096  31   11.7071  29   1.8   92    0.6   22    0     968.5    NA       0.0000   9999     2530  4040  0    
2019/03/31  11:33:00  BASE  9.22572  31   11.7071  29   1.8   92    0.6   26    0     968.5    NA       0.0000   9999     2620  0     0    
2019/03/31  11:34:00  BASE  8.63772  29   11.7071  29   1.8   92    0.6   26    0     968.5    NA       0.0000   9999     2890  3940  0    
2019/03/31  11:35:00  BASE  8.3202   29   10.9486  20   1.8   91    0.5   25    0     968.5    NA       0.0000   9999     2890  0     0    
2019/03/31  11:36:00  BASE  7.89684  28   10.8604  25   1.8   91    0.5   23    0     968.6    NA       0.0000   9999     3180  0     0    
2019/03/31  11:37:00  BASE  7.53816  30   10.8604  25   1.7   91    0.5   21    0     968.5    NA       0.0000   9999     3900  0     0    
2019/03/31  11:38:00  BASE  7.9674   32   10.8604  25   1.7   92    0.5   18    0     968.5    NA       0.0000   9999     3900  0     0    
2019/03/31  11:39:00  BASE  7.938    32   10.8604  25   1.7   92    0.5   16    0     968.5    NA       0.0000   9999     4230  0     0    
2019/03/31  11:40:00  BASE  7.64988  30   10.8604  25   1.7   92    0.5   15    0     968.6    NA       0.0000   9999     3970  0     0    
2019/03/31  11:41:00  BASE  7.88508  31   10.6193  39   1.7   92    0.5   14    0     968.6    NA       0.0000   9999     4000  0     0    
2019/03/31  11:42:00  BASE  8.33196  31   10.3782  24   1.6   92    0.5   14    0     968.6    NA       0.0000   9999     3410  4040  0    
2019/03/31  11:43:00  BASE  8.7318   28   10.3782  24   1.6   92    0.5   14    0     968.6    NA       0.0000   9999     3250  0     0    
2019/03/31  11:44:00  BASE  8.91996  29   10.3782  24   1.6   92    0.5   14    0     968.6    NA       0.0000   9999     3250  0     0    
2019/03/31  11:45:00  BASE  8.70828  27   10.3782  24   1.7   92    0.5   14    0     968.6    NA       0.0000   9999     2920  3810  0    
2019/03/31  11:46:00  BASE  8.75532  26   10.978   13   1.7   92    0.5   14    0     968.6    NA       0.0000   9999     3050  0     0    
2019/03/31  11:47:00  BASE  9.61968  27   11.4013  15   1.7   91    0.4   15    0     968.5    NA       0.0000   9999     3310  4360  0    
2019/03/31  11:48:00  BASE  9.97248  29   11.4013  15   1.7   91    0.4   15    0     968.6    NA       0.0000   9999     3510  0     0    
2019/03/31  11:49:00  BASE  9.8784   31   11.4013  15   1.7   91    0.4   15    0     968.6    NA       0.0000   9999     3510  4170  0    
2019/03/31  11:50:00  BASE  9.99012  30   12.3127  22   1.7   91    0.4   15    0     968.5    NA       0.0000   9999     4430  0     0    
2019/03/31  11:51:00  BASE  9.80196  28   12.3127  22   1.7   91    0.4   14    0     968.6    NA       0.0000   9999     4230  0     0    
2019/03/31  11:52:00  BASE  9.62556  27   12.3127  22   1.7   90    0.3   14    0     968.6    NA       0.0000   9999     4070  0     0    
2019/03/31  11:53:00  BASE  9.11988  29   12.3127  22   1.7   90    0.3   14    0     968.7    NA       0.0000   9999     3810  0     0    
2019/03/31  11:54:00  BASE  8.526    29   12.3127  22   1.7   90    0.2   14    0     968.7    NA       0.0000   9999     4300  0     0    
2019/03/31  11:55:00  BASE  8.7318   27   12.3127  22   1.7   90    0.2   14    0     968.6    NA       0.0000   9999     4070  0     0    
2019/03/31  11:56:00  BASE  9.2316   26   12.3127  22   1.7   90    0.2   15    0     968.6    NA       0.0000   9999     4040  0     0    
2019/03/31  11:57:00  BASE  9.97248  26   12.642   34   1.7   90    0.2   15    0     968.6    NA       0.0000   9999     3310  0     0    
2019/03/31  11:58:00  BASE  9.81372  28   12.642   34   1.7   90    0.2   16    0     968.6    NA       0.0000   9999     3310  0     0    
2019/03/31  11:59:00  BASE  9.44328  28   12.642   34   1.7   90    0.2   17    0     968.6    NA       0.0000   9999     3310  0     0    
2019/03/31  12:00:00  BASE  10.0901  26   12.642   35   1.7   90    0.2   19    0     968.6    NA       0.0000   9999     3410  0     0    
2019/03/31  12:01:00  BASE  10.7545  27   12.642   35   1.7   90    0.2   20    0     968.6    NA       0.0000   9999     3410  0     0    
2019/03/31  12:02:00  BASE  10.6134  26   12.642   35   1.7   90    0.2   22    0     968.6    NA       0.0000   9999     4040  0     0    
2019/03/31  12:03:00  BASE  10.3429  27   12.642   35   1.7   90    0.2   23    0     968.6    NA       0.0000   9999     4100  0     0    
2019/03/31  12:04:00  BASE  10.1606  28   12.642   35   1.7   90    0.2   25    0     968.7    NA       0.0000   9999     3970  0     0    
2019/03/31  12:05:00  BASE  10.3076  28   12.642   35   1.7   90    0.2   26    0     968.7    NA       0.0000   9999     3770  0     0    
2019/03/31  12:06:00  BASE  10.6546  29   12.642   35   1.6   90    0.2   27    0     968.6    NA       0.0000   9999     3180  0     0    
2019/03/31  12:07:00  BASE  10.1606  26   12.642   35   1.6   90    0.2   28    0     968.7    NA       0.0000   9999     3510  0     0    
2019/03/31  12:08:00  BASE  9.49032  27   12.642   35   1.6   90    0.1   28    0     968.7    NA       0.0000   9999     4170  0     0    
2019/03/31  12:09:00  BASE  9.87252  29   12.642   35   1.6   90    0.2   27    0     968.7    NA       0.0000   9999     5220  0     0    
2019/03/31  12:10:00  BASE  10.6546  28   12.3421  31   1.6   90    0.2   26    0     968.7    NA       0.0000   9999     4070  0     0    
2019/03/31  12:11:00  BASE  10.6075  26   12.2833  30   1.6   91    0.2   25    0     968.7    NA       0.0000   9999     3670  0     0    
2019/03/31  12:12:00  BASE  10.3429  26   12.2833  30   1.5   91    0.2   25    0     968.7    NA       0.0000   9999     3610  0     0    
2019/03/31  12:13:00  BASE  10.4958  25   12.2833  30   1.5   91    0.2   25    0     968.7    NA       0.0000   9999     4070  0     0    
2019/03/31  12:14:00  BASE  10.6898  24   12.2833  30   1.5   91    0.2   26    0     968.7    NA       0.0000   9999     4000  0     0    
2019/03/31  12:15:00  BASE  10.6663  25   12.2186  22   1.5   91    0.2   26    0     968.7    NA       0.0000   9999     3580  0     0    
2019/03/31  12:16:00  BASE  11.0191  25   12.2186  22   1.5   91    0.2   27    0     968.7    NA       0.0000   9999     3710  0     0    
2019/03/31  12:17:00  BASE  11.3543  24   12.9184  25   1.5   91    0.3   29    0     968.7    NA       0.0000   9999     3710  0     0    
2019/03/31  12:18:00  BASE  11.4778  24   13.2182  21   1.5   91    0.3   30    0     968.7    NA       0.0000   9999     3510  0     0    
2019/03/31  12:19:00  BASE  11.1955  24   13.2182  21   1.5   91    0.3   31    0     968.7    NA       0.0000   9999     3540  0     0    
2019/03/31  12:20:00  BASE  10.437   25   13.2182  21   1.5   91    0.3   33    0     968.8    NA       0.0000   9999     3640  0     0    
2019/03/31  12:21:00  BASE  10.0724  27   13.2182  21   1.5   91    0.2   35    0     968.8    NA       0.0000   9999     3870  0     0    
2019/03/31  12:22:00  BASE  10.6134  27   13.2182  21   1.5   91    0.2   37    0     968.7    NA       0.0000   9999     3970  0     0    
2019/03/31  12:23:00  BASE  11.0897  27   13.2182  21   1.5   91    0.2   39    0     968.8    NA       0.0000   9999     4130  0     0    
2019/03/31  12:24:00  BASE  10.8956  27   13.2182  21   1.5   91    0.1   41    0     968.8    NA       0.0000   9999     4130  0     0    
2019/03/31  12:25:00  BASE  11.0897  28   13.2182  21   1.5   90    0.1   43    0     968.8    NA       0.0000   9999     4130  0     0    
2019/03/31  12:26:00  BASE  11.0838  28   13.2182  21   1.5   90    0.1   44    0     968.9    NA       0.0000   9999     4170  5450  0    
2019/03/31  12:27:00  BASE  10.6604  27   13.2182  21   1.6   90    0.1   44    0     968.9    NA       0.0000   9999     4170  0     0    
2019/03/31  12:28:00  BASE  10.3723  26   12.7655  27   1.5   90    0.0   45    0     968.9    NA       0.0000   9999     5380  0     0    
2019/03/31  12:29:00  BASE  10.0136  25   12.7655  27   1.5   89    -0.0  44    0     968.9    NA       0.0000   9999     3870  5380  0    
2019/03/31  12:30:00  BASE  10.1842  27   12.7655  27   1.5   89    -0.0  44    0     968.9    NA       0.0000   9999     3710  0     0    
2019/03/31  12:31:00  BASE  10.29    28   12.7655  27   1.5   89    -0.0  44    0     968.9    NA       0.0000   9999     3640  0     0    
2019/03/31  12:32:00  BASE  10.3312  26   13.0066  26   1.5   89    -0.0  41    0     968.9    NA       0.0000   9999     3670  0     0    
2019/03/31  12:33:00  BASE  10.4252  28   13.0066  26   1.5   89    -0.0  39    0     969.0    NA       0.0000   9999     4040  4920  5410 
2019/03/31  12:34:00  BASE  10.3018  29   13.0066  26   1.5   89    -0.0  37    0     969.0    NA       0.0000   9999     4790  0     0    
2019/03/31  12:35:00  BASE  10.5134  32   13.0066  26   1.5   89    -0.1  37    0     969.0    NA       0.0000   9999     4270  5350  0    
2019/03/31  12:36:00  BASE  10.1312  31   13.0066  26   1.5   89    -0.1  37    0     969.0    NA       0.0000   9999     4130  0     0    
2019/03/31  12:37:00  BASE  9.8196   29   13.0066  26   1.5   89    -0.1  37    0     969.0    NA       0.0000   9999     4330  5410  6100 
2019/03/31  12:38:00  BASE  9.57264  28   13.0066  26   1.6   89    -0.1  38    0     969.1    NA       0.0000   9999     4430  5450  6070 
2019/03/31  12:39:00  BASE  8.7906   29   13.0066  26   1.6   89    -0.1  39    0     969.1    NA       0.0000   9999     4660  0     0    
2019/03/31  12:40:00  BASE  8.85528  32   13.0066  26   1.6   89    -0.0  40    0     969.1    NA       0.0000   9999     5510  0     0    
2019/03/31  12:41:00  BASE  9.57852  31   13.0066  26   1.6   89    -0.0  40    0     969.0    NA       0.0000   9999     5510  6040  0    
2019/03/31  12:42:00  BASE  9.85488  30   12.1598  33   1.6   89    -0.0  41    0     969.0    NA       0.0000   9999     5970  0     0    
2019/03/31  12:43:00  BASE  9.13752  28   11.6777  33   1.7   88    -0.0  43    0     969.0    NA       0.0000   9999     5710  0     0    
2019/03/31  12:44:00  BASE  9.56088  28   11.86    26   1.7   88    -0.0  44    0     969.0    NA       0.0000   9999     5540  0     0    
2019/03/31  12:45:00  BASE  10.8192  27   11.86    26   1.7   88    0.0   45    0     969.0    NA       0.0000   9999     5610  0     0    
2019/03/31  12:46:00  BASE  10.9838  28   11.86    26   1.8   88    -0.0  46    0     969.0    NA       0.0000   9999     5810  0     0    
2019/03/31  12:47:00  BASE  10.731   28   11.86    26   1.8   88    -0.0  48    0     969.0    NA       0.0000   9999     6100  0     0    
2019/03/31  12:48:00  BASE  10.7075  28   11.86    26   1.8   88    -0.0  49    0     969.0    NA       0.0000   9999     6140  0     0    
2019/03/31  12:49:00  BASE  10.8427  28   12.0364  26   1.8   87    -0.0  49    0     969.0    NA       0.0000   9999     6140  0     0    
2019/03/31  12:50:00  BASE  10.6487  28   12.0364  26   1.9   87    -0.0  50    0     969.0    NA       0.0000   9999     3740  0     0    
2019/03/31  12:51:00  BASE  10.4899  29   12.0364  26   1.9   87    -0.1  51    0     969.0    NA       0.0000   9999     3810  0     0    
2019/03/31  12:52:00  BASE  10.29    28   12.0364  26   1.9   87    -0.1  53    0     969.1    NA       0.0000   9999     5870  0     0    
2019/03/31  12:53:00  BASE  10.4017  26   12.0364  26   1.9   87    -0.1  55    0     969.1    NA       0.0000   9999     4000  6300  0    
2019/03/31  12:54:00  BASE  10.3841  26   12.0364  26   1.9   87    -0.1  57    0     969.1    NA       0.0000   9999     4230  0     0    
2019/03/31  12:55:00  BASE  9.94896  27   12.0364  26   1.9   87    -0.1  59    0     969.2    NA       0.0000   9999     4400  0     0    
2019/03/31  12:56:00  BASE  9.83136  25   12.0364  26   1.9   87    -0.1  61    0     969.2    NA       0.0000   9999     4300  0     0    
2019/03/31  12:57:00  BASE  9.849    26   12.0364  26   1.8   87    -0.1  63    0     969.2    NA       0.0000   9999     4490  0     0    
2019/03/31  12:58:00  BASE  9.8196   27   12.0364  26   1.9   87    -0.1  64    0     969.2    NA       0.0000   9999     4590  0     0    
2019/03/31  12:59:00  BASE  9.35508  27   11.9776  38   1.8   87    -0.1  66    0     969.3    NA       0.0000   9999     4590  0     0    
2019/03/31  13:00:00  BASE  9.114    28   11.9776  38   1.8   87    -0.1  68    0     969.3    NA       0.0000   9999     5280  0     0    
2019/03/31  13:01:00  BASE  9.555    27   11.466   25   1.8   87    -0.1  69    0     969.2    NA       0.0000   9999     5220  0     0    
2019/03/31  13:02:00  BASE  9.30216  29   11.466   25   1.8   87    -0.1  70    0     969.3    NA       0.0000   9999     5220  0     0    
2019/03/31  13:03:00  BASE  8.66124  30   11.3719  26   1.8   87    -0.1  71    0     969.3    NA       0.0000   9999     4560  0     0    
2019/03/31  13:04:00  BASE  8.4672   28   11.3719  26   1.8   87    -0.1  72    0     969.3    NA       0.0000   9999     4040  0     0    
2019/03/31  13:05:00  BASE  8.63772  27   11.3719  26   1.8   87    -0.1  71    0     969.3    NA       0.0000   9999     3900  4690  5450 
2019/03/31  13:06:00  BASE  9.57264  27   11.4366  26   1.7   87    -0.2  71    0     969.3    NA       0.0000   9999     5320  0     0    
2019/03/31  13:07:00  BASE  10.5722  25   12.101   25   1.7   87    -0.2  71    0     969.3    NA       0.0000   9999     3870  5220  0    
2019/03/31  13:08:00  BASE  10.7604  24   12.101   25   1.7   88    -0.1  72    0     969.3    NA       0.0000   9999     3870  4920  0    
2019/03/31  13:09:00  BASE  10.3958  25   12.101   25   1.7   88    -0.1  72    0     969.3    NA       0.0000   9999     3840  4820  0    
2019/03/31  13:10:00  BASE  10.1254  24   12.101   25   1.7   88    -0.1  73    0     969.4    NA       0.0000   9999     4820  0     0    
2019/03/31  13:11:00  BASE  9.996    25   12.101   25   1.7   88    -0.1  73    0     969.4    NA       0.0000   9999     4990  0     0    
2019/03/31  13:12:00  BASE  10.0019  25   12.101   25   1.7   88    -0.1  73    0     969.4    NA       0.0000   9999     5090  0     0    
2019/03/31  13:13:00  BASE  10.243   23   12.101   25   1.6   88    -0.1  73    0     969.3    NA       0.0000   9999     4990  0     0    
2019/03/31  13:14:00  BASE  10.0254  24   12.101   25   1.6   88    -0.1  72    0     969.4    NA       0.0000   9999     5280  0     0    
2019/03/31  13:15:00  BASE  9.28452  25   12.101   25   1.6   88    -0.1  72    0     969.4    NA       0.0000   9999     5220  0     0    
2019/03/31  13:16:00  BASE  9.13164  26   12.101   25   1.5   89    -0.1  72    0     969.4    NA       0.0000   9999     5050  0     0    
2019/03/31  13:17:00  BASE  9.5844   27   12.101   23   1.5   89    -0.1  72    0     969.4    NA       0.0000   9999     5120  0     0    
2019/03/31  13:18:00  BASE  9.93132  26   12.101   23   1.5   89    -0.1  72    0     969.4    NA       0.0000   9999     4430  5180  0    
2019/03/31  13:19:00  BASE  10.437   23   12.101   23   1.5   89    -0.1  71    0     969.3    NA       0.0000   9999     5180  0     0    
2019/03/31  13:20:00  BASE  10.7369  25   12.2833  27   1.5   89    -0.1  71    0     969.4    NA       0.0000   9999     5180  0     0    
2019/03/31  13:21:00  BASE  10.9956  26   12.2833  27   1.5   89    -0.1  70    0     969.4    NA       0.0000   9999     5180  0     0    
2019/03/31  13:22:00  BASE  11.7071  23   12.889   26   1.5   89    -0.1  69    0     969.4    NA       0.0000   9999     5180  0     0    
2019/03/31  13:23:00  BASE  11.7541  23   12.889   26   1.5   89    -0.1  68    0     969.3    NA       0.0000   9999     5220  0     0    
2019/03/31  13:24:00  BASE  12.154   23   14.0356  20   1.5   89    -0.1  66    0     969.3    NA       0.0000   9999     4400  0     0    
2019/03/31  13:25:00  BASE  12.9242  21   14.0356  20   1.5   89    -0.1  65    0     969.3    NA       0.0000   9999     4460  0     0    
2019/03/31  13:26:00  BASE  12.5714  23   14.0356  20   1.5   89    -0.1  64    0     969.4    NA       0.0000   9999     4460  0     0    
2019/03/31  13:27:00  BASE  11.8717  24   14.0356  20   1.5   89    -0.1  63    0     969.4    NA       0.0000   9999     4630  0     0    
2019/03/31  13:28:00  BASE  11.907   23   14.0356  20   1.5   89    -0.1  62    0     969.4    NA       0.0000   9999     4530  0     0    
2019/03/31  13:29:00  BASE  11.7012  23   14.0356  20   1.5   89    -0.2  61    0     969.5    NA       0.0000   9999     4460  0     0    
2019/03/31  13:30:00  BASE  11.6189  23   14.0356  20   1.5   88    -0.2  60    0     969.4    NA       0.0000   9999     4430  0     0    
2019/03/31  13:31:01  BASE  11.7012  24   14.0356  20   1.6   88    -0.2  60    0     969.5    NA       0.0000   9999     4560  0     0    
2019/03/31  13:32:00  BASE  11.6777  23   14.0356  20   1.6   88    -0.2  59    0     969.5    NA       0.0000   9999     4270  20410 0    
2019/03/31  13:33:00  BASE  12.2892  23   14.0356  20   1.6   88    -0.2  59    0     969.5    NA       0.0000   9999     4300  0     0    
2019/03/31  13:34:00  BASE  12.5303  22   13.7651  18   1.7   87    -0.2  59    0     969.5    NA       0.0000   9999     4200  0     0    
2019/03/31  13:35:00  BASE  12.5009  23   13.9121  19   1.7   87    -0.2  59    0     969.5    NA       0.0000   9999     4130  0     0    
2019/03/31  13:36:00  BASE  12.3304  23   13.9121  19   1.7   87    -0.3  59    0     969.5    NA       0.0000   9999     3740  0     0    
2019/03/31  13:37:00  BASE  12.0599  23   13.9121  19   1.7   87    -0.3  60    0     969.5    NA       0.0000   9999     3900  0     0    
2019/03/31  13:38:00  BASE  11.6894  22   13.9121  19   1.7   86    -0.3  62    0     969.6    NA       0.0000   9999     3810  0     0    
2019/03/31  13:39:00  BASE  10.7192  23   13.9121  19   1.7   86    -0.4  64    0     969.7    NA       0.0000   9999     4000  0     0    
2019/03/31  13:40:00  BASE  10.631   24   13.9121  19   1.7   86    -0.4  67    0     969.6    NA       0.0000   9999     4000  0     0    
2019/03/31  13:41:00  BASE  11.3014  23   13.9121  19   1.7   86    -0.4  69    0     969.6    NA       0.0000   9999     4000  0     0    
2019/03/31  13:42:00  BASE  11.466   22   13.9121  19   1.7   86    -0.4  71    0     969.7    NA       0.0000   9999     4130  0     0    
2019/03/31  13:43:00  BASE  11.66    22   13.9121  19   1.7   86    -0.4  73    0     969.7    NA       0.0000   9999     4100  0     0    
2019/03/31  13:44:00  BASE  11.8188  23   13.9121  19   1.7   86    -0.4  75    0     969.7    NA       0.0000   9999     4070  0     0    
2019/03/31  13:45:00  BASE  11.5483  24   13.4887  18   1.7   86    -0.4  77    0     969.8    NA       0.0000   9999     3670  0     0    
2019/03/31  13:46:00  BASE  10.9074  24   13.4887  18   1.7   86    -0.4  79    0     969.8    NA       0.0000   9999     3480  0     0    
2019/03/31  13:47:00  BASE  10.8251  23   13.4887  18   1.7   86    -0.4  82    0     969.8    NA       0.0000   9999     3770  0     0    
2019/03/31  13:48:00  BASE  11.0838  22   13.4887  18   1.7   86    -0.4  83    0     969.8    NA       0.0000   9999     3770  0     0    
2019/03/31  13:49:00  BASE  11.0368  23   13.4887  18   1.7   85    -0.5  83    0     969.8    NA       0.0000   9999     3770  0     0    
2019/03/31  13:50:00  BASE  11.0015  24   13.4887  18   1.7   85    -0.5  83    0     969.8    NA       0.0000   9999     3970  0     0    
2019/03/31  13:51:00  BASE  10.9133  23   13.4887  18   1.7   85    -0.5  82    0     969.9    NA       0.0000   9999     4070  0     0    
2019/03/31  13:52:00  BASE  10.6781  24   13.4299  19   1.8   85    -0.6  81    0     969.9    NA       0.0000   9999     3840  0     0    
2019/03/31  13:53:00  BASE  10.2371  25   12.8243  23   1.8   84    -0.6  80    0     970.0    NA       0.0000   9999     3640  0     0    
2019/03/31  13:54:00  BASE  9.83724  23   12.8243  23   1.8   84    -0.6  80    0     970.0    NA       0.0000   9999     3940  0     0    
2019/03/31  13:55:00  BASE  9.99012  23   12.0364  25   1.8   84    -0.7  81    0     970.1    NA       0.0000   9999     3970  0     0    
2019/03/31  13:56:00  BASE  10.2371  23   12.0364  25   1.7   84    -0.6  82    0     970.1    NA       0.0000   9999     4040  0     0    
2019/03/31  13:57:00  BASE  10.0195  22   12.0364  25   1.7   84    -0.6  83    0     970.2    NA       0.0000   9999     4100  0     0    
2019/03/31  13:58:00  BASE  9.77844  23   12.0364  25   1.7   85    -0.6  83    0     970.2    NA       0.0000   9999     4230  0     0    
2019/03/31  13:59:00  BASE  9.30804  23   12.0364  25   1.6   85    -0.6  83    0     970.3    NA       0.0000   9999     4130  0     0    
2019/03/31  14:00:00  BASE  8.7906   25   11.5248  26   1.6   85    -0.6  83    0     970.3    NA       0.0000   9999     4200  0     0    
2019/03/31  14:01:00  BASE  8.2026   29   11.5248  26   1.6   85    -0.6  83    0     970.4    NA       0.0000   9999     4130  0     0    
2019/03/31  14:02:00  BASE  7.30296  32   10.8604  25   1.5   86    -0.6  82    0     970.4    NA       0.0000   9999     4400  23100 0    
2019/03/31  14:03:00  BASE  6.79728  33   10.831   23   1.5   86    -0.6  81    0     970.5    NA       0.0000   9999     4400  0     0    
2019/03/31  14:04:00  BASE  6.27396  31   10.7369  23   1.5   86    -0.6  80    0     970.5    NA       0.0000   9999     4360  0     0    
2019/03/31  14:05:00  BASE  6.02112  31   10.7369  23   1.5   86    -0.6  79    0     970.6    NA       0.0000   9999     4530  0     0    
2019/03/31  14:06:00  BASE  5.60364  34   10.4958  23   1.5   86    -0.6  78    0     970.6    NA       0.0000   9999     4230  0     0    
2019/03/31  14:07:00  BASE  4.76868  37   10.3429  29   1.5   86    -0.6  77    0     970.6    NA       0.0000   9999     3900  0     0    
2019/03/31  14:08:00  BASE  4.72164  38   10.1018  25   1.5   86    -0.6  77    0     970.7    NA       0.0000   9999     3900  0     0    
2019/03/31  14:09:00  BASE  4.51584  33   10.1018  25   1.5   86    -0.6  77    0     970.7    NA       0.0000   9999     3970  0     0    
2019/03/31  14:10:00  BASE  4.2042   32   9.16692  30   1.5   87    -0.5  77    0     970.7    NA       0.0000   9999     4000  0     0    
2019/03/31  14:11:00  BASE  4.4394   42   8.53188  32   1.5   87    -0.5  78    0     970.7    NA       0.0000   9999     4040  0     0    
2019/03/31  14:12:00  BASE  4.30416  48   8.50248  32   1.5   87    -0.5  79    0     970.8    NA       0.0000   9999     4040  0     0    
2019/03/31  14:13:00  BASE  3.79848  40   7.44408  35   1.5   87    -0.5  80    0     970.8    NA       0.0000   9999     4040  0     0    
2019/03/31  14:14:00  BASE  3.36336  39   7.44408  35   1.5   87    -0.5  82    0     970.8    NA       0.0000   9999     3870  0     0    
2019/03/31  14:15:00  BASE  3.18108  42   6.05052  37   1.5   86    -0.5  84    0     970.8    NA       0.0000   9999     4100  0     0    
2019/03/31  14:16:00  BASE  3.58092  38   6.05052  37   1.5   86    -0.6  85    0     970.8    NA       0.0000   9999     4170  0     0    
2019/03/31  14:17:00  BASE  3.56328  36   6.05052  37   1.5   86    -0.6  86    0     970.8    NA       0.0000   9999     4270  0     0    
2019/03/31  14:18:00  BASE  3.28692  37   6.05052  37   1.6   85    -0.6  87    0     970.8    NA       0.0000   9999     3840  4460  0    
2019/03/31  14:19:00  BASE  3.71616  35   6.05052  37   1.6   85    -0.7  87    0     970.9    NA       0.0000   9999     3870  0     0    
2019/03/31  14:20:00  BASE  4.35708  32   6.05052  37   1.6   85    -0.7  86    0     970.8    NA       0.0000   9999     3540  0     0    
2019/03/31  14:21:00  BASE  4.09248  32   6.05052  37   1.6   85    -0.7  85    0     970.9    NA       0.0000   9999     3480  0     0    
2019/03/31  14:22:00  BASE  3.37512  38   5.50368  32   1.6   85    -0.7  83    0     970.9    NA       0.0000   9999     3350  0     0    
2019/03/31  14:23:00  BASE  3.234    36   5.50368  32   1.6   84    -0.8  80    0     970.9    NA       0.0000   9999     3280  0     0    
2019/03/31  14:24:00  BASE  3.42804  33   5.50368  32   1.6   84    -0.8  79    0     971.0    NA       0.0000   9999     3350  0     0    
2019/03/31  14:25:00  BASE  4.21008  35   5.50368  32   1.6   84    -0.8  77    0     970.9    NA       0.0000   9999     3450  0     0    
2019/03/31  14:26:00  BASE  4.41     39   5.50368  32   1.6   85    -0.7  77    0     971.0    NA       0.0000   9999     3380  0     0    
2019/03/31  14:27:00  BASE  3.95136  49   5.50368  32   1.6   85    -0.7  76    0     971.0    NA       0.0000   9999     3280  0     0    
2019/03/31  14:28:00  BASE  3.68088  63   5.50368  32   1.6   85    -0.7  76    0     971.0    NA       0.0000   9999     3450  0     0    
2019/03/31  14:29:00  BASE  3.2634   74   5.50368  32   1.6   85    -0.7  76    0     971.0    NA       0.0000   9999     3310  0     0    
2019/03/31  14:30:00  BASE  2.96352  79   5.47428  33   1.6   85    -0.7  77    0     971.0    NA       0.0000   9999     3350  0     0    
2019/03/31  14:31:00  BASE  2.88708  74   5.47428  33   1.7   84    -0.7  78    0     971.1    NA       0.0000   9999     3410  0     0    
2019/03/31  14:32:00  BASE  2.793    70   5.47428  33   1.7   84    -0.8  80    0     971.1    NA       0.0000   9999     3480  0     0    
2019/03/31  14:33:00  BASE  2.4696   84   5.47428  33   1.7   83    -0.8  81    0     971.1    NA       0.0000   9999     3380  0     0    
2019/03/31  14:34:00  BASE  2.16384  89   5.47428  33   1.8   83    -0.8  82    0     971.1    NA       0.0000   9999     3380  0     0    
2019/03/31  14:35:00  BASE  1.55232  99   4.68636  30   1.8   83    -0.8  84    0     971.1    NA       0.0000   9999     3310  0     0    
2019/03/31  14:36:00  BASE  1.27596  121  4.59816  61   1.7   83    -0.9  86    0     971.1    NA       0.0000   9999     3410  0     0    
2019/03/31  14:37:00  BASE  1.47588  121  4.59816  61   1.6   83    -1.0  88    0     971.1    NA       0.0000   9999     3450  0     0    
2019/03/31  14:38:00  BASE  1.51116  122  4.02192  51   1.5   83    -1.0  89    0     971.1    NA       0.0000   9999     3450  0     0    
2019/03/31  14:39:00  BASE  1.85808  120  4.02192  51   1.4   84    -1.0  91    0     971.1    NA       0.0000   9999     3540  0     0    
2019/03/31  14:40:00  BASE  2.45196  108  3.69264  48   1.2   85    -0.9  92    0     971.1    NA       0.0000   9999     3640  0     0    
2019/03/31  14:41:00  BASE  2.75772  102  3.234    109  1.2   86    -0.9  93    0     971.1    NA       0.0000   9999     3580  0     0    
2019/03/31  14:42:00  BASE  2.89884  103  3.44568  109  1.1   87    -0.8  94    0     971.0    NA       0.0000   9999     3510  0     0    
2019/03/31  14:43:00  BASE  3.57504  105  4.68636  106  1.1   87    -0.8  96    0     971.0    NA       0.0000   9999     3610  0     0    
2019/03/31  14:44:00  BASE  4.6746   110  5.92704  112  1.1   87    -0.8  97    0     971.0    NA       0.0000   9999     3410  4130  0    
2019/03/31  14:45:00  BASE  4.81572  110  5.92704  112  1.1   87    -0.9  98    0     971.0    NA       0.0000   9999     3480  0     0    
2019/03/31  14:46:00  BASE  3.92784  121  5.92704  112  1.1   86    -0.9  99    0     971.0    NA       0.0000   9999     3510  0     0    
2019/03/31  14:47:00  BASE  3.54564  122  5.92704  112  1.1   86    -0.9  100   0     971.1    NA       0.0000   9999     3510  0     0    
2019/03/31  14:48:00  BASE  4.00428  103  5.92704  112  1.2   86    -1.0  101   0     971.1    NA       0.0000   9999     3380  4000  0    
2019/03/31  14:49:00  BASE  4.22772  91   5.92704  112  1.2   85    -1.0  102   0     971.2    NA       0.0000   9999     3410  3970  0    
2019/03/31  14:50:00  BASE  3.969    79   5.92704  112  1.2   85    -1.0  103   0     971.2    NA       0.0000   9999     3450  0     0    
2019/03/31  14:51:00  BASE  3.95136  83   5.92704  112  1.1   85    -1.0  104   0     971.1    NA       0.0000   9999     3410  0     0    
2019/03/31  14:52:00  BASE  3.94548  102  5.92704  112  1.1   86    -1.1  107   0     971.1    NA       0.0000   9999     3350  0     0    
2019/03/31  14:53:00  BASE  4.01604  101  5.92704  112  1.1   86    -1.1  110   0     971.1    NA       0.0000   9999     3310  3970  0    
2019/03/31  14:54:00  BASE  3.86904  92   5.47428  108  1.0   86    -1.0  109   0     971.1    NA       0.0000   9999     3380  4000  0    
2019/03/31  14:55:00  BASE  3.98664  90   5.47428  108  1.0   86    -1.0  107   0     971.1    NA       0.0000   9999     3410  3940  22340
2019/03/31  14:56:00  BASE  4.02192  93   5.47428  108  1.0   86    -1.0  106   0     971.1    NA       0.0000   9999     3540  3970  0    
2019/03/31  14:57:00  BASE  3.73968  93   5.47428  108  1.0   87    -1.0  105   0     971.1    NA       0.0000   9999     3510  0     0    
2019/03/31  14:58:00  BASE  3.65736  89   5.3214   85   1.0   87    -0.9  104   0     971.1    NA       0.0000   9999     3640  0     0    
2019/03/31  14:59:00  BASE  3.6162   88   4.89804  90   1.0   88    -0.8  104   0     971.1    NA       0.0000   9999     3900  0     0    
2019/03/31  15:00:00  BASE  3.51036  82   4.89804  90   1.1   88    -0.7  103   0     971.1    NA       0.0000   9999     3870  0     0    
2019/03/31  15:01:00  BASE  3.53976  71   4.89804  90   1.1   88    -0.6  103   0     971.1    NA       0.0000   9999     3900  0     0    
2019/03/31  15:02:00  BASE  4.04544  67   5.1744   65   1.2   88    -0.6  104   0     971.1    NA       0.0000   9999     3970  0     0    
2019/03/31  15:03:00  BASE  4.06308  65   5.1744   65   1.3   88    -0.5  105   0     971.1    NA       0.0000   9999     3970  0     0    
2019/03/31  15:04:00  BASE  4.19244  61   5.50368  63   1.4   87    -0.5  104   0     971.1    NA       0.0000   9999     3970  0     0    
2019/03/31  15:05:00  BASE  5.09796  59   6.50328  62   1.4   87    -0.5  102   0     971.1    NA       0.0000   9999     3940  0     0    
2019/03/31  15:06:00  BASE  5.99172  55   7.19712  64   1.5   87    -0.5  101   0     971.1    NA       0.0000   9999     3940  22410 0    
2019/03/31  15:07:00  BASE  6.51504  51   7.77336  48   1.6   86    -0.4  100   0     971.1    NA       0.0000   9999     3970  0     0    
2019/03/31  15:08:00  BASE  6.68556  47   7.77336  48   1.7   86    -0.4  100   0     971.1    NA       0.0000   9999     3970  0     0    
2019/03/31  15:09:00  BASE  6.174    42   7.77336  48   1.7   86    -0.3  101   0     971.1    NA       0.0000   9999     3970  0     0    
2019/03/31  15:10:00  BASE  5.77416  42   7.77336  48   1.8   86    -0.3  101   0     971.1    NA       0.0000   9999     3940  0     0    
2019/03/31  15:11:00  BASE  5.80356  41   7.77336  48   1.8   86    -0.3  101   0     971.1    NA       0.0000   9999     3900  0     0    
2019/03/31  15:12:00  BASE  6.6738   37   9.04344  30   1.7   86    -0.3  101   0     971.1    NA       0.0000   9999     3870  0     0    
2019/03/31  15:13:00  BASE  7.57344  34   9.04344  30   1.7   86    -0.4  101   0     971.1    NA       0.0000   9999     3970  0     0    
2019/03/31  15:14:00  BASE  7.497    34   9.07284  31   1.7   86    -0.4  101   0     971.1    NA       0.0000   9999     4070  0     0    
2019/03/31  15:15:00  BASE  7.60872  34   9.19632  29   1.7   86    -0.4  101   0     971.0    NA       0.0000   9999     4100  0     0    
2019/03/31  15:16:00  BASE  7.76748  34   9.19632  29   1.7   86    -0.3  101   0     971.1    NA       0.0000   9999     4130  0     0    
2019/03/31  15:17:00  BASE  7.5852   35   9.19632  29   1.7   87    -0.3  101   0     971.1    NA       0.0000   9999     4100  0     0    
2019/03/31  15:18:00  BASE  7.12656  34   9.19632  29   1.7   87    -0.3  101   0     971.1    NA       0.0000   9999     4070  0     0    
2019/03/31  15:19:00  BASE  7.10892  34   9.19632  29   1.7   87    -0.3  101   0     971.2    NA       0.0000   9999     4040  0     0    
2019/03/31  15:20:00  BASE  7.28532  32   9.19632  29   1.7   87    -0.3  102   0     971.2    NA       0.0000   9999     4000  0     0    
2019/03/31  15:21:00  BASE  6.89136  31   9.19632  29   1.7   87    -0.3  103   0     971.2    NA       0.0000   9999     4000  0     0    
2019/03/31  15:22:00  BASE  6.62676  31   9.19632  29   1.7   87    -0.3  103   0     971.2    NA       0.0000   9999     3900  0     0    
2019/03/31  15:23:00  BASE  7.42056  29   9.25512  23   1.7   87    -0.2  103   0     971.2    NA       0.0000   9999     3840  0     0    
2019/03/31  15:24:00  BASE  7.80864  30   9.25512  23   1.7   87    -0.2  104   0     971.2    NA       0.0000   9999     3940  0     0    
2019/03/31  15:25:00  BASE  7.69692  30   9.25512  23   1.7   87    -0.3  106   0     971.2    NA       0.0000   9999     3900  0     0    
2019/03/31  15:26:00  BASE  7.72044  31   9.25512  23   1.8   86    -0.3  109   0     971.2    NA       0.0000   9999     3970  0     0    
2019/03/31  15:27:00  BASE  7.83216  31   9.25512  23   1.8   86    -0.3  111   0     971.2    NA       0.0000   9999     3970  0     0    
2019/03/31  15:28:00  BASE  7.80864  29   9.25512  23   1.9   85    -0.3  115   0     971.2    NA       0.0000   9999     3900  0     0    
2019/03/31  15:29:00  BASE  7.1148   30   9.25512  23   1.9   85    -0.4  114   0     971.3    NA       0.0000   9999     3710  0     0    
2019/03/31  15:30:00  BASE  6.37392  35   9.25512  23   1.9   85    -0.4  116   0     971.3    NA       0.0000   9999     3870  0     0    
2019/03/31  15:31:00  BASE  5.7918   35   9.25512  23   1.9   84    -0.5  119   0     971.3    NA       0.0000   9999     3900  0     0    
2019/03/31  15:32:00  BASE  5.86236  36   9.25512  23   1.9   84    -0.5  124   0     971.3    NA       0.0000   9999     3810  0     0    
2019/03/31  15:33:00  BASE  5.92704  41   9.07284  31   1.9   84    -0.5  131   0     971.3    NA       0.0000   9999     3580  0     0    
2019/03/31  15:34:00  BASE  5.99172  42   9.07284  31   1.9   84    -0.5  130   0     971.3    NA       0.0000   9999     3580  0     0    
2019/03/31  15:35:00  BASE  5.86824  47   9.07284  31   1.9   84    -0.5  125   0     971.4    NA       0.0000   9999     3410  0     0    
2019/03/31  15:36:01  BASE  6.09168  50   9.07284  31   1.9   84    -0.5  128   0     971.4    NA       0.0000   9999     3020  0     0    
2019/03/31  15:37:00  BASE  6.33276  49   8.07912  38   1.9   84    -0.5  128   0     971.4    NA       0.0000   9999     3080  0     0    
2019/03/31  15:38:00  BASE  5.56836  52   7.89684  25   1.9   84    -0.5  130   0     971.5    NA       0.0000   9999     2820  0     0    
2019/03/31  15:39:00  BASE  5.3508   55   7.44408  52   1.9   84    -0.5  127   0     971.5    NA       0.0000   9999     3840  0     0    
2019/03/31  15:40:00  BASE  4.86864  63   7.44408  52   1.9   84    -0.5  124   0     971.5    NA       0.0000   9999     2660  3870  0    
2019/03/31  15:41:00  BASE  4.263    78   7.44408  52   1.9   84    -0.5  126   0     971.6    NA       0.0000   9999     2790  0     0    
2019/03/31  15:42:00  BASE  4.19244  93   7.44408  52   1.9   84    -0.5  129   0     971.6    NA       0.0000   9999     3020  0     0    
2019/03/31  15:43:00  BASE  4.12776  105  7.44408  52   1.9   84    -0.5  131   0     971.7    NA       0.0000   9999     3350  0     0    
2019/03/31  15:44:00  BASE  3.88668  112  7.44408  52   1.8   84    -0.6  138   0     971.7    NA       0.0000   9999     3310  0     0    
2019/03/31  15:45:00  BASE  3.91608  113  7.44408  52   1.7   85    -0.6  141   0     971.6    NA       0.0000   9999     3580  0     0    
2019/03/31  15:46:00  BASE  4.28652  121  6.53268  58   1.6   85    -0.7  139   0     971.6    NA       0.0000   9999     3450  0     0    
2019/03/31  15:47:00  BASE  4.22772  131  6.53268  58   1.4   86    -0.7  140   0     971.6    NA       0.0000   9999     3670  0     0    
2019/03/31  15:48:00  BASE  4.06896  137  6.3798   52   1.3   87    -0.7  140   0     971.6    NA       0.0000   9999     3450  0     0    
2019/03/31  15:49:00  BASE  4.16304  141  5.86824  141  1.2   87    -0.6  141   0     971.6    NA       0.0000   9999     3710  0     0    
2019/03/31  15:50:00  BASE  4.92156  143  5.99172  138  1.2   88    -0.7  143   0     971.6    NA       0.0000   9999     3740  0     0    
2019/03/31  15:51:00  BASE  5.53308  138  6.2328   137  1.1   88    -0.7  145   0     971.6    NA       0.0000   9999     3610  0     0    
2019/03/31  15:52:00  BASE  5.90352  133  6.77376  135  1.1   88    -0.7  144   0     971.6    NA       0.0000   9999     3740  0     0    
2019/03/31  15:53:00  BASE  6.2034   133  6.80316  131  1.0   88    -0.7  143   0     971.7    NA       0.0000   9999     3740  0     0    
2019/03/31  15:54:00  BASE  5.9388   133  6.80316  131  1.0   88    -0.7  138   0     971.7    NA       0.0000   9999     3840  0     0    
2019/03/31  15:55:00  BASE  5.733    128  6.80316  131  1.0   88    -0.8  136   0     971.7    NA       0.0000   9999     3840  0     0    
2019/03/31  15:56:00  BASE  6.12696  127  7.13832  133  1.0   88    -0.8  147   0     971.7    NA       0.0000   9999     3870  0     0    
2019/03/31  15:57:00  BASE  5.5566   132  7.13832  133  1.0   88    -0.8  137   0     971.7    NA       0.0000   9999     3810  0     0    
2019/03/31  15:58:00  BASE  4.5864   135  7.13832  133  1.0   88    -0.8  160   0     971.7    NA       0.0000   9999     3710  0     0    
2019/03/31  15:59:00  BASE  4.71576  133  7.13832  133  1.0   88    -0.8  150   0     971.8    NA       0.0000   9999     3740  0     0    
2019/03/31  16:00:00  BASE  4.83924  131  7.13832  133  1.0   87    -0.8  144   0     971.8    NA       0.0000   9999     3810  0     0    
2019/03/31  16:01:00  BASE  5.19204  133  7.13832  133  1.1   87    -0.8  145   0     971.8    NA       0.0000   9999     3710  0     0    
2019/03/31  16:02:00  BASE  5.05092  141  7.13832  133  1.1   87    -0.9  140   0     971.9    NA       0.0000   9999     3580  0     0    
2019/03/31  16:03:00  BASE  4.3512   150  7.13832  133  1.0   87    -0.9  141   0     972.0    NA       0.0000   9999     3770  0     0    
2019/03/31  16:04:00  BASE  3.969    158  7.13832  133  1.0   87    -0.8  148   0     971.9    NA       0.0000   9999     3870  0     0    
2019/03/31  16:05:00  BASE  4.32768  162  7.13832  133  1.0   88    -0.8  143   0     971.8    NA       0.0000   9999     3610  0     0    
2019/03/31  16:06:00  BASE  5.35668  159  6.59148  155  1.0   88    -0.7  144   0     971.8    NA       0.0000   9999     3640  0     0    
2019/03/31  16:07:00  BASE  5.95056  155  6.59148  155  1.0   89    -0.6  167   0     971.8    NA       0.0000   9999     3670  0     0    
2019/03/31  16:08:00  BASE  6.10344  154  6.59148  155  1.0   90    -0.5  159   0     971.8    NA       0.0000   9999     3710  0     0    
2019/03/31  16:09:00  BASE  5.97408  156  6.59148  155  1.0   91    -0.4  153   0     971.9    NA       0.0000   9999     3180  0     0    
2019/03/31  16:10:00  BASE  5.58012  154  6.59148  155  0.9   92    -0.3  163   0     972.0    NA       0.0000   9999     3640  0     0    
2019/03/31  16:11:00  BASE  5.5272   150  6.59148  155  0.9   92    -0.2  158   0     972.0    NA       0.0000   9999     3710  0     0    
2019/03/31  16:12:00  BASE  5.6448   147  6.59148  155  0.9   93    -0.2  153   0     972.0    NA       0.0000   9999     3350  0     0    
2019/03/31  16:13:00  BASE  5.36844  150  6.59148  155  0.8   93    -0.2  149   0     972.1    NA       0.0000   9999     3810  0     0    
2019/03/31  16:14:00  BASE  5.62128  153  6.86784  150  0.8   93    -0.2  153   0     972.0    NA       0.0000   9999     3710  0     0    
2019/03/31  16:15:00  BASE  6.25632  148  6.98544  141  0.8   93    -0.2  139   0     972.0    NA       0.0000   9999     3610  0     0    
2019/03/31  16:16:00  BASE  6.57972  137  7.3794   130  0.8   93    -0.2  136   0     972.0    NA       0.0000   9999     3580  0     0    
2019/03/31  16:17:00  BASE  5.96232  132  7.3794   130  0.8   93    -0.2  134   0     972.1    NA       0.0000   9999     3450  0     0    
2019/03/31  16:18:00  BASE  5.16852  135  7.3794   130  0.8   92    -0.3  133   0     972.1    NA       0.0000   9999     3410  0     0    
2019/03/31  16:19:00  BASE  5.19792  142  7.3794   130  0.8   92    -0.4  133   0     972.0    NA       0.0000   9999     3510  0     0    
2019/03/31  16:20:00  BASE  5.70948  145  7.3794   130  0.8   91    -0.4  134   0     972.0    NA       0.0000   9999     3480  0     0    
2019/03/31  16:21:00  BASE  5.83296  146  7.3794   130  0.8   91    -0.5  136   0     972.0    NA       0.0000   9999     3480  0     0    
2019/03/31  16:22:00  BASE  5.30376  148  7.3794   130  0.8   91    -0.5  138   0     972.0    NA       0.0000   9999     3580  0     0    
2019/03/31  16:23:00  BASE  5.733    143  7.3794   130  0.8   91    -0.4  142   0     972.0    NA       0.0000   9999     3540  0     0    
2019/03/31  16:24:00  BASE  6.29748  138  7.65576  136  0.9   91    -0.4  148   0     972.0    NA       0.0000   9999     3540  0     0    
2019/03/31  16:25:00  BASE  5.292    145  7.65576  136  0.9   91    -0.4  152   0     972.1    NA       0.0000   9999     3510  0     0    
2019/03/31  16:26:01  BASE  3.93372  144  7.65576  136  1.0   91    -0.4  154   0     972.1    NA       0.0000   9999     3480  0     0    
2019/03/31  16:27:00  BASE  3.48096  134  7.65576  136  1.0   90    -0.4  163   0     972.1    NA       0.0000   9999     3410  0     0    
2019/03/31  16:28:00  BASE  3.75144  126  7.65576  136  1.1   90    -0.4  245   0     972.1    NA       0.0000   9999     3450  0     0    
2019/03/31  16:29:00  BASE  3.86904  133  7.65576  136  1.1   89    -0.5  173   0     972.2    NA       0.0000   9999     3540  0     0    
2019/03/31  16:30:00  BASE  3.6456   147  7.65576  136  1.2   88    -0.6  186   0     972.1    NA       0.0000   9999     3410  22440 0    
2019/03/31  16:31:00  BASE  3.69264  149  7.65576  136  1.2   88    -0.6  214   0     972.1    NA       0.0000   9999     3450  0     0    
2019/03/31  16:32:00  BASE  3.8808   156  7.65576  136  1.2   87    -0.6  170   0     972.1    NA       0.0000   9999     3410  0     0    
2019/03/31  16:33:00  BASE  3.6456   166  7.65576  136  1.3   87    -0.7  165   0     972.2    NA       0.0000   9999     3350  0     0    
2019/03/31  16:34:00  BASE  2.56368  156  4.99212  127  1.3   86    -0.7  155   0     972.2    NA       0.0000   9999     3540  0     0    
2019/03/31  16:35:00  BASE  2.32848  131  4.99212  127  1.3   86    -0.7  149   0     972.2    NA       0.0000   9999     3480  0     0    
2019/03/31  16:36:00  BASE  3.22224  130  4.99212  127  1.3   86    -0.8  133   0     972.2    NA       0.0000   9999     3450  0     0    
2019/03/31  16:37:00  BASE  3.31632  138  4.99212  127  1.3   86    -0.8  128   0     972.3    NA       0.0000   9999     3510  0     0    
2019/03/31  16:38:00  BASE  3.37512  137  4.86864  162  1.3   86    -0.8  128   0     972.2    NA       0.0000   9999     2660  3450  0    
2019/03/31  16:39:00  BASE  3.88668  144  4.86864  162  1.2   87    -0.7  130   0     972.2    NA       0.0000   9999     3480  0     0    
2019/03/31  16:40:00  BASE  4.02192  148  4.86864  162  1.2   87    -0.7  131   0     972.2    NA       0.0000   9999     3480  0     0    
2019/03/31  16:41:00  BASE  3.90432  141  4.86864  162  1.1   88    -0.6  134   0     972.2    NA       0.0000   9999     2530  3450  0    
2019/03/31  16:42:00  BASE  4.48056  138  5.53308  138  1.1   89    -0.5  133   0     972.2    NA       0.0000   9999     2690  3510  0    
2019/03/31  16:43:00  BASE  4.85688  143  5.53308  138  1.1   90    -0.4  133   0     972.3    NA       0.0000   9999     3480  0     0    
2019/03/31  16:44:00  BASE  4.72164  144  5.53308  137  1.0   90    -0.4  134   0     972.3    NA       0.0000   9999     3410  0     0    
2019/03/31  16:45:00  BASE  4.9392   138  5.53308  137  1.0   90    -0.4  135   0     972.3    NA       0.0000   9999     2760  3610  0    
2019/03/31  16:46:00  BASE  4.68048  140  5.53308  137  1.0   90    -0.4  138   0     972.3    NA       0.0000   9999     2790  3670  0    
2019/03/31  16:47:00  BASE  3.71028  136  5.53308  137  1.0   90    -0.4  140   0     972.3    NA       0.0000   9999     3640  0     0    
2019/03/31  16:48:00  BASE  2.60484  133  5.53308  137  1.1   89    -0.4  141   0     972.3    NA       0.0000   9999     3580  0     0    
2019/03/31  16:49:00  BASE  2.29908  140  5.53308  137  1.3   88    -0.4  140   0     972.4    NA       0.0000   9999     3670  0     0    
2019/03/31  16:50:00  BASE  2.19324  129  5.53308  137  1.4   87    -0.5  140   0     972.4    NA       0.0000   9999     3670  0     0    
2019/03/31  16:51:00  BASE  2.42256  109  5.53308  137  1.6   86    -0.6  141   0     972.4    NA       0.0000   9999     3640  0     0    
2019/03/31  16:52:00  BASE  3.6456   113  5.53308  137  1.6   85    -0.7  143   0     972.3    NA       0.0000   9999     3580  0     0    
2019/03/31  16:53:00  BASE  4.32768  126  5.53308  137  1.6   84    -0.9  148   0     972.3    NA       0.0000   9999     3610  0     0    
2019/03/31  16:54:00  BASE  3.72792  129  5.292    134  1.5   83    -1.0  160   0     972.3    NA       0.0000   9999     3670  0     0    
2019/03/31  16:55:00  BASE  3.29868  115  4.93332  143  1.5   83    -1.0  207   0     972.4    NA       0.0000   9999     3640  0     0    
2019/03/31  16:56:00  BASE  2.76948  106  4.83924  113  1.5   83    -1.0  184   0     972.4    NA       0.0000   9999     3710  0     0    
2019/03/31  16:57:00  BASE  2.499    122  4.83924  113  1.5   83    -1.1  192   0     972.4    NA       0.0000   9999     3610  0     0    
2019/03/31  16:58:00  BASE  2.9988   133  4.83924  113  1.6   82    -1.1  195   0     972.4    NA       0.0000   9999     3580  0     0    
2019/03/31  16:59:00  BASE  3.45156  135  4.83924  113  1.7   82    -1.1  208   0     972.4    NA       0.0000   9999     3580  0     0    
2019/03/31  17:00:00  BASE  3.56328  138  4.83924  113  1.7   81    -1.3  198   0     972.4    NA       0.0000   9999     3610  0     0    
2019/03/31  17:01:00  BASE  3.19284  137  4.83924  113  1.6   81    -1.3  222   0     972.4    NA       0.0000   9999     3610  0     0    
2019/03/31  17:02:00  BASE  3.90432  127  5.56836  120  1.5   82    -1.3  256   0     972.3    NA       0.0000   9999     3640  0     0    
2019/03/31  17:03:00  BASE  4.79808  121  5.56836  120  1.4   83    -1.3  226   0     972.3    NA       0.0000   9999     3710  0     0    
2019/03/31  17:04:00  BASE  4.77456  121  5.56836  120  1.3   84    -1.1  249   0     972.3    NA       0.0000   9999     3540  0     0    
2019/03/31  17:05:00  BASE  4.78044  118  5.56836  120  1.3   85    -1.0  193   0     972.3    NA       0.0000   9999     3510  0     0    
2019/03/31  17:06:00  BASE  4.58052  114  5.56836  120  1.3   85    -0.9  185   0     972.4    NA       0.0000   9999     3640  0     0    
2019/03/31  17:07:00  BASE  3.90432  107  5.56836  120  1.2   85    -0.9  187   0     972.4    NA       0.0000   9999     3540  0     0    
2019/03/31  17:08:00  BASE  3.42216  106  5.56836  120  1.2   86    -0.9  192   0     972.4    NA       0.0000   9999     3580  0     0    
2019/03/31  17:09:00  BASE  3.53976  105  5.56836  120  1.2   86    -0.9  199   0     972.4    NA       0.0000   9999     3580  0     0    
2019/03/31  17:10:00  BASE  4.15716  103  5.56836  120  1.2   86    -0.9  202   0     972.4    NA       0.0000   9999     3610  0     0    
2019/03/31  17:11:00  BASE  4.34532  103  5.56836  120  1.2   86    -0.8  203   0     972.4    NA       0.0000   9999     3640  0     0    
2019/03/31  17:12:00  BASE  4.29828  100  5.47428  129  1.2   87    -0.7  200   0     972.4    NA       0.0000   9999     3670  0     0    
2019/03/31  17:13:00  BASE  4.69224  100  5.47428  129  1.2   87    -0.6  195   0     972.4    NA       0.0000   9999     3710  0     0    
2019/03/31  17:14:00  BASE  4.45116  105  5.38608  96   1.2   88    -0.6  189   0     972.5    NA       0.0000   9999     3770  0     0    
2019/03/31  17:15:00  BASE  4.32768  116  5.38608  96   1.2   88    -0.6  184   0     972.4    NA       0.0000   9999     3840  0     0    
2019/03/31  17:16:00  BASE  4.10424  118  5.38608  96   1.2   88    -0.5  182   0     972.5    NA       0.0000   9999     3840  0     0    
2019/03/31  17:17:00  BASE  3.81612  113  5.38608  96   1.2   88    -0.6  179   0     972.5    NA       0.0000   9999     3900  0     0    
2019/03/31  17:18:00  BASE  3.6456   116  5.38608  96   1.3   87    -0.6  179   0     972.6    NA       0.0000   9999     3870  0     0    
2019/03/31  17:19:00  BASE  2.84004  119  5.38608  96   1.3   87    -0.6  179   0     972.6    NA       0.0000   9999     3900  0     0    
2019/03/31  17:20:00  BASE  2.49312  123  5.38608  96   1.4   86    -0.7  179   0     972.6    NA       0.0000   9999     3870  0     0    
2019/03/31  17:21:00  BASE  2.8518   130  5.38608  96   1.4   85    -0.8  178   0     972.7    NA       0.0000   9999     3940  0     0    
2019/03/31  17:22:00  BASE  3.528    131  5.35668  98   1.4   84    -0.9  176   0     972.6    NA       0.0000   9999     3870  0     0    
2019/03/31  17:23:00  BASE  4.22184  132  5.1744   138  1.4   84    -1.0  175   0     972.6    NA       0.0000   9999     3900  0     0    
2019/03/31  17:24:00  BASE  4.23948  135  5.2626   123  1.4   84    -1.0  173   0     972.7    NA       0.0000   9999     3840  22770 0    
2019/03/31  17:25:00  BASE  4.24536  132  5.2626   123  1.3   84    -1.1  169   0     972.8    NA       0.0000   9999     4130  0     0    
2019/03/31  17:26:00  BASE  4.4688   130  5.2626   123  1.2   85    -1.1  165   0     972.8    NA       0.0000   9999     3970  0     0    
2019/03/31  17:27:00  BASE  4.22772  129  5.2626   123  1.1   86    -1.0  162   0     972.8    NA       0.0000   9999     3810  0     0    
2019/03/31  17:28:00  BASE  4.00428  132  5.2626   123  1.1   86    -1.0  159   0     972.8    NA       0.0000   9999     3770  0     0    
2019/03/31  17:29:00  BASE  3.528    142  5.2626   123  1.1   87    -0.9  157   0     972.8    NA       0.0000   9999     3710  0     0    
2019/03/31  17:30:00  BASE  2.9694   145  5.2626   123  1.0   87    -0.9  154   0     972.9    NA       0.0000   9999     3740  0     0    
2019/03/31  17:31:00  BASE  2.54604  154  5.2626   123  1.0   88    -0.8  151   0     972.9    NA       0.0000   9999     3710  4330  0    
2019/03/31  17:32:00  BASE  1.84044  150  5.2626   123  1.0   88    -0.7  147   0     972.9    NA       0.0000   9999     3640  0     0    
2019/03/31  17:33:00  BASE  1.16424  128  5.2626   123  1.0   89    -0.6  145   0     972.9    NA       0.0000   9999     3670  0     0    
2019/03/31  17:34:00  BASE  0.60564  140  5.02152  126  1.1   89    -0.5  143   0     972.9    NA       0.0000   9999     3710  0     0    
2019/03/31  17:35:00  BASE  0.74676  170  4.78044  126  1.1   89    -0.5  142   0     972.9    NA       0.0000   9999     3710  0     0    
2019/03/31  17:36:00  BASE  1.16424  184  4.78044  126  1.1   89    -0.4  141   0     973.0    NA       0.0000   9999     3740  0     0    
2019/03/31  17:37:00  BASE  1.30536  179  4.59816  132  1.1   89    -0.4  139   0     973.0    NA       0.0000   9999     3580  0     0    
2019/03/31  17:38:00  BASE  1.30536  182  3.53976  147  1.1   89    -0.5  136   0     973.0    NA       0.0000   9999     3640  0     0    
2019/03/31  17:39:00  BASE  1.0584   180  3.53976  147  1.0   89    -0.5  134   0     973.1    NA       0.0000   9999     3510  0     0    
2019/03/31  17:40:00  BASE  0.96432  182  2.78124  163  1.0   89    -0.6  132   0     973.2    NA       0.0000   9999     3540  0     0    
2019/03/31  17:41:00  BASE  1.176    207  1.93452  171  1.0   89    -0.6  130   0     973.2    NA       0.0000   9999     3480  0     0    
2019/03/31  17:42:00  BASE  1.48176  220  1.93452  171  1.0   89    -0.5  128   0     973.2    NA       0.0000   9999     3450  0     0    
2019/03/31  17:43:00  BASE  1.85808  217  2.84592  208  1.0   90    -0.5  125   0     973.2    NA       0.0000   9999     3480  0     0    
2019/03/31  17:44:00  BASE  2.36964  210  2.87532  212  1.0   90    -0.5  122   0     973.2    NA       0.0000   9999     3480  0     0    
2019/03/31  17:45:00  BASE  2.66364  210  2.87532  215  1.0   91    -0.4  119   0     973.2    NA       0.0000   9999     3480  0     0    
2019/03/31  17:46:00  BASE  2.78712  209  3.234    212  1.0   91    -0.3  118   0     973.3    NA       0.0000   9999     3480  0     0    
2019/03/31  17:47:00  BASE  2.45784  204  3.234    212  1.0   92    -0.2  117   0     973.3    NA       0.0000   9999     3480  24310 0    
2019/03/31  17:48:00  BASE  2.31672  203  3.234    212  0.9   92    -0.2  115   0     973.3    NA       0.0000   9999     3450  0     0    
2019/03/31  17:49:00  BASE  2.5578   205  3.234    212  0.9   93    -0.1  114   0     973.3    NA       0.0000   9999     3410  0     0    
2019/03/31  17:50:00  BASE  2.66952  199  3.234    212  0.9   93    -0.1  113   0     973.3    NA       0.0000   9999     3450  0     0    
2019/03/31  17:51:00  BASE  2.80476  188  3.234    212  0.9   93    -0.1  112   0     973.3    NA       0.0000   9999     3050  3510  0    
2019/03/31  17:52:00  BASE  2.74596  184  3.234    212  0.9   93    -0.1  110   0     973.3    NA       0.0000   9999     3410  0     0    
2019/03/31  17:53:00  BASE  2.5284   182  3.234    212  0.9   93    -0.1  108   0     973.4    NA       0.0000   9999     3350  0     0    
2019/03/31  17:54:00  BASE  2.49312  179  3.234    212  0.9   93    -0.1  107   0     973.4    NA       0.0000   9999     3180  0     0    
2019/03/31  17:55:00  BASE  2.49312  182  3.234    212  0.9   93    -0.0  103   0     973.3    NA       0.0000   9999     2850  0     0    
2019/03/31  17:56:00  BASE  2.27556  181  3.0576   185  0.9   93    -0.0  101   0     973.4    NA       0.0000   9999     2790  0     0    
2019/03/31  17:57:00  BASE  2.15208  171  3.0576   185  0.9   94    0.0   99    0     973.4    NA       0.0000   9999     2790  3480  0    
2019/03/31  17:58:00  BASE  2.205    164  3.0576   185  0.9   94    0.0   97    0     973.5    NA       0.0000   9999     3350  0     0    
2019/03/31  17:59:00  BASE  2.4402   167  3.0576   185  0.9   94    0.1   95    0     973.4    NA       0.0000   9999     3180  0     0    
2019/03/31  18:00:00  BASE  2.7342   168  3.48096  163  0.9   94    0.1   96    0     973.4    NA       0.0000   9999     2530  3180  0    
2019/03/31  18:01:00  BASE  3.381    164  4.35708  161  1.0   94    0.0   96    0     973.3    NA       0.0000   9999     3020  0     0    
2019/03/31  18:02:00  BASE  4.27476  162  4.80984  160  1.0   93    0.0   95    0     973.3    NA       0.0000   9999     2530  3150  0    
2019/03/31  18:03:00  BASE  4.80984  162  5.2038   164  1.0   93    0.0   95    0     973.3    NA       0.0000   9999     2790  0     0    
2019/03/31  18:04:00  BASE  5.04504  164  5.41548  166  1.0   93    -0.0  95    0     973.3    NA       0.0000   9999     2820  0     0    
2019/03/31  18:05:00  BASE  5.18616  165  5.56836  164  1.0   93    -0.0  93    0     973.3    NA       0.0000   7000     2720  0     0    
2019/03/31  18:06:00  BASE  4.99212  166  5.56836  164  0.9   93    -0.1  91    0     973.3    NA       0.0000   UP       7000  2690  0    
2019/03/31  18:07:00  BASE  4.3218   168  5.56836  164  0.9   93    -0.1  88    0     973.3    NA       0.0000   UP       9999  2920  0    
2019/03/31  18:08:00  BASE  3.822    173  5.56836  164  0.9   93    -0.1  86    0     973.4    NA       0.0000   UP       BR    6000  2950 
2019/03/31  18:09:00  BASE  3.25752  180  5.56836  164  0.9   93    -0.1  83    0     973.5    NA       0.0000   UP       BR    5000  3020 
2019/03/31  18:10:00  BASE  2.43432  188  5.56836  164  0.9   93    -0.1  83    0     973.5    NA       0.0000   UP       BR    8000  3310 
2019/03/31  18:11:00  BASE  1.98156  172  5.56836  164  0.9   93    -0.1  84    0     973.5    NA       0.0000   UP       BR    9999  3410 
2019/03/31  18:12:00  BASE  2.66364  140  5.56836  164  0.9   93    -0.1  86    0     973.5    NA       0.0000   UP       BR    9999  3350 
2019/03/31  18:13:00  BASE  3.7044   133  5.56836  164  0.9   93    -0.1  89    0     973.5    NA       0.0000   UP       BR    9999  3280 
2019/03/31  18:14:00  BASE  4.16892  140  5.56836  164  0.9   93    -0.1  91    0     973.5    NA       0.0000   UP       BR    9999  3080 
2019/03/31  18:15:00  BASE  4.28652  144  5.10972  162  0.9   92    -0.2  91    0     973.5    NA       0.0000   UP       BR    9999  2590 
2019/03/31  18:16:00  BASE  4.26888  148  4.75104  151  0.9   92    -0.3  89    0     973.5    NA       0.0000   UP       BR    9999  2590 
2019/03/31  18:17:00  BASE  4.16892  151  4.75104  151  0.9   91    -0.3  86    0     973.5    NA       0.0000   UP       BR    9999  2720 
2019/03/31  18:18:00  BASE  4.01604  128  4.75104  151  1.0   91    -0.4  84    0     973.6    NA       0.0000   UP       9999  2850  0    
2019/03/31  18:19:00  BASE  3.72204  46   4.75104  151  1.0   90    -0.4  83    0     973.6    NA       0.0000   9999     2950  0     0    
2019/03/31  18:20:00  BASE  3.94548  4    5.68596  4    1.1   90    -0.3  83    0     973.6    NA       0.0000   9999     3080  0     0    
2019/03/31  18:21:00  BASE  3.56328  1    5.68596  4    1.1   90    -0.3  82    0     973.6    NA       0.0000   9999     3310  0     0    
2019/03/31  18:22:00  BASE  2.14032  359  5.68596  4    1.1   90    -0.3  83    0     973.7    NA       0.0000   9999     3310  22970 0    
2019/03/31  18:23:00  BASE  1.37004  14   5.68596  4    1.2   90    -0.2  83    0     973.7    NA       0.0000   9999     3250  0     0    
2019/03/31  18:24:00  BASE  1.12896  36   5.68596  4    1.2   90    -0.3  83    0     973.7    NA       0.0000   9999     3250  0     0    
2019/03/31  18:25:00  BASE  0.98784  68   5.68596  4    1.2   90    -0.3  82    0     973.7    NA       0.0000   9999     3280  0     0    
2019/03/31  18:26:00  BASE  1.0878   105  5.68596  4    1.2   89    -0.4  81    0     973.7    NA       0.0000   9999     3350  0     0    
2019/03/31  18:27:00  BASE  1.02312  123  5.68596  4    1.2   89    -0.4  79    0     973.7    NA       0.0000   9999     3350  0     0    
2019/03/31  18:28:00  BASE  0.77616  136  5.68596  4    1.2   89    -0.5  78    0     973.7    NA       0.0000   9999     3020  0     0    
2019/03/31  18:29:00  BASE  1.25832  149  5.68596  4    1.1   89    -0.5  77    0     973.7    NA       0.0000   9999     3480  0     0    
2019/03/31  18:30:00  BASE  1.93452  164  3.59856  2    1.1   89    -0.5  77    0     973.7    NA       0.0000   9999     2590  0     0    
2019/03/31  18:31:00  BASE  2.48724  177  3.087    192  1.1   89    -0.5  77    0     973.7    NA       0.0000   9999     2890  3380  0    
2019/03/31  18:32:00  BASE  2.75184  190  3.087    192  1.0   90    -0.5  77    0     973.7    NA       0.0000   9999     2920  0     0    
2019/03/31  18:33:00  BASE  2.1756   196  3.087    192  1.0   90    -0.4  77    0     973.8    NA       0.0000   9999     2920  0     0    
2019/03/31  18:34:00  BASE  0.95256  220  3.087    192  1.0   90    -0.4  78    0     973.9    NA       0.0000   9999     2950  0     0    
2019/03/31  18:35:00  BASE  0.58212  329  3.087    192  1.0   90    -0.4  79    0     973.9    NA       0.0000   9999     2820  0     0    
2019/03/31  18:36:00  BASE  0.588    1    3.087    192  1.1   90    -0.4  78    0     974.0    NA       0.0000   9999     3180  0     0    
2019/03/31  18:37:00  BASE  0.18816  32   3.087    192  1.1   90    -0.4  78    0     974.0    NA       0.0000   9999     3250  0     0    
2019/03/31  18:38:00  BASE  0.54096  170  3.087    192  1.1   90    -0.4  77    0     974.0    NA       0.0000   9999     3540  0     0    
2019/03/31  18:39:00  BASE  1.27008  184  3.087    192  1.1   90    -0.4  75    0     974.0    NA       0.0000   9999     3380  0     0    
2019/03/31  18:40:00  BASE  1.81104  184  3.087    192  1.1   89    -0.5  74    0     974.0    NA       0.0000   9999     3410  0     0    
2019/03/31  18:41:00  BASE  2.0286   189  3.0576   192  1.1   89    -0.5  72    0     974.0    NA       0.0000   9999     3250  0     0    
2019/03/31  18:42:00  BASE  1.64052  198  2.29908  196  1.1   89    -0.6  71    0     974.0    NA       0.0000   9999     3280  0     0    
2019/03/31  18:43:00  BASE  1.66404  210  2.26968  221  1.1   89    -0.6  70    0     974.0    NA       0.0000   9999     3350  0     0    
2019/03/31  18:44:00  BASE  2.1756   222  2.42256  225  1.1   89    -0.6  69    0     974.0    NA       0.0000   9999     3280  0     0    
2019/03/31  18:45:00  BASE  2.25792  223  2.42256  225  1.1   89    -0.5  68    0     974.0    NA       0.0000   9999     3250  0     0    
2019/03/31  18:46:00  BASE  2.1462   207  2.42256  225  1.1   89    -0.5  68    0     974.0    NA       0.0000   9000     3250  0     0    
2019/03/31  18:47:00  BASE  2.01684  192  2.54016  142  1.1   90    -0.5  68    0     974.1    NA       0.0000   9999     3310  0     0    
2019/03/31  18:48:00  BASE  2.34024  166  3.41628  151  1.0   90    -0.4  67    0     974.1    NA       0.0000   9999     3250  0     0    
2019/03/31  18:49:00  BASE  3.0576   140  3.86904  146  1.0   91    -0.4  67    0     974.1    NA       0.0000   9999     3250  0     0    
2019/03/31  18:50:00  BASE  3.59856  141  4.1454   141  1.0   91    -0.3  66    0     974.1    NA       0.0000   9999     3350  0     0    
2019/03/31  18:51:00  BASE  4.12188  141  4.72164  134  0.9   92    -0.2  66    0     974.2    NA       0.0000   9999     3250  0     0    
2019/03/31  18:52:00  BASE  4.04544  129  4.78044  133  0.9   92    -0.2  66    0     974.1    NA       0.0000   9999     3310  0     0    
2019/03/31  18:53:00  BASE  3.39276  113  4.78044  133  0.9   93    -0.2  67    0     974.2    NA       0.0000   9999     3250  0     0    
2019/03/31  18:54:00  BASE  3.38688  99   4.78044  133  0.9   93    -0.1  68    0     974.2    NA       0.0000   9999     3250  0     0    
2019/03/31  18:55:00  BASE  3.22812  98   4.78044  133  0.9   93    -0.1  70    0     974.3    NA       0.0000   9999     3350  0     0    
2019/03/31  18:56:00  BASE  2.59896  114  4.78044  133  0.9   93    -0.1  73    0     974.3    NA       0.0000   9999     3310  0     0    
2019/03/31  18:57:00  BASE  2.2932   129  4.78044  133  0.9   93    -0.1  76    0     974.3    NA       0.0000   9999     3350  0     0    
2019/03/31  18:58:00  BASE  2.09328  139  4.78044  133  0.9   93    -0.1  80    0     974.3    NA       0.0000   9999     3350  0     0    
2019/03/31  18:59:00  BASE  1.78164  166  4.78044  133  0.9   93    -0.1  83    0     974.4    NA       0.0000   9999     3380  0     0    
2019/03/31  19:00:00  BASE  1.911    209  4.78044  133  0.9   92    -0.1  83    0     974.5    NA       0.0000   9999     3410  4270  0    
2019/03/31  19:01:00  BASE  2.02272  235  4.78044  133  0.9   93    -0.1  83    0     974.5    NA       0.0000   9999     1800  3450  0    
2019/03/31  19:02:00  BASE  1.62876  237  4.08072  102  0.9   93    -0.1  82    0     974.5    NA       0.0000   9999     1510  2920  0    
2019/03/31  19:03:00  BASE  1.75224  237  4.08072  102  0.9   94    0.0   82    0     974.5    NA       0.0000   9999     1050  2200  0    
2019/03/31  19:04:00  BASE  2.54604  241  4.2336   241  0.8   95    0.1   79    0     974.5    NA       0.0000   8000     660   20570 0    
2019/03/31  19:05:00  BASE  3.55152  238  4.93332  233  0.8   96    0.2   77    0     974.5    NA       0.0000   8000     460   2300  0    
2019/03/31  19:06:00  BASE  4.5276   233  5.47428  228  0.8   97    0.4   77    0     974.5    NA       0.0000   8000     330   3120  0    
2019/03/31  19:07:00  BASE  5.10384  227  5.47428  228  0.7   98    0.5   78    0     974.5    NA       0.0000   BR       6000  3220  0    
2019/03/31  19:08:00  BASE  5.19204  223  5.47428  228  0.7   99    0.5   79    0     974.5    NA       0.0000   UP       BR    5000  3280 
2019/03/31  19:09:00  BASE  5.23908  223  5.47428  225  0.6   99    0.6   78    0     974.5    NA       0.0000   UP       BR    6000  3310 
2019/03/31  19:10:00  BASE  5.31552  225  5.53308  227  0.6   100   0.5   77    0     974.5    NA       0.0000   UP       BR    6000  3280 
2019/03/31  19:11:00  BASE  5.13912  224  5.53308  227  0.5   100   0.5   77    0     974.5    NA       0.0000   UP       BR    6000  3310 
2019/03/31  19:12:00  BASE  4.73928  223  5.53308  227  0.5   100   0.5   75    0     974.6    NA       0.0000   UP       BR    8000  3310 
2019/03/31  19:13:00  BASE  4.3806   227  5.53308  227  0.5   100   0.5   73    0     974.6    NA       0.0000   UP       BR    9000  3180 
2019/03/31  19:14:00  BASE  4.31592  230  5.53308  227  0.4   100   0.4   70    0     974.6    NA       0.0000   UP       BR    8000  3180 
2019/03/31  19:15:00  BASE  4.25124  233  5.53308  227  0.4   100   0.4   69    0     974.7    NA       0.0000   UP       BR    9000  3150 
2019/03/31  19:16:00  BASE  4.13952  234  5.53308  227  0.4   100   0.4   68    0     974.7    NA       0.0000   UP       BR    9000  2990 
2019/03/31  19:17:00  BASE  4.49232  233  5.53308  227  0.4   100   0.4   66    0     974.7    NA       0.0000   UP       BR    9000  2920 
2019/03/31  19:18:00  BASE  4.62168  232  5.53308  227  0.4   100   0.4   65    0     974.7    NA       0.0000   UP       BR    9000  3250 
2019/03/31  19:19:00  BASE  4.5276   231  5.53308  227  0.3   100   0.3   65    0     974.7    NA       0.0000   BR       9999  3310  0    
2019/03/31  19:20:00  BASE  4.78632  231  5.41548  230  0.3   100   0.3   66    0     974.7    NA       0.0000   BR       9999  3250  0    
2019/03/31  19:21:00  BASE  4.75104  232  5.56836  232  0.3   100   0.3   66    0     974.7    NA       0.0000   BR       9999  3180  0    
2019/03/31  19:22:00  BASE  4.80396  233  5.80944  232  0.3   100   0.3   66    0     974.7    NA       0.0000   BR       9999  2820  0    
2019/03/31  19:23:00  BASE  5.05092  236  5.80944  232  0.3   100   0.3   65    0     974.7    NA       0.0000   BR       9999  2790  0    
2019/03/31  19:24:00  BASE  4.5864   233  5.80944  232  0.3   100   0.3   64    0     974.8    NA       0.0000   BR       9999  2920  0    
2019/03/31  19:25:00  BASE  4.4982   227  5.80944  232  0.3   100   0.3   62    0     974.8    NA       0.0000   9999     3310  0     0    
2019/03/31  19:26:00  BASE  4.83924  224  5.80944  232  0.2   100   0.2   60    0     974.8    NA       0.0000   9999     3310  21290 0    
2019/03/31  19:27:00  BASE  4.998    225  5.80944  216  0.2   100   0.2   57    0     974.8    NA       0.0000   9999     3280  0     0    
2019/03/31  19:28:00  BASE  4.74516  224  5.80944  216  0.2   100   0.2   56    0     974.8    NA       0.0000   9999     3250  0     0    
2019/03/31  19:29:00  BASE  3.92196  215  5.80944  216  0.2   100   0.2   55    0     974.8    NA       0.0000   9999     2850  0     0    
2019/03/31  19:30:14  BASE  3.31044  190  5.80944  216  0.2   100   0.2   54    0     974.8    NA       0.0000   9999     3120  0     0    
2019/03/31  19:31:00  BASE  3.15756  192  5.80944  216  0.3   100   0.3   54    0     974.9    NA       0.0000   9999     3150  0     0    
2019/03/31  19:32:00  BASE  3.12816  221  5.80944  216  0.3   100   0.3   55    0     974.9    NA       0.0000   9999     1900  0     0    
2019/03/31  19:33:00  BASE  3.05172  218  5.80944  216  0.3   100   0.3   56    0     974.9    NA       0.0000   9999     1440  2690  0    
2019/03/31  19:34:00  BASE  2.92236  196  5.80944  216  0.3   100   0.3   57    0     974.9    NA       0.0000   9999     1180  2490  0    
2019/03/31  19:35:00  BASE  2.92824  181  5.80944  216  0.3   100   0.3   56    0     975.0    NA       0.0000   9999     820   2100  0    
2019/03/31  19:36:00  BASE  3.09288  189  5.80944  216  0.3   100   0.3   54    0     975.1    NA       0.0000   9999     590   1670  0    
2019/03/31  19:37:00  BASE  3.51624  205  5.74476  219  0.3   100   0.3   52    0     975.1    NA       0.0000   8000     430   1280  0    
2019/03/31  19:38:00  BASE  3.83376  210  4.29828  214  0.3   100   0.3   51    0     975.1    NA       0.0000   BR       6000  1020  3180 
2019/03/31  19:39:00  BASE  3.381    199  4.29828  214  0.3   100   0.3   51    0     975.1    NA       0.0000   UP       BR    5000  3250 
2019/03/31  19:40:00  BASE  3.37512  194  4.29828  214  0.3   100   0.3   50    0     975.1    NA       0.0000   UP       BR    4700  460  
2019/03/31  19:41:00  BASE  3.65148  198  4.29828  214  0.3   100   0.3   50    0     975.1    NA       0.0000   UP       BR    3700  3180 
2019/03/31  19:42:00  BASE  3.4986   195  4.29828  214  0.3   100   0.3   49    0     975.1    NA       0.0000   UP       BR    2700  3250 
2019/03/31  19:43:00  BASE  3.38688  189  4.29828  214  0.4   100   0.4   49    0     975.1    NA       0.0000   UP       BR    2200  3120 
2019/03/31  19:44:00  BASE  3.6162   195  4.29828  214  0.4   100   0.4   49    0     975.2    NA       0.0000   UP       BR    2200  1570 
2019/03/31  19:45:00  BASE  3.7044   200  4.29828  214  0.4   100   0.4   48    0     975.2    NA       0.0000   UP       BR    2500  1280 
2019/03/31  19:46:00  BASE  3.528    197  4.29828  214  0.4   100   0.4   47    0     975.2    NA       0.0000   UP       BR    3300  850  
2019/03/31  19:47:00  BASE  3.822    200  4.29828  203  0.4   100   0.4   46    0     975.2    NA       0.0000   UP       BR    4400  720  
2019/03/31  19:48:00  BASE  3.9102   202  4.29828  203  0.3   100   0.3   45    0     975.3    NA       0.0000   UP       BR    5000  660  
2019/03/31  19:49:00  BASE  3.62208  203  4.29828  203  0.3   100   0.3   44    0     975.3    NA       0.0000   UP       BR    5000  490  
2019/03/31  19:50:00  BASE  3.53388  201  4.29828  203  0.3   100   0.3   44    0     975.3    NA       0.0000   UP       BR    5000  2990 
2019/03/31  19:51:00  BASE  3.66912  195  4.29828  203  0.3   100   0.3   43    0     975.3    NA       0.0000   UP       BR    5000  2530 
2019/03/31  19:52:00  BASE  3.73968  194  4.29828  203  0.3   100   0.3   43    0     975.3    NA       0.0000   UP       BR    4000  3020 
2019/03/31  19:53:00  BASE  3.43392  193  4.29828  203  0.3   100   0.3   42    0     975.4    NA       0.0000   UP       BR    2900  1800 
2019/03/31  19:54:00  BASE  2.95764  198  4.29828  203  0.3   100   0.3   40    0     975.4    NA       0.0000   UP       BR    2500  1480 
2019/03/31  19:55:00  BASE  2.86356  206  4.29828  203  0.3   100   0.3   39    0     975.4    NA       0.0000   UP       BR    2500  1310 
2019/03/31  19:56:00  BASE  3.087    208  4.29828  203  0.3   100   0.3   37    0     975.4    NA       0.0000   UP       BR    3100  1150 
2019/03/31  19:57:00  BASE  3.37512  209  4.1748   197  0.3   100   0.3   35    0     975.4    NA       0.0000   UP       BR    4300  950  
2019/03/31  19:58:00  BASE  3.6162   208  4.1748   197  0.3   100   0.3   34    0     975.4    NA       0.0000   UP       BR    5000  2300 
2019/03/31  19:59:00  BASE  3.51624  203  4.1748   197  0.3   100   0.3   33    0     975.4    NA       0.0000   UP       BR    6000  1870 
2019/03/31  20:00:00  BASE  3.1458   202  4.1748   197  0.2   100   0.2   32    0     975.5    NA       0.0000   UP       BR    5000  1800 
2019/03/31  20:01:00  BASE  2.52252  202  4.02192  199  0.2   100   0.2   33    0     975.6    NA       0.0000   UP       BR    6000  2000 
2019/03/31  20:02:00  BASE  2.1462   200  3.96312  213  0.2   100   0.2   33    0     975.6    NA       0.0000   UP       BR    6000  2560 
2019/03/31  20:03:00  BASE  2.19912  205  3.96312  213  0.2   100   0.2   34    0     975.6    NA       0.0000   BR       6000  2230  3050 
2019/03/31  20:04:00  BASE  2.33436  208  3.96312  213  0.2   100   0.2   35    0     975.6    NA       0.0000   BR       6000  1540  2950 
2019/03/31  20:05:00  BASE  2.43432  204  3.96312  213  0.2   100   0.2   35    0     975.6    NA       0.0000   UP       BR    6000  1210 
2019/03/31  20:06:00  BASE  2.48136  203  3.93372  214  0.2   100   0.2   36    0     975.6    NA       0.0000   UP       BR    5000  520  
2019/03/31  20:07:00  BASE  2.3814   205  3.75144  205  0.2   100   0.2   36    0     975.6    NA       0.0000   UP       BR    3700  360  
2019/03/31  20:08:00  BASE  1.93452  207  3.69264  200  0.2   100   0.2   37    0     975.6    NA       0.0000   UP       BR    2400  300  
2019/03/31  20:09:00  BASE  1.7052   212  3.1458   198  0.2   100   0.2   37    0     975.6    NA       0.0000   UP       BR    1800  230  
2019/03/31  20:10:00  BASE  1.89336  217  2.81064  212  0.2   100   0.2   38    0     975.6    NA       0.0000   UP       BR    1400  0    
2019/03/31  20:11:00  BASE  2.18148  221  2.81064  212  0.2   100   0.2   38    0     975.6    NA       0.0000   UP       BR    1400  0    
2019/03/31  20:12:00  BASE  2.1756   225  2.81064  212  0.2   100   0.2   37    0     975.7    NA       0.0000   UP       BR    1600  260  
2019/03/31  20:13:00  BASE  1.9992   231  2.78124  212  0.2   100   0.2   35    0     975.7    NA       0.0000   UP       BR    2100  2400 
2019/03/31  20:14:00  BASE  1.94628  220  2.78124  212  0.2   100   0.2   33    0     975.8    NA       0.0000   UP       BR    2500  2850 
2019/03/31  20:15:00  BASE  1.65816  205  2.78124  212  0.2   100   0.2   32    0     975.8    NA       0.0000   UP       BR    2600  2850 
2019/03/31  20:16:00  BASE  1.22892  201  2.51076  210  0.2   100   0.2   30    0     975.8    NA       0.0000   UP       BR    2600  2820 
2019/03/31  20:17:00  BASE  1.02312  212  2.51076  210  0.2   100   0.2   29    0     975.9    NA       0.0000   UP       BR    2600  2430 
2019/03/31  20:18:00  BASE  1.27596  233  2.51076  210  0.2   100   0.2   29    0     975.9    NA       0.0000   UP       BR    2600  2460 
2019/03/31  20:19:00  BASE  1.50528  243  2.51076  210  0.2   100   0.2   29    0     975.9    NA       0.0000   UP       BR    2600  2100 
2019/03/31  20:20:00  BASE  1.39944  246  2.51076  210  0.1   100   0.1   29    0     975.9    NA       0.0000   UP       BR    2600  1150 
2019/03/31  20:21:00  BASE  1.53468  240  2.48136  237  0.1   100   0.1   29    0     975.9    NA       0.0000   UP       BR    4300  620  
2019/03/31  20:22:00  BASE  1.99332  231  2.54016  226  0.1   100   0.1   29    0     975.9    NA       0.0000   UP       BR    7000  360  
2019/03/31  20:23:00  BASE  2.3814   224  2.69304  221  0.1   100   0.1   29    0     975.9    NA       0.0000   UP       BR    7000  330  
2019/03/31  20:24:00  BASE  2.45784  218  2.69304  221  0.1   100   0.1   30    0     975.9    NA       0.0000   UP       BR    6000  360  
2019/03/31  20:25:00  BASE  2.31084  217  2.69304  221  0.0   100   0.0   29    0     975.9    NA       0.0000   UP       BR    6000  360  
2019/03/31  20:26:00  BASE  2.00508  216  2.69304  221  0.0   100   -0.0  30    0     975.9    NA       0.0000   UP       BR    5000  2230 
2019/03/31  20:27:00  BASE  1.71108  214  2.69304  221  -0.0  100   -0.0  30    0     975.9    NA       0.0000   UP       BR    5000  2590 
2019/03/31  20:28:00  BASE  1.7934   211  2.69304  221  -0.0  100   -0.0  29    0     975.9    NA       0.0000   UP       BR    5000  2530 
2019/03/31  20:29:00  BASE  2.02272  209  2.69304  221  -0.0  100   -0.0  28    0     975.9    NA       0.0000   UP       BR    5000  2230 
2019/03/31  20:30:00  BASE  2.352    208  2.87532  213  -0.0  100   -0.0  27    0     975.9    NA       0.0000   UP       BR    6000  2460 
2019/03/31  20:31:00  BASE  2.62836  208  2.87532  213  -0.0  100   -0.0  26    0     975.9    NA       0.0000   UP       BR    8000  2660 
2019/03/31  20:32:00  BASE  2.41668  208  2.87532  213  -0.0  100   -0.0  25    0     975.9    NA       0.0000   UP       BR    8000  2300 
2019/03/31  20:33:00  BASE  1.9698   210  2.87532  213  -0.0  100   -0.0  25    0     976.0    NA       0.0000   UP       BR    7000  2850 
2019/03/31  20:34:00  BASE  1.71696  211  2.87532  213  -0.0  100   -0.0  26    0     976.0    NA       0.0000   UP       BR    7000  2890 
2019/03/31  20:35:00  BASE  1.89924  212  2.87532  213  -0.1  100   -0.1  26    0     976.0    NA       0.0000   UP       BR    6000  2890 
2019/03/31  20:36:00  BASE  2.31672  212  2.87532  213  -0.1  100   -0.1  26    0     976.0    NA       0.0000   BR       7000  2790  0    
2019/03/31  20:37:00  BASE  2.5872   208  2.87532  213  -0.1  100   -0.1  26    0     976.0    NA       0.0000   BR       7000  2530  0    
2019/03/31  20:38:00  BASE  2.61072  203  2.87532  213  -0.1  100   -0.1  27    0     976.0    NA       0.0000   BR       7000  2330  0    
2019/03/31  20:39:00  BASE  2.42256  203  2.87532  213  -0.1  100   -0.1  28    0     976.0    NA       0.0000   BR       6000  2430  0    
2019/03/31  20:40:00  BASE  2.15208  208  2.84592  203  -0.1  100   -0.1  28    0     976.0    NA       0.0000   BR       7000  2260  2950 
2019/03/31  20:41:00  BASE  1.7934   208  2.84592  203  -0.1  100   -0.1  28    0     976.0    NA       0.0000   BR       8000  2890  0    
2019/03/31  20:42:00  BASE  1.74636  201  2.84592  203  -0.1  100   -0.1  27    0     976.0    NA       0.0000   BR       8000  2890  0    
2019/03/31  20:43:00  BASE  1.8228   196  2.84592  203  -0.1  100   -0.1  26    0     976.0    NA       0.0000   BR       9000  2920  0    
2019/03/31  20:44:00  BASE  1.47     191  2.84592  203  -0.1  100   -0.1  26    0     976.0    NA       0.0000   BR       9000  2850  0    
2019/03/31  20:45:00  BASE  1.02312  184  2.84592  203  -0.1  100   -0.1  25    0     976.1    NA       0.0000   BR       8000  2850  0    
2019/03/31  20:46:00  BASE  0.8232   183  2.84592  203  -0.1  100   -0.1  24    0     976.2    NA       0.0000   BR       8000  2400  2950 
2019/03/31  20:47:00  BASE  0.84084  190  2.69304  200  -0.1  100   -0.1  23    0     976.2    NA       0.0000   BR       8000  2400  2920 
2019/03/31  20:48:00  BASE  0.59388  187  2.42256  203  -0.1  100   -0.1  22    0     976.2    NA       0.0000   BR       9000  2530  0    
2019/03/31  20:49:00  BASE  0.5586   170  2.24028  212  -0.0  100   -0.0  22    0     976.2    NA       0.0000   BR       9000  2950  0    
2019/03/31  20:50:00  BASE  0.84672  166  2.21088  201  -0.0  100   -0.0  22    0     976.2    NA       0.0000   BR       8000  2990  0    
2019/03/31  20:51:00  BASE  0.77028  165  2.21088  201  -0.1  100   -0.1  22    0     976.2    NA       0.0000   BR       9000  2360  3050 
2019/03/31  20:52:00  BASE  0.72912  162  1.93452  201  -0.1  100   -0.1  22    0     976.2    NA       0.0000   BR       9000  2920  0    
2019/03/31  20:53:00  BASE  0.92904  164  1.42296  164  -0.1  100   -0.1  22    0     976.2    NA       0.0000   BR       9999  3020  0    
2019/03/31  20:54:00  BASE  1.07016  166  1.42296  164  -0.1  100   -0.1  23    0     976.2    NA       0.0000   BR       9999  3020  0    
2019/03/31  20:55:00  BASE  1.22304  172  1.66404  181  -0.1  100   -0.1  23    0     976.2    NA       0.0000   BR       9999  2950  3510 
2019/03/31  20:56:00  BASE  1.45236  183  1.72284  187  -0.1  100   -0.1  23    0     976.2    NA       0.0000   BR       9999  2950  0    
2019/03/31  20:57:00  BASE  1.35828  197  1.72284  187  -0.1  100   -0.1  24    0     976.2    NA       0.0000   BR       9000  2430  0    
2019/03/31  20:58:00  BASE  0.87612  196  1.72284  187  -0.1  100   -0.1  24    0     976.3    NA       0.0000   BR       8000  1150  2490 
2019/03/31  20:59:00  BASE  0.51744  189  1.72284  187  -0.1  100   -0.1  24    0     976.4    NA       0.0000   BR       8000  430   1210 
2019/03/31  21:00:00  BASE  0.61152  183  1.72284  187  -0.1  100   -0.1  24    0     976.4    NA       0.0000   BR       8000  430   1210 
2019/03/31  21:01:00  BASE  1.09368  183  1.72284  187  -0.1  100   -0.1  24    0     976.4    NA       0.0000   BR       8000  430   3180 
2019/03/31  21:02:00  BASE  1.45824  191  1.72284  187  -0.1  100   -0.1  23    0     976.4    NA       0.0000   BR       9000  3020  0    
2019/03/31  21:03:00  BASE  1.41708  194  1.72284  187  -0.1  100   -0.1  23    0     976.4    NA       0.0000   BR       9000  2590  0    
2019/03/31  21:04:00  BASE  1.40532  196  1.72284  187  -0.1  100   -0.1  23    0     976.4    NA       0.0000   BR       8000  2460  3180 
2019/03/31  21:05:00  BASE  1.42296  192  1.72284  187  -0.1  100   -0.1  23    0     976.5    NA       0.0000   BR       8000  3150  0    
2019/03/31  21:06:18  BASE  1.48764  180  1.69344  174  -0.1  100   -0.1  23    0     976.5    NA       0.0000   BR       8000  3120  0    
2019/03/31  21:07:00  BASE  1.59348  181  1.75224  187  -0.1  100   -0.1  22    0     976.5    NA       0.0000   BR       7000  2990  0    
2019/03/31  21:08:00  BASE  1.71696  192  2.0874   194  -0.1  100   -0.1  21    0     976.5    NA       0.0000   BR       7000  3020  0    
2019/03/31  21:09:00  BASE  1.61112  193  2.0874   194  -0.1  100   -0.1  20    0     976.5    NA       0.0000   BR       6000  460   3080 
2019/03/31  21:10:00  BASE  1.31712  188  2.0874   194  -0.1  100   -0.1  18    0     976.5    NA       0.0000   BR       7000  560   3020 
2019/03/31  21:11:00  BASE  1.1466   186  2.0874   194  -0.1  100   -0.1  17    0     976.5    NA       0.0000   BR       7000  1210  2990 
2019/03/31  21:12:00  BASE  1.07604  180  2.0874   194  -0.1  100   -0.1  17    0     976.6    NA       0.0000   BR       7000  1150  3180 
2019/03/31  21:13:00  BASE  1.18188  180  2.0874   194  -0.1  100   -0.1  16    0     976.6    NA       0.0000   BR       8000  1120  0    
2019/03/31  21:14:00  BASE  1.21128  188  2.0874   194  -0.1  100   -0.1  15    0     976.6    NA       0.0000   BR       9000  1120  0    
2019/03/31  21:15:00  BASE  1.3524   194  2.0874   194  -0.1  100   -0.1  14    0     976.7    NA       0.0000   BR       9000  980   2720 
2019/03/31  21:16:00  BASE  1.37004  190  2.0874   194  -0.1  100   -0.1  13    0     976.7    NA       0.0000   BR       9000  2560  0    
2019/03/31  21:17:00  BASE  1.2348   186  2.0874   194  -0.1  100   -0.1  12    0     976.7    NA       0.0000   BR       9000  2620  3220 
2019/03/31  21:18:00  BASE  1.35828  182  1.87572  211  -0.1  100   -0.1  12    0     976.7    NA       0.0000   BR       8000  2660  0    
2019/03/31  21:19:00  BASE  1.52292  181  2.0874   191  -0.1  100   -0.1  11    0     976.7    NA       0.0000   BR       8000  2990  0    
2019/03/31  21:20:00  BASE  1.89336  186  2.32848  188  -0.1  100   -0.1  10    0     976.7    NA       0.0000   BR       7000  3080  0    
2019/03/31  21:21:00  BASE  2.12268  188  2.35788  192  -0.1  100   -0.1  9     0     976.7    NA       0.0000   BR       5000  2790  0    
2019/03/31  21:22:00  BASE  2.26968  193  2.75184  193  -0.1  100   -0.1  9     0     976.8    NA       0.0000   BR       4900  2790  0    
2019/03/31  21:23:00  BASE  2.45784  196  2.78124  201  -0.1  100   -0.1  9     0     976.8    NA       0.0000   BR       4700  2720  0    
2019/03/31  21:24:00  BASE  2.56368  194  2.96352  194  -0.1  100   -0.1  9     0     976.8    NA       0.0000   BR       5000  2760  0    
2019/03/31  21:25:00  BASE  2.61072  195  2.96352  194  -0.1  100   -0.1  8     0     976.8    NA       0.0000   BR       6000  2620  0    
2019/03/31  21:26:00  BASE  2.66364  199  3.1458   197  -0.1  100   -0.1  7     0     976.8    NA       0.0000   BR       6000  2690  0    
2019/03/31  21:27:00  BASE  2.74596  200  3.1458   201  -0.1  100   -0.1  6     0     977.0    NA       0.0000   BR       7000  2850  0    
2019/03/31  21:28:00  BASE  2.85768  200  3.1458   201  -0.1  100   -0.1  5     0     977.0    NA       0.0000   BR       7000  2660  0    
2019/03/31  21:29:00  BASE  2.793    197  3.1458   201  -0.1  100   -0.1  5     0     977.0    NA       0.0000   BR       7000  2490  0    
2019/03/31  21:30:00  BASE  2.37552  194  3.1458   201  -0.1  100   -0.1  4     0     977.0    NA       0.0000   BR       6000  2460  0    
2019/03/31  21:31:00  BASE  2.27556  193  3.1458   201  -0.1  100   -0.1  4     0     977.1    NA       0.0000   BR       6000  2490  0    
2019/03/31  21:32:00  BASE  2.42256  189  3.1458   201  -0.1  100   -0.1  4     0     977.1    NA       0.0000   BR       6000  2400  0    
2019/03/31  21:33:00  BASE  2.2932   184  3.1458   201  -0.1  100   -0.1  4     0     977.1    NA       0.0000   BR       6000  1840  2590 
2019/03/31  21:34:00  BASE  2.2344   186  3.1458   201  -0.1  100   -0.1  3     0     977.1    NA       0.0000   BR       6000  1870  0    
2019/03/31  21:35:00  BASE  2.5284   190  3.1458   201  -0.1  100   -0.1  3     0     977.1    NA       0.0000   BR       6000  1510  2460 
2019/03/31  21:36:00  BASE  2.69892  193  3.1458   201  -0.1  100   -0.1  3     0     977.1    NA       0.0000   BR       6000  1250  0    
2019/03/31  21:37:00  BASE  2.66952  196  3.2046   197  -0.1  100   -0.1  3     0     977.2    NA       0.0000   BR       7000  1020  0    
2019/03/31  21:38:00  BASE  2.48136  191  3.2046   197  -0.1  100   -0.1  3     0     977.2    NA       0.0000   BR       7000  2230  0    
2019/03/31  21:39:00  BASE  2.4696   185  3.2046   197  -0.1  100   -0.1  3     0     977.2    NA       0.0000   UP       BR    6000  2000 
2019/03/31  21:40:00  BASE  2.77536  187  3.2046   197  -0.1  100   -0.1  3     0     977.2    NA       0.0000   UP       BR    3800  2590 
2019/03/31  21:41:00  BASE  2.71656  192  3.2046   197  -0.1  100   -0.1  3     0     977.2    NA       0.0000   UP       BR    2500  2560 
2019/03/31  21:42:00  BASE  2.42844  192  3.2046   197  -0.1  100   -0.1  3     0     977.2    NA       0.0000   UP       BR    2100  2490 
2019/03/31  21:43:00  BASE  2.55192  188  3.2046   197  -0.1  100   -0.1  3     0     977.2    NA       0.0000   UP       BR    2100  2560 
2019/03/31  21:44:00  BASE  2.85768  188  3.32808  190  -0.1  100   -0.1  3     0     977.2    NA       0.0000   UP       BR    2300  2460 
2019/03/31  21:45:00  BASE  2.92236  188  3.51036  186  -0.1  100   -0.1  2     0     977.3    NA       0.0000   UP       BR    2700  2360 
2019/03/31  21:46:00  BASE  2.98116  190  3.51036  186  -0.1  100   -0.1  2     0     977.3    NA       0.0000   UP       BR    3300  2560 
2019/03/31  21:47:00  BASE  2.94     192  3.51036  186  -0.1  100   -0.1  2     0     977.3    NA       0.0000   UP       BR    4000  2530 
2019/03/31  21:48:00  BASE  2.69304  185  3.51036  186  -0.1  100   -0.1  2     0     977.3    NA       0.0000   UP       BR    4700  2590 
2019/03/31  21:49:00  BASE  2.28732  181  3.51036  186  -0.1  100   -0.1  2     0     977.3    NA       0.0000   UP       BR    5000  2590 
2019/03/31  21:50:00  BASE  1.95216  179  3.51036  186  -0.1  100   -0.1  2     0     977.3    NA       0.0000   UP       BR    5000  2200 
2019/03/31  21:51:00  BASE  1.75224  185  3.51036  186  -0.1  100   -0.1  3     0     977.3    NA       0.0000   UP       BR    6000  890  
2019/03/31  21:52:00  BASE  1.62876  192  3.51036  186  -0.1  100   -0.1  3     0     977.4    NA       0.0000   BR       6000  820   2620 
2019/03/31  21:53:00  BASE  1.9404   199  3.51036  186  -0.0  100   -0.0  3     0     977.4    NA       0.0000   BR       6000  820   2560 
2019/03/31  21:54:00  BASE  2.26968  204  3.51036  186  -0.0  100   -0.0  2     0     977.4    NA       0.0000   BR       6000  850   2490 
2019/03/31  21:55:00  BASE  2.2638   204  3.29868  193  -0.0  100   -0.0  2     0     977.4    NA       0.0000   BR       6000  850   0    
2019/03/31  21:56:00  BASE  2.12268  202  3.02232  187  0.0   100   0.0   2     0     977.6    NA       0.0000   BR       6000  820   0    
2019/03/31  21:57:00  BASE  1.9698   197  2.72244  177  0.0   100   0.0   1     0     977.6    NA       0.0000   BR       6000  850   0    
2019/03/31  21:58:00  BASE  2.00508  195  2.81064  206  0.0   100   0.0   1     0     977.6    NA       0.0000   BR       6000  890   0    
2019/03/31  21:59:00  BASE  2.40492  203  2.99292  206  0.0   100   0.0   1     0     977.6    NA       0.0000   BR       9999  890   2660 
2019/03/31  22:00:00  BASE  2.75772  207  2.99292  202  0.0   100   0.0   1     0     977.7    NA       0.0000   BR       9999  850   0    
2019/03/31  22:01:00  BASE  2.46372  206  2.99292  202  -0.0  100   -0.0  1     0     977.7    NA       0.0000   BR       9999  790   2560 
2019/03/31  22:02:00  BASE  2.21676  205  2.99292  202  -0.0  100   -0.0  1     0     977.7    NA       0.0000   BR       9999  820   2490 
2019/03/31  22:03:00  BASE  2.16972  202  2.99292  202  -0.0  100   -0.0  1     0     977.7    NA       0.0000   BR       9999  820   2460 
2019/03/31  22:04:00  BASE  1.89924  192  2.99292  202  -0.0  100   -0.0  1     0     977.7    NA       0.0000   BR       9999  1020  2330 
2019/03/31  22:05:00  BASE  1.7346   182  2.99292  202  -0.0  100   -0.0  1     0     977.8    NA       0.0000   BR       9999  820   2230 
2019/03/31  22:06:00  BASE  1.93452  186  2.99292  202  -0.0  100   -0.0  1     0     977.8    NA       0.0000   BR       9999  820   2000 
2019/03/31  22:07:00  BASE  2.12856  188  2.99292  202  -0.0  100   -0.0  0     0     977.8    NA       0.0000   9999     790   2990  0    
2019/03/31  22:08:00  BASE  2.04036  188  2.99292  202  -0.0  100   -0.0  0     0     977.8    NA       0.0000   9999     790   3050  0    
2019/03/31  22:09:00  BASE  1.8228   190  2.99292  202  0.0   100   0.0   0     0     977.8    NA       0.0000   9999     890   2990  0    
2019/03/31  22:10:00  BASE  1.83456  187  2.56956  198  0.0   100   0.0   0     0     977.9    NA       0.0000   9999     980   0     0    
2019/03/31  22:11:00  BASE  2.00508  188  2.48136  204  0.0   100   0.0   0     0     977.9    NA       0.0000   9999     890   0     0    
2019/03/31  22:12:00  BASE  2.09916  191  2.42256  202  0.0   100   0.0   0     0     977.9    NA       0.0000   9999     920   0     0    
2019/03/31  22:13:00  BASE  2.1168   194  2.42256  202  0.0   100   0.0   0     0     977.9    NA       0.0000   9999     950   0     0    
2019/03/31  22:14:00  BASE  2.19324  194  2.72244  186  0.0   100   0.0   0     0     977.9    NA       0.0000   9999     980   0     0    
2019/03/31  22:15:00  BASE  2.21676  181  2.72244  186  0.0   100   0.0   0     0     977.9    NA       0.0000   9999     1050  0     0    
2019/03/31  22:16:00  BASE  2.28732  181  2.93412  189  0.0   100   0.0   0     0     977.9    NA       0.0000   9999     1020  0     0    
2019/03/31  22:17:00  BASE  2.58132  185  3.1458   179  0.0   100   0.0   0     0     977.9    NA       0.0000   9999     1020  0     0    
2019/03/31  22:18:00  BASE  2.62836  183  3.1458   179  0.0   100   0.0   0     0     977.9    NA       0.0000   9999     1020  0     0    
2019/03/31  22:19:00  BASE  2.48724  186  3.1458   179  0.0   100   0.0   0     0     977.9    NA       0.0000   9999     1050  0     0    
2019/03/31  22:20:00  BASE  2.40492  189  3.1458   179  0.0   100   0.0   0     0     978.0    NA       0.0000   9999     1020  0     0    
2019/03/31  22:21:00  BASE  2.499    190  3.1458   179  0.0   100   0.0   0     0     978.1    NA       0.0000   9999     1050  0     0    
2019/03/31  22:22:00  BASE  2.48724  191  3.1458   179  0.0   100   0.0   0     0     978.1    NA       0.0000   9999     950   0     0    
2019/03/31  22:23:00  BASE  2.16972  187  3.1458   179  0.0   100   0.0   0     0     978.1    NA       0.0000   9999     980   0     0    
2019/03/31  22:24:00  BASE  1.77576  188  3.1458   179  0.0   100   0.0   0     0     978.1    NA       0.0000   9999     1020  0     0    
2019/03/31  22:25:00  BASE  1.59348  192  3.1458   179  0.0   100   0.0   0     0     978.2    NA       0.0000   9999     1020  0     0    
2019/03/31  22:26:00  BASE  1.59348  194  3.1458   179  0.0   100   0.0   0     0     978.2    NA       0.0000   9999     1050  0     0    
2019/03/31  22:27:00  BASE  1.78752  193  2.96352  192  0.1   100   0.1   0     0     978.2    NA       0.0000   9999     1050  0     0    
2019/03/31  22:28:00  BASE  2.00508  193  2.96352  192  0.1   100   0.1   0     0     978.2    NA       0.0000   9999     1050  3120  0    
2019/03/31  22:29:00  BASE  1.9992   204  2.96352  192  0.1   100   0.1   0     0     978.2    NA       0.0000   9999     1080  2030  3250 
2019/03/31  22:30:00  BASE  1.90512  218  2.96352  192  0.1   100   0.1   0     0     978.3    NA       0.0000   9999     1080  1940  0    
2019/03/31  22:31:00  BASE  1.87572  221  2.93412  190  0.1   100   0.1   0     0     978.3    NA       0.0000   9999     1120  0     0    
2019/03/31  22:32:00  BASE  1.81692  220  2.32848  197  0.0   100   0.0   0     0     978.3    NA       0.0000   9999     1120  0     0    
2019/03/31  22:33:00  BASE  1.6464   220  2.32848  197  0.0   100   0.0   0     0     978.4    NA       0.0000   9999     1120  0     0    
2019/03/31  22:34:00  BASE  1.49352  219  2.32848  197  0.0   100   0.0   0     0     978.4    NA       0.0000   9999     1080  0     0    
2019/03/31  22:35:00  BASE  1.3524   214  2.32848  197  0.0   100   0.0   0     0     978.4    NA       0.0000   9999     1080  0     0    
2019/03/31  22:36:00  BASE  1.19364  216  2.32848  197  0.0   100   0.0   0     0     978.5    NA       0.0000   9999     1080  0     0    
2019/03/31  22:37:00  BASE  1.16424  224  2.32848  197  0.0   100   0.0   0     0     978.5    NA       0.0000   9999     1080  0     0    
2019/03/31  22:38:00  BASE  1.2054   223  2.29908  202  0.0   100   0.0   0     0     978.5    NA       0.0000   9999     1080  0     0    
2019/03/31  22:39:00  BASE  1.15248  224  1.96392  220  0.0   100   0.0   0     0     978.5    NA       0.0000   9999     1080  0     0    
2019/03/31  22:40:00  BASE  1.11132  222  1.93452  223  0.0   100   0.0   0     0     978.5    NA       0.0000   9999     1080  0     0    
2019/03/31  22:41:00  BASE  1.01136  219  1.81692  220  0.0   100   0.0   0     0     978.5    NA       0.0000   9999     1080  0     0    
2019/03/31  22:42:17  BASE  0.9702   216  1.72284  215  0.1   100   0.1   0     0     978.6    NA       0.0000   9999     1080  0     0    
2019/03/31  22:43:00  BASE  1.16424  214  1.66404  217  0.1   100   0.1   0     0     978.6    NA       0.0000   9999     1080  0     0    
2019/03/31  22:44:00  BASE  1.30536  214  1.60524  221  0.1   100   0.1   0     0     978.5    NA       0.0000   9999     1120  0     0    
2019/03/31  22:45:00  BASE  1.18776  213  1.60524  221  0.1   100   0.1   0     0     978.5    NA       0.0000   9999     1120  0     0    
2019/03/31  22:46:00  BASE  1.04076  211  1.60524  221  0.0   100   0.0   0     0     978.6    NA       0.0000   9999     1120  2820  0    
2019/03/31  22:47:00  BASE  1.03488  205  1.54056  220  0.0   100   0.0   0     0     978.6    NA       0.0000   9999     1180  2760  0    
2019/03/31  22:48:00  BASE  1.14072  207  1.48176  221  0.0   100   0.0   0     0     978.6    NA       0.0000   9999     1250  2790  0    
2019/03/31  22:49:00  BASE  1.39356  212  1.75224  212  0.0   100   0.0   0     0     978.7    NA       0.0000   9999     1180  0     0    
2019/03/31  22:50:00  BASE  1.40532  212  1.75224  212  0.1   100   0.1   0     0     978.7    NA       0.0000   9999     1120  0     0    
2019/03/31  22:51:00  BASE  1.37592  209  1.78752  203  0.1   100   0.1   0     0     978.7    NA       0.0000   9999     1120  0     0    
2019/03/31  22:52:00  BASE  1.76988  205  2.29908  202  0.1   100   0.1   0     0     978.7    NA       0.0000   9999     1120  0     0    
2019/03/31  22:53:00  BASE  2.07564  203  2.51076  197  0.1   100   0.1   0     0     978.7    NA       0.0000   9999     1080  0     0    
2019/03/31  22:54:00  BASE  2.22264  199  2.59896  191  0.1   100   0.1   0     0     978.7    NA       0.0000   9999     1080  0     0    
2019/03/31  22:55:00  BASE  2.24616  193  2.59896  191  0.1   100   0.1   0     0     978.7    NA       0.0000   9999     1080  0     0    
2019/03/31  22:56:00  BASE  2.16384  193  2.59896  191  0.1   100   0.1   0     0     978.8    NA       0.0000   9999     1050  0     0    
2019/03/31  22:57:00  BASE  2.058    192  2.59896  191  0.1   100   0.1   0     0     978.9    NA       0.0000   9999     1020  0     0    
2019/03/31  22:58:00  BASE  1.8228   193  2.59896  191  0.1   100   0.1   0     0     978.9    NA       0.0000   9999     1050  0     0    
2019/03/31  22:59:00  BASE  1.5876   192  2.59896  191  0.1   100   0.1   0     0     978.9    NA       0.0000   9999     1080  0     0    
2019/03/31  23:00:00  BASE  1.47588  191  2.59896  191  0.1   100   0.1   0     0     978.9    NA       0.0000   9999     1050  0     0    
2019/03/31  23:01:00  BASE  1.27008  188  2.59896  191  0.1   100   0.1   0     0     978.9    NA       0.0000   9999     1080  0     0    
2019/03/31  23:02:00  BASE  1.16424  183  2.59896  191  0.1   100   0.1   0     0     979.0    NA       0.0000   9999     1050  0     0    
2019/03/31  23:03:00  BASE  1.12308  189  2.59896  191  0.1   100   0.1   0     0     979.0    NA       0.0000   9999     1050  0     0    
2019/03/31  23:04:00  BASE  0.92316  195  2.35788  197  0.1   100   0.1   0     0     979.0    NA       0.0000   9999     1050  0     0    
2019/03/31  23:05:00  BASE  0.90552  197  2.35788  197  0.1   100   0.1   0     0     979.0    NA       0.0000   9999     660   0     0    
2019/03/31  23:06:00  BASE  1.19364  199  2.1462   190  0.1   100   0.1   0     0     979.0    NA       0.0000   UP       9999  1050  0    
2019/03/31  23:07:00  BASE  1.48764  207  2.0286   218  0.1   100   0.1   0     0     979.1    NA       0.0000   UP       9000  1050  0    
2019/03/31  23:08:00  BASE  1.74636  213  2.1756   219  0.1   100   0.1   0     0     979.1    NA       0.0000   UP       8000  1080  0    
2019/03/31  23:09:00  BASE  2.1462   207  2.54016  205  0.0   100   0.0   0     0     979.1    NA       0.0000   UP       7000  1120  0    
2019/03/31  23:10:00  BASE  2.37552  206  2.56956  206  0.0   100   0.0   0     0     979.1    NA       0.0000   UP       BR    7000  1150 
2019/03/31  23:11:00  BASE  2.37552  208  2.56956  206  0.0   100   0.0   0     0     979.2    NA       0.0000   UP       BR    7000  1120 
2019/03/31  23:12:00  BASE  2.29908  210  2.56956  206  0.0   100   0.0   0     0     979.2    NA       0.0000   UP       BR    8000  1150 
2019/03/31  23:13:00  BASE  2.09328  213  2.56956  206  0.0   100   -0.0  0     0     979.2    NA       0.0000   UP       BR    8000  1120 
2019/03/31  23:14:00  BASE  1.8816   216  2.56956  206  -0.0  100   -0.0  0     0     979.2    NA       0.0000   UP       BR    8000  1120 
2019/03/31  23:15:00  BASE  1.72872  219  2.56956  206  -0.0  100   -0.0  0     0     979.2    NA       0.0000   UP       BR    8000  1150 
2019/03/31  23:16:00  BASE  1.54056  221  2.56956  206  -0.0  100   -0.0  0     0     979.2    NA       0.0000   UP       BR    8000  690  
2019/03/31  23:17:00  BASE  1.42296  226  2.56956  206  -0.0  100   -0.0  0     0     979.3    NA       0.0000   UP       BR    8000  1120 
2019/03/31  23:18:00  BASE  1.31712  232  2.56956  206  -0.0  100   -0.0  0     0     979.3    NA       0.0000   UP       BR    8000  1120 
2019/03/31  23:19:00  BASE  1.28184  235  2.56956  206  -0.0  100   -0.0  0     0     979.3    NA       0.0000   UP       BR    8000  1080 
2019/03/31  23:20:00  BASE  1.37592  236  2.56956  206  -0.0  100   -0.0  0     0     979.3    NA       0.0000   UP       BR    8000  1050 
2019/03/31  23:21:00  BASE  1.323    246  2.35788  214  0.0   100   0.0   0     0     979.3    NA       0.0000   UP       BR    9000  1020 
2019/03/31  23:22:00  BASE  1.28772  255  2.24028  212  0.0   100   0.0   0     0     979.4    NA       0.0000   UP       BR    9999  560  
2019/03/31  23:23:00  BASE  1.27008  261  1.96392  222  0.0   100   0.0   0     0     979.5    NA       0.0000   UP       BR    9999  390  
2019/03/31  23:24:00  BASE  1.19952  270  1.81692  220  0.0   100   0.0   0     0     979.5    NA       0.0000   UP       BR    9000  360  
2019/03/31  23:25:00  BASE  1.68756  297  2.56956  332  0.0   100   0.0   0     0     979.5    NA       0.0000   UP       BR    6000  330  
2019/03/31  23:26:00  BASE  2.5578   326  3.2046   329  0.0   100   0.0   0     0     979.5    NA       0.0000   UP       BR    6000  360  
2019/03/31  23:27:00  BASE  3.1458   327  3.65736  324  0.0   100   0.0   0     0     979.5    NA       0.0000   UP       BR    6000  360  
2019/03/31  23:28:00  BASE  3.21048  321  3.65736  324  0.0   100   0.0   0     0     979.5    NA       0.0000   UP       BR    7000  330  
2019/03/31  23:29:00  BASE  2.94     314  3.65736  324  -0.1  100   -0.1  0     0     979.5    NA       0.0000   UP       BR    8000  330  
2019/03/31  23:30:00  BASE  2.69304  323  3.65736  324  -0.1  100   -0.1  0     0     979.5    NA       0.0000   UP       BR    7000  300  
2019/03/31  23:31:00  BASE  2.93412  331  4.2336   327  -0.2  100   -0.2  0     0     979.5    NA       0.0000   UP       BR    8000  330  
2019/03/31  23:32:00  BASE  3.83376  329  4.62756  327  -0.3  100   -0.3  0     0     979.5    NA       0.0000   UP       BR    8000  330  
2019/03/31  23:33:00  BASE  4.36884  335  4.75104  343  -0.3  100   -0.3  0     0     979.5    NA       0.0000   UP       BR    8000  300  
2019/03/31  23:34:00  BASE  3.9396   340  4.75104  343  -0.3  100   -0.3  0     0     979.5    NA       0.0000   UP       BR    9000  260  
2019/03/31  23:35:00  BASE  3.3516   341  4.75104  343  -0.4  100   -0.4  0     0     979.6    NA       0.0000   UP       BR    7000  0    
2019/03/31  23:36:00  BASE  2.98116  340  4.75104  343  -0.4  100   -0.4  0     0     979.6    NA       0.0000   UP       BR    5000  0    
2019/03/31  23:37:00  BASE  2.5872   335  4.75104  343  -0.4  100   -0.4  0     0     979.6    NA       0.0000   UP       BR    4400  0    
2019/03/31  23:38:00  BASE  2.21676  335  4.75104  343  -0.5  100   -0.5  0     0     979.6    NA       0.0000   UP       BR    4000  0    
2019/03/31  23:39:00  BASE  2.205    327  4.75104  343  -0.5  100   -0.5  0     0     979.7    NA       0.0000   UP       BR    3200  0    
2019/03/31  23:40:01  BASE  2.61072  315  4.75104  343  -0.5  100   -0.5  0     0     979.7    NA       0.0000   UP       BR    3300  0    
2019/03/31  23:41:01  BASE  3.04584  315  4.75104  343  -0.5  100   -0.5  0     0     979.7    NA       0.0000   UP       BR    3700  0    
2019/03/31  23:42:01  BASE  3.34572  319  4.75104  343  -0.5  100   -0.5  0     0     979.7    NA       0.2540   UP       BR    4300  0    
2019/03/31  23:43:01  BASE  3.23988  322  3.81024  319  -0.5  100   -0.5  0     0     979.8    NA       0.0000   UP       BR    4400  0    
2019/03/31  23:44:01  BASE  3.25164  324  3.81024  319  -0.6  100   -0.6  0     0     979.8    NA       0.0000   UP       BR    3600  0    
2019/03/31  23:45:01  BASE  3.528    326  3.81024  319  -0.6  100   -0.6  0     0     979.8    NA       0.0000   UP       BR    4100  0    
2019/03/31  23:46:01  BASE  3.60444  329  3.86904  330  -0.6  100   -0.6  0     0     979.8    NA       0.0000   -SN      BR    5000  0    
2019/03/31  23:47:01  BASE  3.4986   334  3.93372  338  -0.6  100   -0.6  0     0     979.8    NA       0.0000   -SN      BR    6000  0    
2019/03/31  23:48:01  BASE  3.13992  336  3.93372  338  -0.6  100   -0.6  0     0     979.8    NA       0.0000   -SN      BR    5000  0    
2019/03/31  23:49:01  BASE  3.19284  335  3.93372  338  -0.5  100   -0.5  0     0     979.8    NA       0.0000   -SN      BR    5000  0    
2019/03/31  23:50:01  BASE  3.42216  338  3.93372  338  -0.5  100   -0.5  0     0     979.8    NA       0.0000   -SN      BR    5000  0    
2019/03/31  23:51:01  BASE  3.36336  342  3.93372  338  -0.5  100   -0.5  0     0     979.8    NA       0.0000   -SN      BR    5000  260  
2019/03/31  23:52:01  BASE  3.26928  343  3.93372  338  -0.5  100   -0.5  0     0     979.9    NA       0.0000   -SN      BR    9000  360  
2019/03/31  23:53:01  BASE  3.03996  342  3.93372  338  -0.4  100   -0.4  0     0     979.9    NA       0.0000   -SN      BR    9999  390  
2019/03/31  23:54:01  BASE  2.98704  341  3.93372  338  -0.4  100   -0.4  0     0     979.9    NA       0.0000   -SN      BR    9999  360  
2019/03/31  23:55:01  BASE  3.1752   348  4.02192  1    -0.4  100   -0.4  0     0     979.9    NA       0.0000   -SN      BR    9999  390  
2019/03/31  23:56:01  BASE  4.07484  3    5.83884  12   -0.4  100   -0.4  0     0     979.9    NA       0.0000   -SN      BR    9999  1120 
2019/03/31  23:57:01  BASE  4.80396  349  5.83884  12   -0.4  100   -0.4  0     0     979.9    NA       0.0000   -SN      BR    9999  620  
2019/03/31  23:58:01  BASE  4.28064  339  5.83884  12   -0.4  100   -0.4  0     0     980.0    NA       0.0000   -SN      BR    9999  430  
2019/03/31  23:59:01  BASE  3.54564  347  5.83884  12   -0.4  100   -0.4  0     0     980.1    NA       0.0000   -SN      9999  560   2400